[[{"header":{"parameterUnit":"m.s-1","parameterCategory":1,"la1":30.6,"la2":28.766,"lo1":-90.7593,"lo2":-88.6598,"dy":0.0162,"dx":0.0183,"nx":116,"ny":114,"refTime":"2024-04-26T12:00:00:Z","depth":0,"parameterNumber":2,"parameterNumberName":"U-component_of_WINDS"},"data":[0.0,0.0,0.0,0.0,0.0,0.0,0.0,0.0,0.0,0.0,0.0,0.0,0.0,0.0,0.0,0.0,0.0,0.0,0.0,0.0,0.0,0.0,0.0,0.0,0.0,0.0,0.0,0.0,0.0,0.0,0.0,0.0,0.0,0.0,0.0,0.0,0.0,0.0,0.0,0.0,0.0,0.0,0.0,0.0,0.0,0.0,0.0,0.0,0.0,0.0,0.0,0.0,0.0,0.0,0.0,0.0,0.0,0.0,0.0,0.0,0.0,0.0,0.0,0.0,0.0,0.0,0.0,0.0,0.0,0.0,0.0,0.0,0.0,0.0,0.0,0.0,0.0,0.0,0.0,0.0,0.0,0.0,0.0,0.0,0.0,0.0,0.0,0.0,0.0,0.0,0.0,0.0,0.0,0.0,0.0,0.0,0.0,0.0,0.0,0.0,0.0,0.0,0.0,0.0,0.0,0.0,0.0,0.0,0.0,0.0,0.0,0.0,0.0,0.0,0.0,0.0,0.0,0.0,0.0,0.0,0.0,0.0,0.0,0.0,0.0,0.0,0.0,0.0,0.0,0.0,0.0,0.0,0.0,0.0,0.0,0.0,0.0,0.0,0.0,0.0,0.0,0.0,0.0,0.0,0.0,0.0,0.0,0.0,0.0,0.0,0.0,0.0,0.0,0.0,0.0,0.0,0.0,0.0,0.0,0.0,0.0,0.0,0.0,0.0,0.0,0.0,0.0,0.0,0.0,0.0,0.0,0.0,0.0,0.0,0.0,0.0,0.0,0.0,0.0,0.0,0.0,0.0,0.0,0.0,0.0,0.0,0.0,0.0,0.0,0.0,0.0,0.0,0.0,0.0,0.0,0.0,0.0,0.0,0.0,0.0,0.0,0.0,0.0,0.0,0.0,0.0,0.0,0.0,0.0,0.0,0.0,0.0,0.0,0.0,0.0,0.0,0.0,0.0,0.0,0.0,0.0,0.0,0.0,0.0,0.0,0.0,0.0,0.0,0.0,0.0,0.0,0.0,0.0,0.0,0.0,0.0,0.0,0.0,0.0,0.0,0.0,0.0,0.0,0.0,0.0,0.0,0.0,0.0,0.0,0.0,0.0,0.0,0.0,0.0,0.0,0.0,0.0,0.0,0.0,0.0,0.0,0.0,0.0,0.0,0.0,0.0,0.0,0.0,0.0,0.0,0.0,0.0,0.0,0.0,0.0,0.0,0.0,0.0,0.0,0.0,0.0,0.0,0.0,0.0,0.0,0.0,0.0,0.0,0.0,0.0,0.0,0.0,0.0,0.0,0.0,0.0,0.0,0.0,0.0,0.0,0.0,0.0,0.0,0.0,0.0,0.0,0.0,0.0,0.0,0.0,0.0,0.0,0.0,0.0,0.0,0.0,0.0,0.0,0.0,0.0,0.0,0.0,0.0,0.0,0.0,0.0,0.0,0.0,0.0,0.0,0.0,0.0,0.0,0.0,0.0,0.0,0.0,0.0,0.0,0.0,0.0,0.0,0.0,0.0,0.0,0.0,0.0,0.0,0.0,0.0,0.0,0.0,0.0,0.0,0.0,0.0,0.0,0.0,0.0,0.0,0.0,0.0,0.0,0.0,0.0,0.0,0.0,0.0,0.0,0.0,0.0,0.0,0.0,0.0,0.0,0.0,0.0,0.0,0.0,0.0,0.0,0.0,0.0,0.0,0.0,0.0,0.0,0.0,0.0,0.0,0.0,0.0,0.0,0.0,0.0,0.0,0.0,0.0,0.0,0.0,0.0,0.0,0.0,0.0,0.0,0.0,0.0,0.0,0.0,0.0,0.0,0.0,0.0,0.0,0.0,0.0,0.0,0.0,0.0,0.0,0.0,0.0,0.0,0.0,0.0,0.0,0.0,0.0,0.0,0.0,0.0,0.0,0.0,0.0,0.0,0.0,0.0,0.0,0.0,0.0,0.0,0.0,0.0,0.0,0.0,0.0,0.0,0.0,0.0,0.0,0.0,0.0,0.0,0.0,0.0,0.0,0.0,0.0,0.0,0.0,0.0,0.0,0.0,0.0,0.0,0.0,0.0,0.0,0.0,0.0,0.0,0.0,0.0,0.0,0.0,0.0,0.0,0.0,0.0,0.0,0.0,0.0,0.0,0.0,0.0,0.0,0.0,0.0,0.0,0.0,0.0,0.0,0.0,0.0,0.0,0.0,0.0,0.0,0.0,0.0,0.0,0.0,0.0,0.0,0.0,0.0,0.0,0.0,0.0,0.0,0.0,0.0,0.0,0.0,0.0,0.0,0.0,0.0,0.0,0.0,0.0,0.0,0.0,0.0,0.0,0.0,0.0,0.0,0.0,0.0,0.0,0.0,0.0,0.0,0.0,0.0,0.0,0.0,0.0,0.0,0.0,0.0,0.0,0.0,0.0,0.0,0.0,0.0,0.0,0.0,0.0,0.0,0.0,0.0,0.0,0.0,0.0,0.0,0.0,0.0,0.0,0.0,0.0,0.0,0.0,0.0,0.0,0.0,0.0,0.0,0.0,0.0,0.0,0.0,0.0,0.0,0.0,0.0,0.0,0.0,0.0,0.0,0.0,0.0,0.0,0.0,0.0,0.0,0.0,0.0,0.0,0.0,0.0,0.0,0.0,0.0,0.0,0.0,0.0,0.0,0.0,0.0,0.0,0.0,0.0,0.0,0.0,0.0,0.0,0.0,0.0,0.0,0.0,0.0,0.0,0.0,0.0,0.0,0.0,0.0,0.0,0.0,0.0,0.0,0.0,0.0,0.0,0.0,0.0,0.0,0.0,0.0,0.0,0.0,0.0,0.0,0.0,0.0,0.0,0.0,0.0,0.0,0.0,0.0,0.0,0.0,0.0,0.0,0.0,0.0,0.0,0.0,0.0,0.0,0.0,0.0,0.0,0.0,0.0,0.0,0.0,0.0,0.0,0.0,0.0,0.0,0.0,0.0,0.0,0.0,0.0,0.0,0.0,0.0,0.0,0.0,0.0,0.0,0.0,0.0,0.0,0.0,0.0,0.0,0.0,0.0,0.0,0.0,0.0,0.0,0.0,0.0,0.0,0.0,0.0,0.0,0.0,0.0,0.0,0.0,0.0,0.0,0.0,0.0,0.0,0.0,0.0,0.0,0.0,0.0,0.0,0.0,0.0,0.0,0.0,0.0,0.0,0.0,0.0,0.0,0.0,0.0,0.0,0.0,0.0,0.0,0.0,0.0,0.0,0.0,0.0,0.0,0.0,0.0,0.0,0.0,0.0,0.0,0.0,0.0,0.0,0.0,0.0,0.0,0.0,0.0,0.0,0.0,0.0,0.0,0.0,0.0,0.0,0.0,0.0,0.0,0.0,0.0,0.0,0.0,0.0,0.0,0.0,0.0,0.0,0.0,0.0,0.0,0.0,0.0,0.0,0.0,0.0,0.0,0.0,0.0,0.0,0.0,0.0,0.0,0.0,0.0,0.0,0.0,0.0,0.0,0.0,0.0,0.0,0.0,0.0,0.0,0.0,0.0,0.0,0.0,0.0,0.0,0.0,0.0,0.0,0.0,0.0,0.0,0.0,0.0,0.0,0.0,0.0,0.0,0.0,0.0,0.0,0.0,0.0,0.0,0.0,0.0,0.0,0.0,0.0,0.0,0.0,0.0,0.0,0.0,0.0,0.0,0.0,0.0,0.0,0.0,0.0,0.0,0.0,0.0,0.0,0.0,0.0,0.0,0.0,0.0,0.0,0.0,0.0,0.0,0.0,0.0,0.0,0.0,0.0,0.0,0.0,0.0,0.0,0.0,0.0,0.0,0.0,0.0,0.0,0.0,0.0,0.0,0.0,0.0,0.0,0.0,0.0,0.0,0.0,0.0,0.0,0.0,0.0,0.0,0.0,0.0,0.0,0.0,0.0,0.0,0.0,0.0,0.0,0.0,0.0,0.0,0.0,0.0,0.0,0.0,0.0,0.0,0.0,0.0,0.0,0.0,0.0,0.0,0.0,0.0,0.0,0.0,0.0,0.0,0.0,0.0,0.0,0.0,0.0,0.0,0.0,0.0,0.0,0.0,0.0,0.0,0.0,0.0,0.0,0.0,0.0,0.0,0.0,0.0,0.0,0.0,0.0,0.0,0.0,0.0,0.0,0.0,0.0,0.0,0.0,0.0,0.0,0.0,0.0,0.0,0.0,0.0,0.0,0.0,0.0,0.0,0.0,0.0,0.0,0.0,0.0,0.0,0.0,0.0,0.0,0.0,0.0,0.0,0.0,0.0,0.0,0.0,0.0,0.0,0.0,0.0,0.0,0.0,0.0,0.0,0.0,0.0,0.0,0.0,0.0,0.0,0.0,0.0,0.0,0.0,0.0,0.0,0.0,0.0,0.0,0.0,0.0,0.0,0.0,0.0,0.0,0.0,0.0,0.0,0.0,0.0,0.0,0.0,0.0,0.0,0.0,0.0,0.0,0.0,0.0,0.0,0.0,0.0,0.0,0.0,0.0,0.0,0.0,0.0,0.0,0.0,0.0,0.0,0.0,0.0,0.0,0.0,0.0,0.0,0.0,0.0,0.0,0.0,0.0,0.0,0.0,0.0,0.0,0.0,0.0,0.0,0.0,0.0,0.0,0.0,0.0,0.0,0.0,0.0,0.0,0.0,0.0,0.0,0.0,0.0,0.0,0.0,0.0,0.0,0.0,0.0,0.0,0.0,0.0,0.0,0.0,0.0,0.0,0.0,0.0,0.0,0.0,0.0,0.0,0.0,0.0,0.0,0.0,0.0,0.0,0.0,0.0,0.0,0.0,0.0,0.0,0.0,0.0,0.0,0.0,0.0,0.0,0.0,0.0,0.0,0.0,0.0,0.0,0.0,0.0,0.0,0.0,0.0,0.0,0.0,0.0,0.0,0.0,0.0,0.0,0.0,0.0,0.0,0.0,0.0,0.0,0.0,0.0,0.0,0.0,0.0,0.0,0.0,0.0,0.0,0.0,0.0,0.0,0.0,0.0,0.0,0.0,0.0,0.0,0.0,0.0,0.0,0.0,0.0,0.0,0.0,0.0,0.0,0.0,0.0,0.0,0.0,0.0,0.0,0.0,0.0,0.0,0.0,0.0,0.0,0.0,0.0,0.0,0.0,0.0,0.0,0.0,0.0,0.0,0.0,0.0,0.0,0.0,0.0,0.0,0.0,0.0,0.0,0.0,0.0,0.0,0.0,0.0,0.0,0.0,0.0,0.0,0.0,0.0,0.0,0.0,0.0,0.0,0.0,0.0,0.0,0.0,0.0,0.0,0.0,0.0,0.0,0.0,0.0,0.0,0.0,0.0,0.0,0.0,0.0,0.0,0.0,0.0,0.0,0.0,0.0,0.0,0.0,0.0,0.0,0.0,0.0,0.0,0.0,0.0,0.0,0.0,0.0,0.0,0.0,0.0,0.0,0.0,0.0,0.0,0.0,0.0,0.0,0.0,0.0,0.0,0.0,0.0,0.0,0.0,0.0,0.0,0.0,0.0,0.0,0.0,0.0,0.0,0.0,0.0,0.0,0.0,0.0,0.0,0.0,0.0,0.0,0.0,0.0,0.0,0.0,0.0,0.0,0.0,0.0,0.0,0.0,0.0,0.0,0.0,0.0,0.0,0.0,0.0,0.0,0.0,0.0,0.0,0.0,0.0,0.0,0.0,0.0,0.0,0.0,0.0,0.0,0.0,0.0,0.0,0.0,0.0,0.0,0.0,0.0,0.0,0.0,0.0,0.0,0.0,0.0,0.0,0.0,0.0,0.0,0.0,0.0,0.0,0.0,0.0,0.0,0.0,0.0,0.0,0.0,0.0,0.0,0.0,0.0,0.0,0.0,0.0,0.0,0.0,0.0,0.0,0.0,0.0,0.0,0.0,0.0,0.0,0.0,0.0,0.0,0.0,0.0,0.0,0.0,0.0,0.0,0.0,0.0,0.0,0.0,0.0,0.0,0.0,0.0,0.0,0.0,0.0,0.0,0.0,0.0,0.0,0.0,0.0,0.0,0.0,0.0,0.0,0.0,0.0,0.0,0.0,0.0,0.0,0.0,0.0,0.0,0.0,0.0,0.0,0.0,0.0,0.0,0.0,0.0,0.0,0.0,0.0,0.0,-2.466,0.0,0.0,0.0,0.0,0.0,0.0,0.0,0.0,0.0,0.0,0.0,0.0,0.0,0.0,0.0,0.0,0.0,0.0,0.0,0.0,0.0,0.0,0.0,0.0,-2.1614,-2.1787,-2.1787,-2.1504,-2.1364,-2.1364,0.0,0.0,0.0,0.0,0.0,-2.1245,-2.1221,-2.1221,-2.1221,-2.1221,-2.139,-2.1673,-2.0255,-1.9402,-1.9139,0.0,0.0,0.0,0.0,0.0,0.0,0.0,0.0,0.0,0.0,0.0,0.0,0.0,0.0,0.0,0.0,0.0,0.0,0.0,0.0,0.0,0.0,0.0,0.0,0.0,0.0,0.0,0.0,0.0,0.0,0.0,0.0,0.0,0.0,0.0,0.0,0.0,0.0,0.0,0.0,0.0,0.0,0.0,0.0,0.0,0.0,0.0,0.0,0.0,0.0,0.0,0.0,0.0,0.0,0.0,0.0,0.0,0.0,0.0,0.0,0.0,0.0,0.0,0.0,0.0,0.0,0.0,0.0,0.0,0.0,0.0,-2.5712,0.0,0.0,0.0,0.0,0.0,0.0,0.0,0.0,0.0,0.0,0.0,0.0,0.0,0.0,0.0,0.0,0.0,0.0,0.0,0.0,0.0,-2.2867,-2.2867,-2.3312,-2.3595,-2.3595,-2.3143,-2.2867,-2.2867,-2.2331,0.0,0.0,-2.2025,-2.1979,-2.1875,-2.1875,-2.1875,-2.1875,-2.1993,-2.2025,-2.2025,-2.2025,-2.1724,-2.114,-2.1004,0.0,0.0,0.0,0.0,0.0,0.0,0.0,0.0,0.0,0.0,0.0,0.0,0.0,0.0,0.0,0.0,0.0,0.0,0.0,0.0,0.0,0.0,0.0,0.0,0.0,0.0,0.0,0.0,0.0,0.0,0.0,0.0,0.0,0.0,0.0,0.0,0.0,0.0,0.0,0.0,0.0,0.0,0.0,0.0,0.0,0.0,0.0,0.0,0.0,0.0,0.0,0.0,0.0,0.0,0.0,0.0,0.0,0.0,0.0,0.0,0.0,0.0,0.0,-2.7394,-2.7604,-2.7996,-2.7996,-2.8037,-2.8093,-2.8093,-2.7779,-2.7286,-2.7208,0.0,0.0,0.0,0.0,0.0,0.0,0.0,0.0,0.0,0.0,0.0,0.0,0.0,0.0,0.0,0.0,0.0,0.0,0.0,-2.3486,-2.3486,-2.3551,-2.3595,-2.3595,-2.353,-2.3486,-2.3486,-2.3384,-2.3363,-2.3363,-2.3363,-2.3106,-2.2581,-2.2581,-2.2581,-2.2581,-2.3084,-2.3363,-2.3363,-2.3363,-2.3031,-2.2406,-2.1842,-2.1544,-2.1435,0.0,0.0,0.0,0.0,0.0,0.0,0.0,0.0,0.0,0.0,0.0,0.0,0.0,0.0,0.0,0.0,0.0,0.0,0.0,0.0,0.0,0.0,0.0,0.0,0.0,0.0,0.0,0.0,0.0,0.0,0.0,0.0,0.0,0.0,0.0,0.0,0.0,0.0,0.0,0.0,0.0,-2.5125,-2.5202,0.0,0.0,0.0,0.0,0.0,0.0,0.0,0.0,0.0,0.0,0.0,0.0,0.0,-2.7049,-2.7129,-2.7129,-2.7363,-2.7826,-2.7826,-2.8006,-2.8324,-2.8324,-2.8515,-2.8839,-2.8839,0.0,-2.727,-2.6923,0.0,0.0,0.0,0.0,0.0,0.0,0.0,0.0,0.0,0.0,0.0,0.0,0.0,0.0,0.0,0.0,0.0,0.0,0.0,0.0,0.0,-2.3595,-2.3595,-2.3595,-2.3595,-2.3595,-2.3595,-2.3595,-2.3595,-2.3595,-2.3595,-2.3486,-2.3209,-2.3224,-2.3224,-2.3224,-2.3465,-2.3595,-2.3595,-2.3595,-2.3465,-2.3187,-2.2891,-2.2363,-2.1697,-2.1697,0.0,0.0,0.0,0.0,0.0,0.0,0.0,0.0,0.0,0.0,0.0,0.0,0.0,0.0,0.0,0.0,0.0,0.0,0.0,0.0,0.0,0.0,0.0,0.0,0.0,0.0,0.0,0.0,0.0,0.0,0.0,0.0,0.0,0.0,0.0,0.0,0.0,0.0,0.0,-2.5316,-2.5744,-2.6016,-2.6245,-2.6384,0.0,0.0,0.0,0.0,0.0,0.0,0.0,0.0,0.0,-2.8993,-2.8993,-2.8993,-2.8993,-2.8993,-2.9189,-2.9586,-2.9586,-2.9746,-3.0092,-3.0092,-3.0167,-3.0344,-3.0141,-2.9778,-2.9239,-2.8115,-2.7542,-2.7363,0.0,0.0,0.0,0.0,-2.689,-2.6674,0.0,0.0,0.0,0.0,0.0,0.0,0.0,0.0,0.0,0.0,0.0,0.0,-2.3595,-2.3595,-2.3595,-2.3595,-2.3595,-2.3595,-2.3595,-2.3595,-2.3595,-2.3595,-2.3595,-2.3595,-2.3595,-2.3595,-2.3595,-2.3595,-2.3595,-2.3595,-2.3595,-2.3789,-2.3864,-2.3864,-2.4044,-2.3391,-2.2202,-2.2202,-2.2202,-2.2193,0.0,0.0,0.0,0.0,0.0,0.0,0.0,0.0,0.0,0.0,0.0,0.0,0.0,0.0,0.0,0.0,0.0,0.0,0.0,0.0,0.0,0.0,0.0,0.0,0.0,0.0,0.0,0.0,0.0,0.0,0.0,0.0,0.0,0.0,0.0,0.0,0.0,-2.5854,-2.6381,-2.6928,-2.6979,-2.7097,0.0,0.0,0.0,0.0,0.0,0.0,-3.041,-3.0443,-3.0443,-3.0443,-3.0443,-3.0443,-3.0443,-3.0443,-3.065,-3.1021,-3.1021,-3.1154,-3.1397,-3.1397,-3.1397,-3.1403,-3.1141,-3.1021,-3.0917,-2.9467,-2.8663,-2.8317,-2.8123,-2.7814,-2.7422,-2.7215,-2.6955,-2.6691,0.0,0.0,0.0,0.0,0.0,0.0,0.0,0.0,0.0,0.0,0.0,-2.3595,-2.3595,-2.3595,-2.3595,-2.3595,-2.3595,-2.3595,-2.3595,-2.3595,-2.3595,-2.3595,-2.3595,-2.3595,-2.3595,-2.3595,-2.3595,-2.3595,-2.3595,-2.3595,-2.361,-2.4246,-2.4545,-2.459,-2.5217,-2.4746,-2.3508,-2.3508,-2.3508,-2.3509,-2.3574,0.0,0.0,0.0,0.0,0.0,0.0,0.0,0.0,0.0,0.0,0.0,0.0,0.0,0.0,0.0,0.0,0.0,0.0,0.0,0.0,0.0,0.0,0.0,0.0,0.0,0.0,0.0,0.0,0.0,0.0,0.0,0.0,0.0,0.0,0.0,0.0,0.0,0.0,-2.7672,-2.7739,0.0,0.0,0.0,0.0,-3.0161,-3.0206,-3.0407,-3.0842,-3.087,-3.087,-3.087,-3.087,-3.087,-3.087,-3.087,-3.1048,-3.1372,-3.1372,-3.1384,-3.1397,-3.1397,-3.1397,-3.1397,-3.1372,-3.1372,-3.1303,-3.0528,-2.992,-2.9431,-2.8735,-2.8182,-2.769,-2.6996,-2.6708,-2.6691,0.0,0.0,0.0,0.0,0.0,-2.0733,-2.1568,-2.2077,-2.2643,-2.3486,-2.3595,-2.3595,-2.3595,-2.3595,-2.3595,-2.3595,-2.3595,-2.3595,-2.3595,-2.3595,-2.3595,-2.3595,-2.3595,-2.3595,-2.3595,-2.3595,-2.3595,-2.3595,-2.4022,-2.4231,-2.4261,-2.4918,-2.5232,-2.5247,-2.5495,-2.533,-2.4896,-2.4896,-2.4896,-2.4889,-2.4904,-2.4696,0.0,0.0,0.0,0.0,0.0,0.0,0.0,0.0,0.0,0.0,0.0,0.0,0.0,0.0,0.0,0.0,0.0,0.0,0.0,0.0,0.0,0.0,0.0,0.0,0.0,0.0,0.0,0.0,0.0,0.0,0.0,0.0,0.0,0.0,0.0,0.0,0.0,-2.8888,-2.8956,0.0,-2.9572,-2.9884,-3.0317,-3.0969,-3.1282,-3.1841,-3.2721,-3.2771,-3.2771,-3.2771,-3.2771,-3.2771,-3.2771,-3.2771,-3.2838,-3.2944,-3.2944,-3.2944,-3.2944,-3.2944,-3.2944,-3.2944,-3.2944,-3.2944,-3.2931,-3.2666,-3.185,-3.0734,-3.0477,-3.0145,-2.9743,-2.915,-2.8791,-2.8527,0.0,0.0,0.0,-1.9798,-2.0346,-2.1004,-2.1615,-2.2276,-2.292,-2.3508,-2.3595,-2.3595,-2.3595,-2.3595,-2.3595,-2.3595,-2.3595,-2.3595,-2.3595,-2.3595,-2.3595,-2.3595,-2.3595,-2.3595,-2.3595,-2.3819,-2.3939,-2.3939,-2.4605,-2.4933,-2.4948,-2.563,-2.5944,-2.5959,-2.6168,-2.6273,-2.6273,-2.6273,-2.6019,-2.563,-2.5854,-2.5699,-2.538,0.0,0.0,0.0,0.0,0.0,0.0,0.0,0.0,0.0,0.0,0.0,0.0,0.0,0.0,0.0,0.0,0.0,0.0,0.0,0.0,0.0,0.0,0.0,0.0,0.0,0.0,0.0,0.0,0.0,0.0,0.0,0.0,0.0,0.0,0.0,-2.9204,-2.9712,-2.9886,-3.0125,-3.0537,-3.0993,-3.1548,-3.2155,-3.2509,-3.3003,-3.3757,-3.3807,-3.3807,-3.3807,-3.3807,-3.3807,-3.3807,-3.3807,-3.3807,-3.3807,-3.3807,-3.3807,-3.3807,-3.3807,-3.3807,-3.3807,-3.3807,-3.3807,-3.3807,-3.3807,-3.3164,-3.2173,-3.1796,-3.1301,-3.0784,-3.0381,-3.0059,-2.9787,0.0,-1.9319,-1.9798,-1.9798,-2.0371,-2.1028,-2.1615,-2.23,-2.2957,-2.3508,-2.3595,-2.3595,-2.3595,-2.3595,-2.3595,-2.3595,-2.3595,-2.3595,-2.3595,-2.3595,-2.3595,-2.3595,-2.3595,-2.361,-2.3625,-2.4261,-2.4619,-2.4634,-2.5292,-2.563,-2.5659,-2.6318,-2.6641,-2.6647,-2.7315,-2.76,-2.76,-2.76,-2.6866,-2.5734,-2.6363,-2.6641,-2.6641,0.0,0.0,0.0,0.0,0.0,0.0,0.0,0.0,0.0,0.0,0.0,0.0,0.0,0.0,0.0,0.0,0.0,0.0,0.0,0.0,0.0,0.0,0.0,0.0,0.0,0.0,0.0,0.0,0.0,0.0,0.0,0.0,0.0,-2.9145,-2.9044,-2.9331,-3.0095,-3.052,-3.1219,-3.2413,-3.2952,-3.3394,-3.3748,-3.3775,-3.3807,-3.3807,-3.3807,-3.3807,-3.3807,-3.3807,-3.3807,-3.3807,-3.3807,-3.3807,-3.3807,-3.3807,-3.3807,-3.3844,-3.3844,-3.3844,-3.3844,-3.3844,-3.3825,-3.3807,-3.3807,-3.3775,-3.3675,-3.2587,-3.1607,-3.0767,-3.0474,-3.0363,-3.0348,-1.9501,-1.9669,-1.9798,-1.9798,-2.072,-2.152,-2.1673,-2.2628,-2.3421,-2.3573,-2.3595,-2.3595,-2.3595,-2.3595,-2.3595,-2.3595,-2.3595,-2.3595,-2.3595,-2.3595,-2.3595,-2.3595,-2.3595,-2.3834,-2.4306,-2.4515,-2.4844,-2.5322,-2.6004,-2.6318,-2.6333,-2.7016,-2.733,-2.733,-2.751,-2.76,-2.76,-2.76,-2.739,-2.7076,-2.7255,-2.733,-2.733,0.0,0.0,0.0,0.0,0.0,0.0,0.0,0.0,0.0,0.0,0.0,0.0,0.0,0.0,0.0,0.0,0.0,0.0,0.0,0.0,0.0,0.0,0.0,0.0,0.0,0.0,0.0,0.0,0.0,0.0,0.0,0.0,-3.0632,-2.9905,-3.026,-3.09,-3.1743,-3.1932,-3.2269,-3.295,-3.339,-3.3564,-3.3375,-3.3652,-3.3807,-3.3807,-3.3807,-3.3807,-3.3807,-3.3807,-3.3807,-3.3807,-3.3807,-3.3807,-3.3807,-3.3807,-3.4119,-3.4674,-3.4674,-3.4674,-3.4674,-3.4674,-3.4325,-3.3807,-3.3807,-3.3638,-3.3357,-3.3341,-3.3162,-3.286,-3.2159,-3.1683,-3.1446,-1.8874,-1.9371,-1.9798,-1.9798,-2.0645,-2.1318,-2.1318,-2.24,-2.3209,-2.3209,-2.3443,-2.3595,-2.3595,-2.3595,-2.3595,-2.3595,-2.3595,-2.3595,-2.3595,-2.3595,-2.3595,-2.3595,-2.3879,-2.4201,-2.459,-2.5143,-2.563,-2.6019,-2.6701,-2.7031,-2.7031,-2.742,-2.76,-2.76,-2.76,-2.76,-2.76,-2.76,-2.76,-2.76,-2.76,-2.76,-2.76,-2.76,-2.76,-2.76,-2.76,-2.7345,-2.7031,-2.7031,0.0,0.0,0.0,0.0,0.0,0.0,0.0,0.0,0.0,0.0,0.0,0.0,0.0,0.0,0.0,0.0,0.0,0.0,0.0,0.0,0.0,0.0,0.0,0.0,-3.0975,-3.1055,-3.0615,-3.1079,-3.164,-3.2161,-3.2567,-3.2905,-3.3184,-3.3564,-3.3707,-3.348,-3.3666,-3.3807,-3.3807,-3.3807,-3.3954,-3.4289,-3.4289,-3.4486,-3.4835,-3.4853,-3.4853,-3.4853,-3.4853,-3.5092,-3.5536,-3.5536,-3.5536,-3.5536,-3.5536,-3.5293,-3.4853,-3.4853,-3.4708,0.0,0.0,0.0,0.0,0.0,-3.287,-3.2645,-1.7677,-1.8768,-1.9695,-1.9798,-2.0346,-2.0795,-2.0795,-2.1823,-2.2603,-2.2694,-2.3179,-2.353,-2.3595,-2.3595,-2.3595,-2.3595,-2.3595,-2.3595,-2.3595,-2.3595,-2.3625,-2.3714,-2.4276,-2.4679,-2.4829,-2.5989,-2.6632,-2.6692,-2.7315,-2.76,-2.76,-2.76,-2.76,-2.76,-2.76,-2.76,-2.76,-2.76,-2.76,-2.76,-2.76,-2.76,-2.76,-2.76,-2.76,-2.76,-2.76,-2.76,-2.76,-2.76,0.0,0.0,0.0,0.0,0.0,0.0,0.0,0.0,0.0,0.0,0.0,0.0,0.0,0.0,0.0,0.0,0.0,0.0,0.0,0.0,0.0,0.0,0.0,0.0,-3.119,-3.119,-3.119,-3.1584,-3.1897,-3.1897,-3.2614,-3.3169,-3.3258,-3.3578,-3.3807,-3.3807,-3.384,-3.3881,-3.3935,0.0,0.0,0.0,0.0,-3.5518,-3.6285,-3.6303,-3.6303,-3.6303,-3.6303,-3.634,-3.6431,-3.6431,-3.6431,-3.6431,-3.6431,-3.6376,-3.6303,-3.6303,-3.6303,-3.6156,-3.4651,-3.3769,-3.337,-3.378,-3.3853,-3.3694,-1.8248,-1.8715,-1.9097,-1.9695,-2.0346,-2.0795,-2.0795,-2.1414,-2.21,-2.2626,-2.2785,-2.3054,-2.3551,-2.3595,-2.3595,-2.3595,-2.3595,-2.3595,-2.3595,-2.3595,-2.3849,-2.438,-2.453,-2.5113,-2.6183,-2.6452,-2.6866,-2.7405,-2.754,-2.76,-2.76,-2.76,-2.76,-2.76,-2.76,-2.76,-2.76,-2.76,-2.76,-2.76,-2.76,-2.76,-2.76,-2.76,-2.76,-2.76,-2.76,-2.76,-2.76,-2.76,-2.76,-2.757,-2.745,-2.7405,0.0,0.0,0.0,0.0,0.0,0.0,0.0,0.0,0.0,0.0,0.0,0.0,0.0,0.0,0.0,0.0,0.0,0.0,0.0,-3.119,-3.119,-3.119,-3.119,-3.186,-3.2349,-3.2349,-3.2534,-3.2903,-3.3606,-3.3748,-3.3807,-3.3807,-3.4051,-3.437,-3.4752,-3.5015,-3.5436,-3.6032,-3.6046,-3.6138,-3.6303,-3.6303,-3.6303,-3.6303,0.0,0.0,-3.7272,-3.7272,-3.7272,-3.7272,-3.7272,-3.6905,-3.6303,-3.6303,-3.6303,-3.6266,-3.5936,-3.5137,-3.422,-3.4621,-3.4144,-3.3346,-1.7385,-1.8194,-1.8821,-1.9176,-1.9837,-2.0295,-2.0295,-2.0843,-2.1486,-2.2123,-2.2498,-2.292,-2.353,-2.3595,-2.3595,-2.3595,-2.3595,-2.3595,-2.3595,-2.3595,-2.3909,-2.4575,-2.4918,-2.5561,-2.6572,-2.6941,-2.727,-2.76,-2.76,-2.76,-2.76,-2.76,-2.76,-2.76,-2.76,-2.76,-2.76,-2.76,-2.76,-2.76,-2.76,-2.76,-2.76,-2.76,-2.76,-2.76,-2.76,-2.76,-2.76,-2.76,-2.76,-2.76,-2.76,-2.76,-2.766,0.0,0.0,0.0,0.0,0.0,0.0,0.0,0.0,0.0,0.0,0.0,0.0,0.0,0.0,-3.074,-3.074,0.0,-3.119,-3.119,-3.119,-3.119,-3.119,-3.1564,-3.2003,-3.2451,-3.2887,-3.324,-3.348,-3.4046,-3.433,-3.4109,-3.4844,-3.5392,-3.5646,-3.5805,-3.6206,-3.6872,-3.6905,-3.7092,-3.7496,-3.7496,-3.7496,-3.7496,-3.7496,-3.7716,-3.8102,-3.8102,-3.8102,-3.8102,-3.7812,-3.7462,-3.7116,-3.7116,-3.7116,-3.7132,-3.7403,-3.6607,-3.5377,-3.5571,-3.5271,-3.4746,-1.6179,-1.7357,-1.8313,-1.8463,-1.9097,-1.9592,-1.9592,-2.0169,-2.0832,-2.1448,-2.2114,-2.2748,-2.3355,-2.353,-2.3595,-2.3595,-2.3595,-2.3595,-2.3595,-2.3595,-2.3969,-2.4754,-2.5307,-2.5974,-2.6791,-2.733,-2.76,-2.76,-2.76,-2.76,-2.76,-2.76,-2.76,-2.76,-2.76,-2.76,-2.76,-2.76,-2.76,-2.76,-2.76,-2.76,-2.76,-2.76,-2.76,-2.76,-2.76,-2.76,-2.76,-2.76,-2.76,-2.7625,-2.7735,-2.776,-2.7885,-2.8359,-2.8583,0.0,0.0,0.0,0.0,0.0,0.0,0.0,0.0,0.0,-3.119,-3.119,-3.119,-3.119,-3.119,-3.119,-3.119,-3.119,-3.119,-3.119,-3.119,-3.1271,-3.1671,-3.2611,-3.3226,-3.352,-3.3445,-3.4371,-3.4932,-3.4779,-3.576,-3.6417,-3.6523,-3.6578,-3.6963,-3.7713,-3.7731,-3.7998,-3.8546,-3.8546,-3.8546,-3.8546,-3.8546,-3.8611,-3.8707,-3.8707,-3.8707,-3.8692,-3.8232,-3.7997,-3.7893,-3.7893,-3.7893,-3.7946,-3.8382,-3.7824,-3.6743,-3.6578,-3.6431,-3.6241,-1.5497,-1.6169,-1.695,-1.7605,-1.834,-1.8821,-1.8821,-1.9437,-2.0144,-2.082,-2.1438,-2.2077,-2.274,-2.329,-2.3595,-2.3595,-2.3595,-2.3595,-2.3595,-2.3595,-2.4163,-2.5435,-2.557,-2.6183,-2.7465,-2.7555,-2.76,-2.76,-2.76,-2.76,-2.76,-2.76,-2.76,-2.76,-2.76,-2.76,-2.76,-2.76,-2.76,-2.76,-2.76,-2.76,-2.76,-2.76,-2.76,-2.76,-2.76,-2.76,-2.76,-2.76,-2.76,-2.7685,-2.8238,-2.8391,-2.8415,-2.8463,-2.8873,-2.9203,-2.8732,-2.9384,-3.0208,-3.0272,-3.0699,-3.1131,0.0,0.0,-3.119,-3.119,-3.119,-3.119,-3.119,-3.119,-3.119,-3.119,-3.119,-3.119,-3.119,-3.1507,-3.2194,-3.3421,-3.3024,-3.3078,-3.4161,-3.4717,-3.5302,-3.6025,-3.6438,-3.6858,-3.7349,-3.7578,-3.7982,-3.8545,-3.8579,-3.8373,-3.7997,-3.798,-3.798,-3.798,-3.798,-3.8251,-3.8707,-3.8707,-3.8707,-3.8692,-3.8643,-3.835,-3.7893,-3.7893,-3.7893,-3.7911,-3.7963,-3.8174,-3.834,-3.7639,-3.6905,-3.6208,-1.541,-1.5642,-1.595,-1.6273,-1.7291,-1.8194,-1.8635,-1.8953,-1.9567,-2.0646,-2.1028,-2.1428,-2.2053,-2.234,-2.2651,-2.3031,-2.3076,-2.3224,-2.3573,-2.3595,-2.4208,-2.5555,-2.5615,-2.6228,-2.757,-2.76,-2.76,-2.76,-2.76,-2.76,-2.76,-2.76,-2.76,-2.76,-2.76,-2.76,-2.76,-2.76,-2.76,-2.76,-2.76,-2.76,-2.76,-2.76,-2.76,-2.76,-2.76,-2.76,0.0,-2.76,-2.76,-2.7635,-2.791,-2.8213,-2.8559,-2.8919,-2.9451,-2.9951,-3.0043,-3.0435,-3.0821,0.0,-3.1015,-3.119,-3.119,-3.119,-3.119,-3.119,-3.119,-3.119,-3.119,-3.119,-3.119,0.0,-3.119,-3.119,-3.119,-3.1564,-3.2066,-3.2788,-3.3037,-3.3659,-3.4954,-3.5652,-3.6035,-3.6115,-3.6665,-3.7077,-3.7305,-3.7417,-3.7596,-3.7826,-3.7826,-3.772,-3.7488,-3.7933,-3.8129,-3.8147,-3.8574,-3.8882,-3.9121,-3.9442,-3.958,-3.9614,-3.9141,-3.865,-3.8167,-3.7684,-3.7488,-3.7488,-3.7488,-3.7632,-3.7859,-3.8115,-3.7991,-3.7649,-1.541,-1.541,-1.541,-1.541,-1.6273,-1.7235,-1.7977,-1.8447,-1.9073,-2.0093,-2.0572,-2.1028,-2.1625,-2.1697,-2.1899,-2.2369,-2.2603,-2.2875,-2.3334,-2.3508,-2.4208,-2.5555,-2.5615,-2.6228,-2.757,-2.76,-2.76,-2.76,-2.76,-2.76,-2.76,-2.76,-2.76,-2.76,-2.76,-2.76,-2.76,-2.76,-2.76,-2.76,-2.76,-2.76,-2.76,-2.76,-2.76,-2.76,-2.76,-2.76,-2.76,-2.76,-2.76,-2.766,-2.7993,-2.8415,-2.8873,-2.9473,-2.9957,-3.0435,-3.1035,-3.119,0.0,-3.119,-3.119,-3.119,-3.119,-3.119,-3.119,-3.119,-3.119,-3.119,-3.119,-3.119,-3.119,-3.119,-3.119,-3.1249,-3.1351,-3.1697,-3.2206,-3.2921,-3.3623,-3.4588,-3.5908,-3.6303,-3.6504,-3.6506,-3.693,-3.7266,-3.7378,-3.7267,-3.7298,-3.7509,-3.7509,-3.7521,-3.7596,-3.8119,-3.838,-3.838,-3.8925,-3.9268,-3.9411,-3.9808,-4.0017,-4.0018,-3.9444,-3.8913,-3.8425,-3.8019,-3.7609,-3.7298,-3.7471,-3.7404,-3.7303,-3.8016,-3.8285,-3.8285,0.0,-1.541,-1.541,-1.541,-1.5439,-1.5729,-1.6454,-1.7797,-1.8715,-1.8768,-1.994,-2.1028,-2.1625,-2.1697,-2.1697,-2.172,-2.2323,-2.2694,-2.2717,-2.329,-2.4208,-2.5555,-2.5615,-2.6228,-2.757,-2.76,-2.76,-2.76,-2.76,-2.76,-2.76,-2.76,-2.76,-2.76,-2.76,-2.76,-2.76,-2.76,-2.76,-2.76,-2.76,-2.76,-2.76,-2.76,-2.76,-2.76,-2.76,-2.76,-2.76,-2.76,-2.76,-2.7795,-2.8973,-2.9361,-2.9496,-3.0102,-3.0293,-3.0435,-3.1035,-3.119,-3.119,-3.119,-3.119,-3.119,-3.119,-3.119,-3.119,-3.119,-3.119,-3.119,-3.119,-3.119,-3.119,-3.119,-3.119,-3.1332,-3.1733,-3.2066,-3.288,-3.4517,-3.503,-3.5739,0.0,-3.6412,-3.647,-3.7752,-3.7433,-3.7396,-3.7842,-3.7451,-3.7527,-3.8229,-3.8265,-3.8359,-3.8542,-3.8577,-3.8577,-3.8577,-3.8611,-3.8893,-3.9411,-3.9431,-3.9431,-3.9431,-3.9396,-3.9091,-3.8638,-3.9197,-3.8655,-3.7554,-3.8146,-3.7901,-3.7192,-3.7229,-3.7247,-3.7247,0.0,0.0,-1.541,-1.541,-1.541,-1.5468,-1.5719,-1.6613,-1.7413,-1.7907,-1.8809,0.0,0.0,0.0,0.0,0.0,-2.1321,-2.1619,-2.2007,-2.2643,-2.3593,-2.4926,-2.5373,-2.6228,-2.757,-2.76,-2.76,-2.76,-2.76,-2.76,-2.76,-2.76,-2.76,-2.76,-2.76,-2.76,-2.76,-2.76,-2.76,-2.76,-2.76,-2.76,-2.76,-2.76,-2.76,-2.76,0.0,-2.76,-2.76,-2.76,-2.76,-2.766,-2.8076,-2.8764,-2.9585,-3.0601,-3.0898,-3.0938,-3.1151,-3.119,-3.119,-3.119,-3.119,-3.119,-3.119,-3.119,-3.119,-3.119,-3.119,-3.119,-3.119,-3.119,-3.119,-3.119,-3.119,-3.1249,-3.1372,-3.2194,-3.3048,-3.3788,-3.4685,0.0,0.0,0.0,0.0,-3.7379,-3.6626,-3.6582,-3.7584,-3.7182,-3.7278,-3.8007,-3.8024,-3.8071,-3.8144,-3.8621,-3.8877,-3.8877,-3.9371,-3.9868,-4.0411,-4.0411,-4.0609,-4.0954,-4.0421,-4.0105,-3.9863,-3.9206,-3.8881,-3.8778,-3.8273,-3.7811,-3.7414,-3.7068,-3.6608,-3.6249,0.0,0.0,0.0,-1.541,-1.541,0.0,0.0,0.0,0.0,0.0,0.0,0.0,0.0,0.0,0.0,0.0,0.0,-2.0955,-2.1342,-2.1983,-2.2838,-2.3949,-2.482,-2.5668,-2.6484,-2.7223,-2.7458,-2.7203,-2.7458,-2.76,-2.76,-2.76,-2.76,-2.76,-2.76,-2.76,-2.76,-2.76,-2.76,-2.76,-2.76,-2.76,-2.76,-2.76,-2.76,0.0,-2.76,-2.76,-2.76,-2.76,-2.76,-2.765,-2.786,-2.874,-2.9913,-3.0898,-3.119,-3.119,-3.119,-3.119,-3.119,-3.119,-3.119,-3.119,-3.119,-3.119,-3.119,-3.119,-3.119,-3.119,-3.119,-3.119,-3.119,-3.119,-3.141,-3.1557,-3.1443,-3.264,-3.3568,-3.3646,-3.4654,-3.5395,0.0,0.0,0.0,-3.6865,-3.6376,-3.6462,-3.7443,-3.7297,-3.7516,-3.8278,-3.8294,-3.8413,-3.8684,-3.9157,-3.9402,-3.9394,-3.9876,-4.0286,-4.0607,-4.0607,-4.0821,-4.1155,-4.0645,-4.0413,-4.0379,-3.9718,-3.9376,-3.9282,-3.8774,-3.8237,-3.7664,-3.7324,-3.6874,-3.6486,0.0,0.0,0.0,0.0,0.0,0.0,0.0,0.0,0.0,0.0,0.0,0.0,0.0,0.0,0.0,0.0,0.0,0.0,-2.0759,-2.1318,-2.1963,-2.2622,-2.39,-2.4576,-2.4484,-2.6433,-2.7108,-2.6457,-2.7137,-2.7524,-2.7534,-2.7534,-2.7534,-2.7534,-2.7534,-2.7509,-2.7484,-2.7484,-2.7524,-2.7534,-2.7534,-2.7575,-2.76,-2.76,-2.76,-2.76,-2.76,-2.76,-2.76,-2.76,-2.7625,-2.776,-2.8359,-2.9361,-3.0414,-3.1015,-3.119,-3.119,-3.119,-3.119,-3.119,-3.119,-3.119,-3.119,-3.119,-3.119,-3.119,-3.119,-3.119,-3.119,0.0,0.0,-3.119,-3.119,-3.1819,-3.2182,-3.1853,-3.3376,-3.441,0.0,0.0,0.0,0.0,0.0,0.0,-3.6381,0.0,-3.7047,-3.7582,-3.782,-3.8294,-3.9022,-3.9056,-3.9402,-4.0096,-4.0096,-4.0096,-4.0096,-4.0096,-4.0096,-4.0096,-4.0096,-4.0096,-4.0096,-4.0096,-4.0096,-4.0146,-4.0655,-4.0165,-3.9161,-3.9629,-3.9083,-3.8004,-3.7973,-3.7939,-3.7757,0.0,0.0,0.0,0.0,0.0,0.0,0.0,0.0,0.0,0.0,0.0,0.0,0.0,0.0,0.0,0.0,0.0,0.0,-2.0055,-2.0658,-2.1332,-2.201,-2.2801,-2.3596,-2.4484,-2.5022,-2.5425,-2.5673,-2.5864,-2.6242,-2.6774,-2.6774,-2.6774,-2.6774,-2.6774,-2.6469,-2.5973,-2.5973,-2.6283,-2.6774,-2.6774,-2.7111,-2.76,-2.76,-2.76,-2.76,-2.76,-2.76,-2.76,-2.76,-2.791,-2.8367,-2.8973,-2.9695,-3.0414,0.0,0.0,-3.119,-3.119,-3.119,-3.119,-3.119,-3.119,-3.119,-3.119,-3.119,-3.119,-3.119,-3.119,-3.119,0.0,0.0,0.0,-3.119,-3.1819,0.0,-3.2165,-3.3528,0.0,-3.441,0.0,-3.56,-3.56,-3.6146,0.0,0.0,-3.6746,-3.7467,-3.9059,-3.886,-3.9056,-3.9808,-3.9825,-3.991,-4.0096,-4.0096,-4.0096,-4.0096,-4.0096,-4.0096,-4.0096,-4.0096,-4.0096,-4.0096,-4.0096,-4.0096,-4.0096,-4.0254,-4.0346,-4.0403,-4.0144,-3.9737,-3.9279,-3.8853,-3.8379,-3.7879,0.0,0.0,0.0,0.0,0.0,0.0,0.0,0.0,0.0,0.0,0.0,0.0,0.0,0.0,0.0,0.0,0.0,0.0,0.0,-2.0144,-2.0539,-2.0914,-2.1813,-2.2582,-2.3163,-2.4054,-2.4517,-2.4516,-2.5122,-2.5479,-2.5616,-2.5873,-2.6014,-2.6014,-2.6014,-2.5783,-2.5398,-2.5398,-2.5646,0.0,0.0,-2.6747,-2.7152,-2.7484,-2.76,-2.76,-2.76,-2.76,-2.76,-2.76,-2.7993,-2.8606,-2.9203,-2.9805,-3.0414,-3.1015,0.0,-3.119,-3.119,-3.119,-3.119,-3.119,-3.119,-3.119,-3.119,-3.119,-3.119,-3.119,-3.119,-3.119,-3.119,-3.1464,0.0,0.0,0.0,0.0,-3.2835,-3.4049,-3.4861,0.0,-3.5165,0.0,-3.56,-3.6315,-3.6948,0.0,-3.7567,-3.8235,-3.9326,-3.9455,-3.9673,-4.0096,-4.0096,-4.0096,-4.0096,-4.0096,-4.0096,-4.0096,-4.0096,-4.0096,-4.0096,-4.0096,-4.0096,-4.0096,0.0,-4.0096,-4.0096,-4.0096,-4.0286,-4.0521,-4.0229,-4.0031,-3.9905,-3.9593,-3.9208,-3.8819,0.0,0.0,0.0,0.0,0.0,0.0,0.0,0.0,0.0,0.0,-1.595,-1.6407,0.0,0.0,0.0,0.0,0.0,0.0,0.0,0.0,-1.9798,-1.9798,-2.0914,-2.1524,-2.1496,-2.3203,-2.3852,-2.336,-2.4525,-2.4888,-2.4475,-2.4998,-2.5259,-2.5259,-2.5259,-2.5203,-2.5091,-2.5091,-2.5147,-2.5315,-2.596,-2.6256,-2.6416,0.0,-2.7458,-2.7473,-2.756,-2.76,-2.76,-2.76,-2.8042,-2.8724,-2.9225,-2.987,-3.0518,-3.1055,-3.119,-3.119,-3.119,-3.119,-3.119,-3.119,-3.119,-3.119,-3.119,-3.119,-3.119,-3.119,-3.1275,-3.1343,-3.1343,-3.1955,-3.2446,-3.2446,0.0,-3.4269,-3.3643,-3.4721,-3.5346,-3.4726,-3.5216,-3.56,-3.56,-3.6417,-3.7195,-3.7855,-3.8667,-3.914,-3.914,-3.9757,-4.0096,-4.0096,-4.0096,-4.0096,-4.0096,-4.0096,-4.0096,-4.0096,-4.0096,-4.0096,-4.0096,-4.0096,-4.0096,-4.0096,-4.0096,-4.0096,-4.0096,-4.0096,-4.0096,-4.0096,-4.0096,-4.0096,-4.0096,-4.0096,-4.0096,-4.0011,0.0,0.0,0.0,0.0,0.0,0.0,0.0,0.0,0.0,-1.541,-1.5497,-1.5806,0.0,0.0,0.0,0.0,0.0,0.0,0.0,0.0,0.0,-1.9798,-2.0015,-2.0559,-2.1496,-2.1835,-2.24,-2.3153,-2.3391,-2.3803,-2.4334,-2.4427,-2.4481,-2.4481,-2.4481,-2.4105,-2.3501,-2.3501,-2.3884,-2.4509,-2.4624,-2.5035,-2.5673,-2.6416,0.0,0.0,-2.7382,-2.76,-2.76,-2.76,-2.8328,-2.9248,-2.9361,-3.0166,-3.1055,-3.1171,-3.119,-3.119,-3.119,-3.119,-3.119,-3.119,-3.119,-3.119,-3.119,-3.119,0.0,-3.119,-3.1684,-3.2107,-3.2107,-3.2696,-3.322,-3.322,0.0,0.0,0.0,0.0,-3.5549,0.0,0.0,0.0,0.0,0.0,0.0,0.0,0.0,-3.991,-3.991,-4.0028,-4.0096,-4.0096,-4.0096,-4.0096,-4.0096,-4.0096,-4.0096,-4.0096,-4.0096,-4.0096,-4.0096,-4.0096,-4.0096,-4.0096,-4.0096,0.0,-4.0096,-4.0096,-4.0096,-4.0096,-4.0096,-4.0096,-4.0096,-4.0096,-4.0096,-4.0079,0.0,0.0,0.0,0.0,0.0,0.0,-1.541,-1.541,-1.541,-1.541,-1.541,-1.5517,-1.5892,-1.5921,-1.6528,0.0,0.0,0.0,0.0,0.0,0.0,-1.9798,-2.0087,-2.0666,-2.1468,-2.1769,-2.2184,-2.2681,0.0,-2.3153,-2.3283,-2.355,-2.3679,-2.3679,-2.3679,-2.3454,-2.3108,-2.3108,-2.3305,-2.3708,-2.4147,-2.4738,-2.5425,-2.5783,0.0,0.0,-2.6904,-2.728,-2.76,-2.76,-2.8198,-2.8989,-2.9293,-3.0,-3.0797,-3.1112,-3.119,-3.119,-3.119,-3.119,-3.119,-3.119,-3.119,-3.119,-3.119,0.0,0.0,-3.1701,-3.2056,-3.2412,-3.2797,-3.3474,0.0,0.0,0.0,0.0,0.0,0.0,0.0,0.0,0.0,0.0,0.0,0.0,0.0,0.0,0.0,-4.0096,-4.0096,-4.0096,-4.0096,-4.0096,-4.0096,-4.0096,-4.0096,-4.0096,-4.0096,-4.0096,-4.0096,-4.0096,-4.0096,-4.0096,-4.0096,-4.0096,-4.0096,0.0,-4.0096,-4.0096,-4.0096,-4.0096,-4.0096,-4.0096,-4.0096,-4.0096,-4.0096,-4.0096,0.0,0.0,0.0,0.0,0.0,0.0,-1.541,-1.541,-1.541,-1.541,-1.541,-1.541,-1.541,-1.541,-1.5997,0.0,0.0,0.0,0.0,0.0,0.0,0.0,0.0,0.0,-2.1656,0.0,0.0,0.0,-2.2895,0.0,0.0,0.0,0.0,0.0,-2.3108,-2.3108,-2.3108,-2.3108,-2.3108,0.0,0.0,-2.4394,0.0,0.0,0.0,0.0,0.0,-2.6982,-2.76,-2.76,-2.7934,-2.8415,-2.9035,-2.9717,-3.0393,-3.0858,-3.1112,-3.119,-3.119,-3.119,-3.119,-3.119,-3.119,-3.1241,-3.1393,-3.1427,0.0,-3.2378,-3.2666,-3.2953,-3.3525,-3.4235,-3.4742,0.0,-3.5211,0.0,0.0,0.0,0.0,0.0,0.0,0.0,0.0,0.0,0.0,0.0,0.0,0.0,-4.0096,-4.0096,-4.0096,-4.0096,-4.0096,-4.0096,-4.0096,-4.0096,-4.0096,-4.0096,-4.0096,-4.0096,-4.0096,-4.0096,-4.0096,-4.0096,-4.0096,0.0,0.0,-4.0096,-4.0096,-4.0096,-4.0096,-4.0096,-4.0096,-4.0096,-4.0096,-4.0096,0.0,0.0,0.0,0.0,0.0,0.0,-1.541,-1.541,-1.541,-1.541,-1.541,-1.541,-1.541,-1.541,-1.5997,0.0,0.0,0.0,0.0,0.0,0.0,0.0,0.0,0.0,0.0,0.0,0.0,-2.3032,0.0,0.0,0.0,0.0,0.0,0.0,0.0,0.0,-2.3108,-2.3108,0.0,0.0,0.0,0.0,0.0,0.0,0.0,0.0,0.0,-2.6982,-2.76,-2.76,-2.765,-2.7785,-2.8391,-2.9361,-3.0314,-3.0372,0.0,0.0,-3.119,-3.119,-3.119,-3.119,-3.119,-3.1376,-3.2056,0.0,-3.2412,-3.3152,-3.3829,-3.4303,-3.4387,-3.5013,-3.5498,-3.5498,-3.5549,-3.56,0.0,0.0,0.0,0.0,0.0,0.0,0.0,0.0,0.0,0.0,0.0,0.0,-4.0096,-4.0096,-4.0096,-4.0096,-4.0096,-4.0096,-4.0096,-4.0096,-4.0096,-4.0096,-4.0096,-4.0096,-4.0096,-4.0096,-4.0096,-4.0096,-4.0096,0.0,0.0,-4.0096,-4.0096,-4.0096,-4.0096,-4.0096,-4.0096,-4.0096,-4.0096,-4.0096,0.0,0.0,0.0,0.0,0.0,0.0,-1.541,-1.541,-1.541,-1.541,-1.541,-1.541,-1.541,-1.541,-1.5806,-1.6838,-1.733,0.0,0.0,0.0,0.0,0.0,0.0,0.0,0.0,0.0,-2.2882,-2.3108,-2.3108,0.0,0.0,0.0,0.0,0.0,0.0,0.0,-2.3108,-2.3108,0.0,0.0,0.0,0.0,0.0,0.0,0.0,0.0,0.0,0.0,-2.76,-2.76,-2.76,-2.7635,-2.787,-2.8543,-2.9293,0.0,-3.0187,-3.0658,-3.0658,-3.0918,-3.119,-3.119,-3.1532,-3.1938,-3.2226,0.0,-3.3169,-3.3914,-3.4303,-3.4641,-3.5081,-3.5397,-3.56,-3.56,-3.56,-3.56,-3.56,0.0,0.0,0.0,0.0,0.0,0.0,0.0,0.0,0.0,0.0,0.0,-4.0096,-4.0096,-4.0096,-4.0096,-4.0096,-4.0096,-4.0096,-4.0096,-4.0096,-4.0096,-4.0096,-4.0096,-4.0096,-4.0096,-4.0096,-4.0096,-4.0096,0.0,0.0,-4.0096,-4.0096,-4.0096,-4.0096,-4.0096,-4.0096,-4.0096,-4.0096,-4.0096,0.0,0.0,0.0,0.0,0.0,-1.541,-1.541,-1.541,-1.541,-1.541,-1.541,-1.5459,-1.5586,-1.5605,-1.5978,-1.6879,-1.7497,0.0,0.0,0.0,0.0,0.0,0.0,0.0,0.0,0.0,-2.3108,-2.3108,-2.3108,-2.3108,0.0,0.0,0.0,0.0,0.0,0.0,0.0,0.0,0.0,0.0,0.0,0.0,0.0,0.0,0.0,0.0,0.0,0.0,0.0,0.0,0.0,-2.76,-2.76,-2.7894,-2.8343,-2.895,-2.9695,-3.0293,-3.0293,-3.074,-3.1241,-3.1461,-3.1921,-3.2412,0.0,0.0,-3.3931,-3.4675,-3.4827,-3.4979,-3.5498,-3.56,-3.56,-3.56,-3.56,-3.56,-3.56,0.0,0.0,0.0,0.0,0.0,0.0,0.0,0.0,0.0,0.0,0.0,-4.0096,-4.0096,-4.0096,-4.0096,-4.0096,-4.0096,-4.0096,-4.0096,-4.0096,-4.0096,-4.0096,-4.0096,-4.0096,-4.0096,-4.0096,-4.0096,-4.0096,0.0,0.0,-4.0096,-4.0096,-4.0096,-4.0096,-4.0096,-4.0096,-4.0096,-4.0096,-4.0096,0.0,0.0,0.0,0.0,0.0,-1.541,-1.541,-1.541,-1.541,-1.541,-1.541,-1.5576,-1.6036,-1.6085,-1.6587,-1.7871,-1.8284,0.0,0.0,0.0,0.0,0.0,0.0,0.0,-2.3083,-2.3108,-2.3108,-2.3108,-2.3108,-2.3108,-2.3108,-2.3108,-2.3108,-2.3108,0.0,0.0,0.0,0.0,0.0,0.0,0.0,0.0,-2.3108,0.0,0.0,0.0,0.0,0.0,0.0,0.0,0.0,0.0,0.0,-2.7585,-2.7735,-2.8319,-2.9361,-3.0293,-3.0293,-3.074,-3.1376,-3.2107,-3.2293,-3.2682,0.0,-3.4472,-3.4692,-3.543,-3.5583,-3.5583,-3.56,-3.56,-3.56,-3.56,-3.56,-3.56,-3.56,0.0,0.0,0.0,0.0,0.0,0.0,0.0,0.0,0.0,0.0,0.0,-4.0096,-4.0096,-4.0096,-4.0096,-4.0096,-4.0096,-4.0096,-4.0096,-4.0096,-4.0096,-4.0096,-4.0096,-4.0096,-4.0096,-4.0096,0.0,0.0,0.0,0.0,-4.0096,-4.0096,-4.0096,-4.0096,-4.0096,-4.0096,-4.0096,-4.0096,-4.0096,0.0,0.0,0.0,0.0,0.0,0.0,-1.541,-1.541,-1.5518,-1.585,-1.5889,-1.6025,-1.6465,-1.7052,-1.7923,-1.9173,-1.9048,0.0,0.0,0.0,0.0,-2.2819,-2.2844,-2.2932,-2.3108,-2.3108,-2.3108,-2.3108,-2.3108,-2.3108,-2.3108,-2.3108,-2.3108,-2.3108,-2.3108,-2.3108,0.0,0.0,0.0,0.0,0.0,-2.3108,-2.3108,0.0,0.0,0.0,0.0,0.0,0.0,0.0,0.0,0.0,0.0,0.0,0.0,-2.7835,-2.8448,-2.9176,-2.9627,-3.0195,-3.0936,-3.2073,-3.2746,-3.3362,-3.4283,-3.4895,-3.5312,-3.5549,-3.56,-3.56,-3.56,-3.56,-3.56,-3.56,-3.56,-3.56,0.0,0.0,0.0,0.0,0.0,0.0,0.0,0.0,0.0,0.0,0.0,0.0,-4.0096,-4.0096,-4.0096,-4.0096,-4.0096,-4.0096,-4.0096,-4.0096,-4.0096,-4.0096,-4.0096,-4.0096,-4.0096,-4.0096,-4.0096,0.0,0.0,0.0,0.0,-4.0096,-4.0096,-4.0096,-4.0096,-4.0096,-4.0096,-4.0096,-4.0096,-4.0096,0.0,0.0,0.0,0.0,0.0,0.0,-1.5878,-1.5878,-1.6006,-1.6279,-1.6318,-1.6484,-1.6934,-1.7431,-1.8291,-1.9551,-1.9385,0.0,0.0,0.0,0.0,-2.3095,-2.3108,-2.3108,-2.3108,-2.3108,-2.3108,-2.3108,-2.3108,-2.3108,-2.3108,-2.3108,-2.3108,-2.3108,-2.3108,-2.3108,0.0,0.0,0.0,0.0,-2.3108,-2.3108,-2.3108,0.0,0.0,0.0,0.0,0.0,0.0,0.0,0.0,0.0,0.0,0.0,0.0,0.0,-2.842,-2.9,-2.9388,-3.013,-3.1046,-3.2172,-3.277,-3.3376,-3.4324,-3.4895,-3.5276,-3.5538,-3.56,-3.56,-3.56,-3.56,-3.56,-3.56,-3.56,0.0,0.0,0.0,0.0,0.0,0.0,0.0,0.0,0.0,0.0,0.0,0.0,0.0,-4.0096,-4.0096,-4.0096,-4.0096,-4.0096,-4.0096,-4.0096,-4.0096,-4.0096,-4.0096,-4.0096,-4.0096,-4.0096,-4.0096,-4.0096,0.0,0.0,0.0,0.0,-4.0096,-4.0096,-4.0096,-4.0096,-4.0096,-4.0096,-4.0096,-4.0096,-4.0096,0.0,0.0,0.0,0.0,0.0,0.0,-1.6697,-1.6697,-1.6716,-1.6746,-1.6746,-1.6943,-1.7383,-1.7488,-1.8031,-1.9267,-1.9464,0.0,0.0,-2.3047,-2.3035,-2.3108,-2.3108,-2.3108,-2.3108,-2.3108,-2.3108,-2.3108,-2.3108,-2.3108,-2.3108,-2.3108,-2.3108,-2.3108,-2.3108,-2.3108,-2.3108,-2.3108,-2.3108,-2.3108,-2.3108,-2.3108,0.0,0.0,0.0,0.0,0.0,0.0,0.0,0.0,0.0,0.0,0.0,0.0,0.0,0.0,0.0,0.0,0.0,-3.0432,-3.1522,-3.2313,-3.2513,-3.2848,-3.421,-3.4528,0.0,-3.5339,-3.5447,-3.5447,-3.5447,-3.5492,-3.5515,-3.5515,-3.5577,0.0,0.0,0.0,0.0,0.0,0.0,0.0,0.0,0.0,0.0,0.0,0.0,0.0,-4.0096,-4.0096,-4.0096,-4.0096,-4.0096,-4.0096,-4.0096,-4.0096,-4.0096,-4.0096,-4.0096,-4.0096,-4.0096,-4.0096,-4.0096,0.0,0.0,0.0,0.0,-4.0096,-4.0096,-4.0096,-4.0096,-4.0096,-4.0096,-4.0096,-4.0096,-4.0096,0.0,0.0,0.0,0.0,0.0,0.0,0.0,0.0,0.0,0.0,-1.7227,-1.7393,-1.7812,-1.8435,-1.9249,0.0,0.0,0.0,0.0,-2.2506,-2.2445,-2.3078,-2.3108,-2.3108,-2.3108,-2.3108,-2.3108,-2.3108,-2.3108,-2.3108,-2.3108,-2.3108,-2.3108,-2.3108,-2.3108,-2.3108,-2.3108,-2.3108,-2.3108,-2.3108,-2.3108,-2.3108,0.0,0.0,0.0,0.0,-2.4002,-2.4766,0.0,0.0,0.0,0.0,0.0,0.0,0.0,0.0,-2.9789,-3.028,-3.0265,0.0,-3.099,-3.2249,-3.258,-3.2798,0.0,-3.3836,-3.3887,0.0,0.0,0.0,0.0,0.0,-3.4847,0.0,0.0,0.0,0.0,0.0,0.0,0.0,0.0,0.0,0.0,0.0,0.0,0.0,0.0,-4.0096,-4.0096,-4.0096,-4.0096,-4.0096,-4.0096,-4.0096,-4.0096,-4.0096,-4.0096,-4.0096,-4.0096,-4.0096,-4.0096,-4.0096,-4.0096,0.0,0.0,0.0,-4.0096,-4.0096,-4.0096,-4.0096,-4.0096,-4.0096,-4.0096,-4.0096,-4.0096,-4.0096,0.0,0.0,0.0,0.0,0.0,0.0,0.0,0.0,0.0,0.0,-1.7666,-1.7764,-1.7988,-1.8787,-1.9497,0.0,0.0,0.0,-2.2506,-2.2125,-2.2261,-2.3078,-2.3108,-2.3108,-2.3108,-2.3108,-2.3108,-2.3108,-2.3108,-2.3108,-2.3108,-2.3108,-2.3108,-2.3108,-2.3108,-2.3108,-2.3108,-2.3108,-2.3108,-2.3108,-2.3108,0.0,0.0,0.0,0.0,0.0,-2.3603,-2.425,0.0,-2.537,-2.64,-2.7627,0.0,0.0,0.0,0.0,-3.0462,-3.0943,-3.0943,-3.0943,-3.1146,-3.1916,-3.2092,-3.2272,-3.2986,-3.3145,0.0,0.0,0.0,0.0,0.0,0.0,0.0,0.0,0.0,0.0,0.0,0.0,0.0,0.0,0.0,0.0,0.0,0.0,0.0,0.0,0.0,-4.0096,-4.0096,-4.0096,-4.0096,-4.0096,-4.0096,-4.0096,-4.0096,-4.0096,-4.0096,-4.0096,-4.0096,-4.0096,-4.0096,-4.0096,-4.0096,0.0,0.0,0.0,-4.0096,-4.0096,-4.0096,-4.0096,-4.0096,-4.0096,-4.0096,-4.0096,-4.0096,-4.0096,0.0,0.0,0.0,0.0,0.0,0.0,0.0,0.0,0.0,0.0,0.0,0.0,0.0,0.0,0.0,0.0,0.0,-2.1164,-2.2032,-2.2063,-2.2384,-2.3078,-2.3108,-2.3108,-2.3108,-2.3108,-2.3108,-2.3108,-2.3108,-2.3108,-2.3108,-2.3108,-2.3108,-2.3108,-2.3108,-2.3108,-2.3108,-2.3108,-2.3108,-2.3108,-2.3108,0.0,0.0,0.0,0.0,0.0,0.0,0.0,0.0,-2.4424,-2.5851,-2.7632,-2.7733,0.0,0.0,0.0,0.0,0.0,-3.1511,-3.1511,-3.1511,-3.1511,-3.1511,-3.1668,-3.2299,-3.2437,0.0,0.0,0.0,0.0,0.0,-3.4382,0.0,0.0,0.0,0.0,0.0,0.0,0.0,0.0,0.0,0.0,0.0,0.0,0.0,0.0,0.0,-4.0096,-4.0096,-4.0096,-4.0096,-4.0096,-4.0096,-4.0096,-4.0096,-4.0096,-4.0096,-4.0096,-4.0096,-4.0096,-4.0096,-4.0096,-4.0096,-4.0096,0.0,0.0,-4.0096,-4.0096,-4.0096,-4.0096,-4.0096,-4.0096,-4.0096,-4.0096,-4.0096,-4.0096,0.0,0.0,0.0,0.0,0.0,0.0,0.0,0.0,0.0,0.0,0.0,0.0,0.0,0.0,0.0,0.0,0.0,-2.2063,-2.2854,-2.2914,-2.2975,-2.3095,-2.3108,-2.3108,-2.3108,-2.3108,-2.3108,-2.3108,-2.3108,-2.3108,-2.3108,-2.3108,-2.3108,-2.3108,-2.3108,-2.3108,-2.3108,-2.3108,-2.3108,-2.3108,-2.3108,0.0,0.0,0.0,0.0,0.0,0.0,0.0,0.0,-2.4988,-2.6383,-2.8282,-2.8843,0.0,0.0,0.0,0.0,0.0,-3.1511,-3.1511,-3.1511,-3.1511,-3.1511,-3.1524,-3.164,-3.1668,-3.1697,0.0,0.0,0.0,0.0,-3.3365,0.0,0.0,0.0,0.0,0.0,0.0,0.0,0.0,0.0,0.0,0.0,0.0,0.0,0.0,0.0,-4.0096,-4.0096,-4.0096,-4.0096,-4.0096,-4.0096,-4.0096,-4.0096,-4.0096,-4.0096,-4.0096,-4.0096,-4.0096,-4.0096,-4.0096,-4.0096,-4.0096,0.0,-4.0096,-4.0096,-4.0096,-4.0096,-4.0096,-4.0096,-4.0096,-4.0096,-4.0096,-4.0096,-4.0096,0.0,0.0,0.0,0.0,0.0,0.0,0.0,0.0,0.0,0.0,0.0,0.0,0.0,0.0,0.0,0.0,-2.2032,-2.2702,-2.3078,-2.3108,-2.3108,-2.3108,-2.3108,-2.3108,-2.3108,-2.3108,-2.3108,-2.3108,-2.3108,-2.3108,-2.3108,-2.3108,-2.3108,-2.3108,-2.3108,-2.3108,-2.3108,-2.3108,-2.3108,-2.3108,0.0,0.0,0.0,0.0,0.0,0.0,0.0,0.0,0.0,0.0,-2.6087,-2.7671,-2.8477,0.0,0.0,0.0,0.0,0.0,-3.1511,-3.1511,-3.1511,-3.1511,-3.1511,-3.1511,-3.1511,-3.1511,-3.1511,0.0,0.0,0.0,0.0,0.0,0.0,0.0,0.0,0.0,0.0,0.0,0.0,0.0,0.0,0.0,0.0,0.0,0.0,0.0,0.0,0.0,-4.0096,-3.9688,-3.9636,-4.007,-3.9662,-3.9662,-4.0113,-4.0096,-4.0096,-4.0096,-4.0096,-4.0096,-4.0096,-4.0096,-4.0096,-4.0096,0.0,-4.0096,-4.0096,-4.0096,-4.0096,-4.0096,-4.0096,-4.0096,-4.0096,-4.0096,-4.0096,-4.0096,0.0,0.0,0.0,0.0,0.0,0.0,0.0,0.0,0.0,0.0,0.0,0.0,0.0,0.0,0.0,0.0,-2.2372,-2.3108,-2.3108,-2.3108,-2.3108,-2.3108,-2.3108,-2.3108,-2.3108,-2.3108,-2.3108,-2.3108,-2.3108,-2.3108,-2.3108,-2.3108,-2.3108,-2.3108,-2.3108,-2.3108,-2.3108,-2.3108,-2.3108,-2.3108,0.0,0.0,0.0,0.0,0.0,0.0,0.0,0.0,0.0,0.0,0.0,0.0,0.0,0.0,0.0,-3.1029,-3.1351,-3.1511,-3.1511,-3.1511,-3.1511,-3.1511,-3.1511,-3.1511,-3.1511,-3.1511,-3.1511,0.0,0.0,0.0,0.0,0.0,0.0,0.0,0.0,0.0,0.0,0.0,0.0,0.0,0.0,0.0,0.0,0.0,0.0,0.0,0.0,0.0,-3.9808,-3.9236,-3.9166,-3.9808,-3.9059,-3.8924,-3.9558,-3.9558,-3.9731,-4.0096,-4.0096,-4.0096,-4.0096,-3.9901,-3.9808,-3.9808,-3.9653,-3.9558,-3.9558,-3.9756,-3.9808,-3.9833,-4.002,-4.0096,-4.007,-3.9901,-3.9808,-3.9782,0.0,0.0,0.0,0.0,0.0,0.0,0.0,0.0,0.0,0.0,0.0,0.0,0.0,0.0,0.0,0.0,-2.3035,-2.3108,-2.3108,-2.3108,-2.3108,-2.3108,-2.3108,-2.3108,-2.3108,-2.3108,-2.3108,-2.3108,-2.3108,-2.3108,-2.3108,-2.3108,-2.3108,-2.3108,-2.3108,-2.3108,-2.3108,-2.3108,-2.3108,-2.3145,-2.3715,0.0,0.0,0.0,0.0,0.0,0.0,0.0,0.0,0.0,0.0,0.0,0.0,0.0,-3.0299,-3.0359,-3.0925,-3.1511,-3.1511,-3.1511,-3.1511,-3.1511,-3.1511,-3.1511,-3.1511,-3.1511,-3.1511,-3.1511,0.0,0.0,0.0,0.0,0.0,0.0,0.0,0.0,0.0,0.0,0.0,0.0,0.0,0.0,0.0,0.0,0.0,0.0,0.0,0.0,-3.9005,-3.8935,-3.8935,-3.8989,-3.829,-3.7908,-3.795,-3.7966,-3.8679,-4.0096,-4.0096,-4.0096,-4.007,-3.9315,-3.9005,-3.8951,-3.8262,-3.7966,-3.8007,-3.869,-3.9005,-3.9059,-3.9808,-4.0096,-4.002,-3.9262,-3.9005,-3.8881,0.0,0.0,0.0,0.0,0.0,0.0,0.0,0.0,0.0,0.0,0.0,-1.9628,-2.0494,0.0,0.0,0.0,-2.2823,-2.3108,-2.3108,-2.3108,-2.3108,-2.3108,-2.3108,-2.3108,-2.3108,-2.3108,-2.3108,-2.3108,-2.3108,-2.3108,-2.3108,-2.3108,-2.3108,-2.3108,-2.3108,-2.3308,-2.3665,-2.3665,-2.3835,-2.4173,-2.4418,-2.4506,0.0,0.0,0.0,0.0,0.0,0.0,0.0,0.0,-2.6502,-2.7129,-2.8182,-2.8588,-2.9002,-3.0584,-3.0896,-3.0866,-3.1351,-3.1511,-3.1511,-3.1511,-3.1511,-3.1511,-3.1511,-3.1511,-3.1511,-3.1511,-3.171,0.0,0.0,0.0,0.0,0.0,0.0,0.0,0.0,0.0,0.0,0.0,0.0,0.0,0.0,0.0,0.0,0.0,0.0,0.0,-3.8246,-3.8234,-3.8234,-3.8234,-3.7469,-3.7293,-3.7793,-3.7793,-3.8092,-3.8652,-3.8652,-3.8652,-3.8668,-3.8346,-3.8234,-3.8189,-3.7921,-3.7793,-3.7822,-3.8121,-3.8497,-3.8962,-3.9782,-4.0096,-3.9995,-3.9209,-3.8908,-3.8799,0.0,0.0,0.0,0.0,0.0,0.0,0.0,0.0,-1.862,0.0,0.0,0.0,0.0,-2.1522,0.0,0.0,-2.2793,-2.3108,-2.3108,-2.3108,-2.3108,-2.3108,-2.3108,-2.3108,-2.3108,-2.3108,-2.3108,-2.3108,-2.3108,-2.3108,-2.3108,-2.3108,-2.3195,-2.3384,-2.3384,-2.3697,-2.4255,-2.4255,-2.4469,-2.48,-2.4963,-2.5059,0.0,0.0,0.0,0.0,0.0,0.0,0.0,0.0,-2.6499,-2.6679,-2.7855,-2.7986,-2.8117,-3.0103,-3.0524,-3.0494,-3.1278,-3.1511,-3.1511,-3.1511,-3.1511,-3.1511,-3.1511,-3.1511,-3.1511,-3.1511,-3.1511,-3.171,-3.2465,0.0,0.0,0.0,0.0,0.0,0.0,0.0,0.0,0.0,0.0,0.0,0.0,0.0,0.0,0.0,0.0,0.0,0.0,-3.7427,-3.7427,-3.7427,-3.6661,-3.6523,-3.7071,-3.7055,-3.7055,-3.7055,-3.7055,-3.7324,-3.7777,-3.7544,-3.7427,-3.7397,-3.7175,-3.7055,-3.7086,-3.7338,-3.7876,-3.8608,-3.9172,-3.9358,-3.9279,-3.8481,-3.8157,-3.8072,0.0,0.0,0.0,0.0,0.0,0.0,0.0,0.0,-1.9299,-1.9332,-2.0074,0.0,0.0,0.0,0.0,0.0,-2.3108,-2.3108,-2.3108,-2.3108,-2.3108,-2.3108,-2.3108,-2.3108,-2.3108,-2.3108,-2.3108,-2.3108,-2.3108,-2.3108,-2.3108,-2.3108,-2.3421,-2.4004,-2.4004,-2.4318,-2.48,-2.48,-2.48,-2.485,-2.5398,-2.5598,-2.5661,0.0,0.0,0.0,0.0,0.0,0.0,0.0,-2.6499,-2.6499,-2.6499,-2.704,-2.7855,-2.8748,-2.9628,-3.045,-3.1278,-3.1511,-3.1511,-3.1511,0.0,0.0,-3.1511,-3.1511,-3.1511,-3.1511,-3.1511,-3.171,-3.2465,0.0,0.0,0.0,0.0,0.0,0.0,0.0,0.0,0.0,0.0,0.0,0.0,0.0,0.0,0.0,0.0,0.0,0.0,-3.6615,-3.6615,-3.6584,-3.5894,-3.5504,-3.5504,-3.5504,-3.5504,-3.5504,-3.5504,-3.629,-3.7764,-3.6934,-3.6584,-3.6554,-3.5814,-3.5504,-3.5554,-3.6306,-3.7054,-3.7777,-3.7793,-3.7793,-3.769,-3.6904,-3.6615,-3.6492,0.0,0.0,0.0,0.0,0.0,0.0,0.0,0.0,-2.043,-2.1037,-2.1365,0.0,0.0,0.0,0.0,0.0,0.0,-2.3108,-2.3108,-2.3108,-2.3108,-2.3108,-2.3108,-2.3108,-2.3108,-2.3108,-2.3108,-2.3108,-2.3108,-2.3308,-2.374,-2.374,-2.4042,-2.4569,-2.4569,-2.487,-2.536,-2.536,-2.5598,-2.6021,-2.6172,-2.6235,-2.626,0.0,0.0,0.0,0.0,0.0,0.0,0.0,0.0,0.0,-2.7162,-2.7129,-2.7263,-2.9317,-2.9659,-2.969,-3.1117,-3.1511,0.0,-3.1511,0.0,0.0,0.0,-3.1511,0.0,0.0,-3.1511,-3.1553,-3.1796,0.0,0.0,0.0,0.0,0.0,0.0,0.0,0.0,0.0,0.0,0.0,0.0,0.0,0.0,0.0,0.0,0.0,0.0,-3.6306,-3.6353,-3.5831,-3.5619,-3.5504,-3.5504,-3.5504,-3.5504,-3.5504,-3.5504,-3.5733,-3.6164,-3.5926,-3.5846,-3.5799,-3.5587,-3.5504,-3.5554,-3.6306,-3.6722,-3.6994,-3.7573,-3.7793,-3.769,-3.6904,-3.6615,-3.6492,0.0,0.0,0.0,0.0,0.0,0.0,-1.9814,-2.0558,-2.1302,-2.1815,-2.2199,-2.2567,0.0,0.0,0.0,-2.3108,-2.3108,-2.3108,-2.3108,-2.3108,-2.3108,-2.3108,-2.3108,-2.3208,-2.3446,-2.3446,-2.3559,-2.3772,-2.3559,-2.3735,-2.433,-2.433,-2.4607,-2.5134,-2.5134,-2.5435,-2.5971,-2.6281,-2.6464,-2.6521,-2.685,-2.6782,-2.6499,0.0,0.0,0.0,0.0,0.0,0.0,0.0,0.0,0.0,-2.7061,-2.6871,-2.6939,-2.9129,-2.9411,-2.938,-3.1029,-3.1511,0.0,-3.1511,-3.1511,-3.1511,-3.1511,0.0,0.0,0.0,0.0,-3.1511,0.0,0.0,0.0,0.0,0.0,0.0,0.0,0.0,0.0,0.0,0.0,0.0,0.0,0.0,0.0,0.0,0.0,0.0,0.0,-3.5926,-3.5943,-3.5504,-3.5504,-3.5504,-3.5504,-3.5504,-3.5504,-3.5504,-3.5504,-3.5504,-3.5504,-3.5504,-3.5504,-3.5504,-3.5504,-3.5504,-3.5537,-3.5975,-3.6165,-3.6196,-3.6707,-3.689,-3.6829,-3.6352,-3.6165,-3.6117,0.0,0.0,-1.965,-2.0365,0.0,0.0,-2.0494,-2.1365,-2.197,-2.1908,-2.2598,-2.3108,0.0,0.0,0.0,-2.3108,-2.3108,-2.3108,-2.3108,-2.3108,-2.3108,-2.3108,-2.3158,-2.3434,-2.3991,-2.4054,-2.4343,-2.4863,-2.4343,-2.4356,-2.4863,-2.4863,-2.5172,-2.5674,-2.5674,-2.5996,-2.6555,-2.7351,-2.7297,-2.6692,-2.7417,-2.7289,-2.6653,-2.6596,0.0,0.0,0.0,0.0,0.0,0.0,0.0,0.0,-2.6587,-2.6562,-2.6879,-2.8505,-2.9002,-2.938,-3.1029,-3.1511,0.0,-3.1511,-3.1511,0.0,-3.1511,-3.1511,-3.1511,0.0,0.0,0.0,0.0,0.0,0.0,0.0,0.0,0.0,0.0,0.0,0.0,0.0,0.0,0.0,0.0,0.0,0.0,0.0,0.0,0.0,0.0,-3.5504,-3.5504,-3.5504,-3.5504,-3.5504,-3.5504,-3.5504,-3.5504,-3.5504,-3.5504,-3.5504,-3.5504,-3.5504,-3.5504,-3.5504,-3.5504,-3.5504,-3.5504,-3.5504,-3.5504,-3.5504,-3.5504,-3.5504,-3.5504,-3.5504,-3.5504,-3.5504,0.0,0.0,-2.0171,-1.9661,0.0,0.0,-1.9781,-2.1447,-2.2628,-2.197,-2.2598,-2.3108,-2.3108,-2.3108,0.0,-2.3108,-2.3108,-2.3108,-2.3108,-2.3108,-2.3108,-2.3108,-2.3534,-2.3866,-2.4004,-2.4418,-2.4908,-2.5435,-2.4908,-2.4908,-2.5435,-2.5435,-2.5737,-2.6311,-2.6311,-2.6386,-2.6555,-2.7351,-2.7604,-2.7451,-2.7637,-2.7866,-2.7988,-2.736,-2.7369,0.0,0.0,0.0,0.0,0.0,0.0,0.0,-2.7278,-2.714,-2.7376,-2.8627,-2.9002,-2.938,-3.1029,-3.1511,0.0,0.0,-3.1511,-3.1511,-3.1511,-3.1511,0.0,0.0,0.0,0.0,0.0,0.0,0.0,0.0,0.0,0.0,0.0,0.0,0.0,0.0,0.0,0.0,0.0,0.0,0.0,0.0,0.0,0.0,-3.5504,-3.5504,-3.5504,-3.5504,-3.5504,-3.5504,-3.5504,-3.5504,-3.5504,0.0,-3.5504,-3.5504,-3.5504,-3.5504,-3.5504,-3.5504,-3.5504,-3.5504,-3.5504,-3.5504,-3.5504,-3.5504,-3.5504,-3.5504,-3.5504,-3.5504,-3.5504,-3.5504,0.0,0.0,0.0,0.0,0.0,0.0,0.0,0.0,-2.2944,-2.2537,-2.2823,-2.3108,-2.3108,-2.3108,0.0,0.0,-2.3108,-2.3108,-2.3108,-2.3358,-2.3634,-2.3898,-2.423,-2.4506,-2.4757,-2.5046,-2.546,-2.6047,-2.5737,-2.5749,-2.6047,-2.6047,-2.6388,-2.7074,-2.6692,-2.6939,-2.7749,-2.8477,-2.8781,-2.8841,-2.9585,-2.9509,-2.8921,-2.8507,-2.8252,-2.8109,-2.8109,0.0,0.0,0.0,0.0,0.0,0.0,0.0,-2.7893,-2.8905,-2.9498,-3.015,-3.1424,0.0,0.0,-3.2452,0.0,-3.2452,-3.2452,-3.2452,0.0,0.0,0.0,0.0,0.0,0.0,0.0,0.0,0.0,0.0,0.0,0.0,0.0,0.0,0.0,0.0,0.0,0.0,0.0,0.0,0.0,-3.5504,-3.5504,-3.5504,-3.5504,-3.5504,-3.5504,-3.5504,-3.5504,-3.5504,-3.5504,-3.5504,-3.5504,-3.5504,-3.5504,-3.5504,-3.5504,-3.5504,-3.5504,-3.5504,-3.5504,-3.5504,-3.5504,-3.5504,-3.5504,-3.5504,-3.5504,-3.5504,-3.5504,-3.5504,0.0,0.0,0.0,0.0,0.0,0.0,0.0,0.0,0.0,-2.2914,-2.3005,-2.3108,-2.3108,-2.3108,-2.3108,0.0,0.0,0.0,-2.3258,-2.3816,-2.4343,-2.4775,-2.4876,-2.5159,-2.5586,-2.5686,-2.6009,-2.6499,-2.6499,-2.6499,-2.6499,-2.6658,-2.7007,-2.7484,-2.7232,-2.7782,-2.9004,-2.9965,-3.0378,-3.0499,-3.17,-3.1382,-3.0121,-2.9947,-2.9356,-2.863,-2.863,-2.8533,-2.8398,-2.8398,0.0,0.0,0.0,0.0,-2.8405,-2.9187,-2.996,-3.0764,-3.1608,0.0,-3.3285,-3.3454,-3.3499,0.0,-3.3499,0.0,0.0,0.0,0.0,0.0,0.0,0.0,0.0,0.0,0.0,0.0,0.0,0.0,0.0,0.0,0.0,0.0,0.0,0.0,0.0,0.0,0.0,-3.5504,-3.5504,-3.5504,-3.5504,-3.5504,-3.5504,-3.5504,-3.5504,-3.5504,-3.5504,-3.5504,-3.5504,-3.5504,-3.5504,-3.5504,-3.5504,-3.5504,-3.5504,-3.5504,-3.5504,-3.5504,-3.5504,-3.5504,-3.5504,-3.5504,-3.5504,-3.5504,-3.5504,-3.5504,0.0,0.0,0.0,0.0,0.0,0.0,0.0,0.0,0.0,0.0,-2.2659,-2.3108,-2.3108,-2.3108,-2.3108,-2.3108,-2.359,-2.3891,-2.3891,0.0,0.0,-2.4788,-2.5259,-2.5523,-2.5598,-2.6122,-2.6411,-2.6499,-2.6499,-2.6499,-2.6521,-2.7196,-2.7229,-2.6739,-2.8672,-2.9232,-2.8873,-3.1016,-3.1915,-3.1929,-3.2112,-3.2356,-3.2558,-3.1791,-3.1213,-3.0808,-3.0808,-3.025,-2.9566,-2.9566,-2.9566,0.0,0.0,0.0,-2.8861,-2.9269,-2.9486,-2.9752,0.0,0.0,-3.2474,0.0,-3.3499,-3.3499,0.0,0.0,0.0,0.0,0.0,0.0,0.0,0.0,0.0,0.0,0.0,0.0,0.0,0.0,0.0,0.0,0.0,0.0,0.0,0.0,0.0,0.0,-3.5504,-3.5504,-3.5504,-3.5504,-3.5504,-3.5504,-3.5504,-3.5504,-3.5504,-3.5504,-3.5504,-3.5504,-3.5504,-3.5504,-3.5504,-3.5504,-3.5504,-3.5504,-3.5504,-3.5504,-3.5504,-3.5504,-3.5504,-3.5504,-3.5504,-3.5504,-3.5504,-3.5504,-3.5504,-3.5504,0.0,0.0,0.0,0.0,0.0,0.0,0.0,0.0,0.0,0.0,0.0,-2.3108,-2.3108,-2.3396,-2.3584,-2.3584,-2.413,-2.4582,-2.487,-2.5121,-2.5398,-2.5724,-2.5996,-2.6109,-2.6109,-2.6361,-2.6499,-2.6499,-2.6939,-2.7351,-2.7764,-2.9065,-2.9227,-2.8525,-2.9548,-3.0517,-3.1447,-3.2367,-3.3045,-3.352,-3.3918,-3.3886,-3.3557,-3.3189,-3.2266,-3.1217,-3.1217,-3.0595,-2.9792,-2.9792,-2.9792,-2.9741,-2.949,0.0,0.0,0.0,-2.998,-3.0739,-3.2117,-3.281,-3.3419,0.0,-3.4622,-3.4622,0.0,0.0,0.0,0.0,0.0,0.0,0.0,0.0,0.0,0.0,0.0,0.0,0.0,0.0,0.0,0.0,0.0,0.0,0.0,0.0,0.0,0.0,-3.5504,-3.5504,-3.5504,-3.5504,-3.5504,-3.5504,-3.5504,-3.5504,-3.5504,-3.5504,-3.5504,-3.5504,-3.5504,-3.5504,-3.5504,-3.5504,-3.5504,-3.5504,-3.5504,-3.5504,-3.5504,-3.5504,-3.5504,-3.5504,-3.5504,-3.5504,-3.5504,-3.5504,-3.5504,-3.5504,0.0,0.0,0.0,0.0,0.0,0.0,0.0,0.0,0.0,0.0,0.0,-2.3321,-2.3321,0.0,0.0,0.0,-2.4707,-2.5247,-2.5774,-2.5812,-2.6047,-2.6474,-2.6499,-2.6499,-2.6499,-2.6499,-2.6499,-2.6499,-2.7249,-2.7983,-2.873,-3.0364,-3.1016,-3.0816,-3.1043,-3.1971,-3.3443,-3.368,-3.4168,-3.4786,-3.5295,-3.5052,-3.4394,-3.4394,-3.3345,-3.1924,-3.1924,-3.1156,-3.0139,-3.0139,-2.9998,-2.9792,-2.9792,-2.9792,0.0,0.0,0.0,0.0,0.0,0.0,-3.3567,-3.4806,-3.5133,-3.518,0.0,0.0,0.0,0.0,0.0,0.0,0.0,0.0,0.0,0.0,0.0,0.0,0.0,0.0,0.0,0.0,0.0,0.0,0.0,0.0,0.0,0.0,-3.5504,-3.5504,-3.5504,-3.5504,-3.5504,-3.5504,-3.5504,-3.5504,-3.5504,-3.5504,-3.5504,-3.5504,-3.5504,-3.5504,-3.5504,-3.5504,-3.5504,-3.5504,-3.5504,-3.5504,-3.5504,-3.5504,-3.5504,-3.5504,-3.5504,-3.5504,-3.5504,-3.5504,-3.5504,-3.5504,0.0,0.0,0.0,0.0,0.0,0.0,0.0,0.0,0.0,0.0,0.0,-2.3954,-2.3954,-2.4456,-2.475,-2.475,-2.5259,-2.5799,-2.6411,-2.6449,-2.6461,-2.6499,-2.6499,0.0,-2.6499,-2.6499,-2.6499,-2.6499,-2.705,-2.778,-2.873,-3.0146,-3.1597,-3.3056,-3.3893,-3.3861,-3.3322,-3.4774,-3.5412,-3.5459,-3.5489,-3.5472,-3.5424,-3.5424,-3.4773,-3.3842,-3.3842,-3.2664,-3.1143,-3.1143,-3.052,-2.9792,-2.9792,-2.9792,-2.9792,0.0,0.0,0.0,0.0,-3.1352,0.0,-3.3636,0.0,0.0,0.0,0.0,0.0,0.0,0.0,0.0,0.0,0.0,0.0,0.0,0.0,0.0,0.0,0.0,0.0,0.0,0.0,0.0,0.0,0.0,0.0,0.0,-3.5504,-3.5504,-3.5504,-3.5504,-3.5504,-3.5504,-3.5504,-3.5504,-3.5504,-3.5504,-3.5504,-3.5504,-3.5504,-3.5504,-3.5504,-3.5504,-3.5504,-3.5504,-3.5504,-3.5504,-3.5504,-3.5504,-3.5504,-3.5504,-3.5504,-3.5504,-3.5504,-3.5504,-3.5504,-3.5504,0.0,0.0,0.0,0.0,0.0,0.0,0.0,0.0,0.0,0.0,0.0,0.0,0.0,-2.4996,-2.5322,-2.5322,-2.5824,-2.6273,-2.6474,-2.6499,-2.6499,-2.6499,-2.6499,-2.6499,-2.6499,-2.6839,-2.7014,-2.7014,-2.8097,-2.9333,-3.0719,-3.1783,-3.312,-3.465,-3.4556,-3.4584,-3.4727,-3.5255,-3.5504,-3.5504,-3.5504,-3.5504,-3.5504,-3.5504,-3.4872,-3.3993,0.0,0.0,0.0,0.0,0.0,0.0,-2.9792,-2.9792,-2.9792,-2.9792,-2.9792,0.0,0.0,0.0,0.0,-3.2784,0.0,0.0,0.0,0.0,0.0,0.0,0.0,0.0,0.0,0.0,0.0,0.0,0.0,0.0,0.0,0.0,0.0,0.0,0.0,0.0,0.0,0.0,0.0,0.0,0.0,-3.5504,-3.5504,-3.5504,-3.5504,-3.5504,-3.5504,-3.5504,-3.5504,-3.5504,-3.5504,-3.5504,-3.5504,-3.5504,-3.5504,-3.5504,-3.5504,-3.5504,-3.5504,-3.5504,-3.5504,-3.5504,-3.5504,-3.5504,-3.5504,-3.5504,-3.5504,-3.5504,-3.5504,-3.5504,0.0,0.0,0.0,-2.3358,0.0,-2.3459,-2.3647,-2.3998,-2.428,-2.428,0.0,0.0,0.0,0.0,-2.5887,-2.5887,-2.6273,-2.6499,-2.6499,-2.6499,-2.6575,-2.6763,-2.6776,-2.6851,-2.704,-2.7228,-2.7369,-2.7557,-2.8495,-2.9954,-3.1813,-3.2585,-3.3835,-3.5489,-3.5026,-3.507,-3.5504,-3.5504,-3.5504,-3.5504,-3.5504,-3.5504,-3.5504,-3.5504,-3.51,0.0,0.0,0.0,0.0,0.0,0.0,0.0,-3.0355,-3.0037,-2.9792,-2.9792,-2.9792,0.0,-3.0558,0.0,0.0,0.0,0.0,0.0,0.0,0.0,0.0,0.0,0.0,0.0,0.0,0.0,0.0,0.0,0.0,0.0,0.0,0.0,0.0,0.0,0.0,0.0,0.0,0.0,0.0,0.0,0.0,0.0,-3.5504,-3.5504,-3.5504,-3.5504,-3.5504,-3.5504,-3.5504,-3.5504,-3.5504,-3.5504,-3.5504,-3.5504,-3.5504,-3.5504,-3.5504,-3.5504,-3.5504,-3.5504,-3.5504,-3.5504,-3.5504,-3.5504,-3.5504,-3.5504,-3.5504,-3.5504,-3.5504,-3.5504,-2.3158,-2.3158,-2.3333,-2.3929,-2.4017,-2.4205,-2.4713,-2.48,-2.4813,-2.4813,0.0,0.0,0.0,0.0,0.0,-2.6512,-2.6512,-2.6524,-2.6549,-2.6549,-2.6788,-2.7281,-2.7306,-2.7557,-2.8097,-2.7595,-2.7595,-2.8134,-2.8184,-2.9451,-3.1841,-3.2401,-3.365,-3.5504,-3.5504,-3.5504,-3.5504,-3.5504,-3.5504,-3.5504,-3.5504,-3.5504,-3.5504,-3.5504,0.0,0.0,-3.5504,-3.4839,0.0,-3.3993,0.0,0.0,0.0,-3.052,-2.9792,-2.9792,-2.9792,0.0,0.0,0.0,0.0,0.0,0.0,0.0,0.0,0.0,0.0,0.0,0.0,0.0,0.0,0.0,0.0,0.0,0.0,0.0,0.0,0.0,0.0,0.0,0.0,0.0,0.0,0.0,0.0,0.0,-3.5504,-3.5504,-3.5504,-3.5504,-3.5504,-3.5504,-3.5504,-3.5504,-3.5504,-3.5504,-3.5504,-3.5504,-3.5504,-3.5504,-3.5504,-3.5504,-3.5504,-3.5504,-3.5504,-3.5504,-3.5504,-3.5504,-3.5504,-3.5504,-3.5504,-3.5504,-3.5504,-3.5504,-3.5504,-3.5504,-2.4324,-2.4324,-2.4374,-2.4537,-2.4594,-2.4612,-2.4763,-2.5146,-2.5385,0.0,0.0,0.0,-2.6248,-2.6399,-2.6663,-2.7052,-2.709,-2.7218,-2.762,-2.7657,-2.772,-2.7871,-2.7871,-2.7946,-2.8109,-2.8348,-2.8512,-2.8662,-2.9799,-3.1026,-3.2394,-3.324,-3.4293,-3.5504,-3.5504,-3.5504,-3.5504,-3.5504,-3.5504,-3.5504,-3.5504,-3.5504,-3.5504,0.0,0.0,0.0,0.0,-3.4839,-3.3993,0.0,-3.2925,-3.1426,0.0,-2.9998,-2.9792,-2.9792,-2.9792,0.0,-2.9792,0.0,0.0,0.0,0.0,0.0,-3.1852,-3.3031,0.0,0.0,0.0,0.0,0.0,0.0,0.0,0.0,0.0,0.0,0.0,0.0,0.0,0.0,0.0,0.0,0.0,0.0,0.0,0.0,-3.5504,-3.5504,-3.5504,-3.5504,-3.5504,-3.5504,-3.5504,-3.5504,-3.5504,-3.5504,-3.5504,-3.5504,-3.5504,-3.5504,-3.5504,-3.5504,-3.5504,-3.5504,-3.5504,-3.5504,-3.5504,-3.5504,-3.5504,-3.5504,-3.5504,-3.5504,-3.5504,-3.5504,-3.5504,-3.5504,-2.4788,-2.4788,-2.4863,-2.5109,-2.5146,-2.5222,-2.5473,-2.5762,-2.5996,0.0,0.0,0.0,-2.6813,-2.704,-2.7268,-2.7595,-2.762,-2.7758,-2.8084,-2.8109,-2.821,-2.8436,-2.8411,-2.8561,-2.88,-2.8888,-2.9214,-2.9868,-3.054,-3.1658,-3.3206,-3.3739,-3.4543,-3.5504,-3.5504,-3.5504,-3.5504,-3.5504,-3.5504,-3.5504,-3.5504,-3.5504,0.0,-3.5504,-3.5504,0.0,0.0,0.0,-3.4624,-3.4624,-3.3359,0.0,0.0,0.0,0.0,-2.9792,-2.9792,0.0,0.0,0.0,0.0,0.0,0.0,0.0,-3.1609,-3.2629,-3.3636,0.0,0.0,0.0,0.0,0.0,0.0,0.0,0.0,0.0,0.0,0.0,0.0,0.0,0.0,0.0,0.0,-3.5504,-3.5504,-3.5504,-3.5504,-3.5504,-3.5504,-3.5504,-3.5504,-3.5504,-3.5504,-3.5504,-3.5504,-3.5504,-3.5504,-3.5504,-3.5504,-3.5504,-3.5504,-3.5504,-3.5504,-3.5504,-3.5504,-3.5504,-3.5504,-3.5504,-3.5504,-3.5504,-3.5504,-3.5504,-3.5504,-3.5504,-3.5504,-3.5504,0.0,-2.5008,-2.5146,-2.5611,-2.5686,-2.5862,-2.6411,-2.6499,-2.6512,0.0,-2.6637,-2.6864,-2.7318,-2.7808,-2.8134,-2.8185,-2.8197,-2.8222,-2.8285,-2.8298,-2.8511,-2.8963,-2.8988,-2.9264,-2.9779,-2.9289,-2.9693,-3.1044,-3.0765,-3.1744,-3.3842,-3.4061,-3.4643,-3.5504,-3.5504,-3.5549,-3.5609,-3.5609,-3.5609,-3.5609,-3.5534,-3.5504,0.0,0.0,-3.5504,-3.5504,-3.5504,-3.5504,-3.5472,-3.5359,-3.4192,0.0,0.0,0.0,0.0,0.0,-2.9792,0.0,0.0,0.0,0.0,0.0,0.0,0.0,-3.1901,-3.2357,-3.2925,0.0,0.0,0.0,0.0,0.0,0.0,0.0,0.0,0.0,0.0,0.0,0.0,0.0,0.0,0.0,-3.5504,-3.5504,-3.5504,-3.5504,-3.5504,-3.5504,-3.5504,-3.5504,-3.5504,-3.5504,-3.5504,-3.5504,-3.5504,-3.5504,-3.5504,-3.5504,-3.5504,-3.5504,-3.5504,-3.5504,-3.5504,-3.5504,-3.5504,-3.5504,-3.5504,-3.5504,-3.5504,-3.5504,-3.5504,-3.5504,-3.5504,-3.5504,-3.5504,-3.5504,-2.6172,-2.6172,-2.621,-2.6311,-2.6323,-2.6361,-2.6474,-2.6499,-2.665,-2.7102,-2.7507,-2.7821,-2.7934,-2.8047,-2.8285,-2.87,-2.8725,-2.8963,-2.9428,-2.9465,-2.9515,-2.9616,-2.9616,-2.9679,-2.9792,-2.9679,-2.9782,-3.0075,-3.1466,-3.2425,-3.2925,-3.4476,-3.5326,-3.5504,-3.5504,-3.5804,-3.6297,-3.6297,-3.6297,-3.6252,-3.5714,0.0,-3.5504,-3.5504,-3.5504,-3.5504,-3.5504,-3.5504,-3.5359,-3.4576,-3.4027,-3.3449,0.0,0.0,0.0,0.0,0.0,0.0,0.0,0.0,0.0,0.0,0.0,0.0,-3.0254,-3.0945,-3.1573,0.0,0.0,0.0,0.0,0.0,0.0,0.0,0.0,0.0,0.0,0.0,0.0,0.0,0.0,0.0,-3.5504,-3.5504,-3.5504,-3.5504,-3.5504,-3.5504,-3.5504,-3.5504,-3.5504,-3.5504,-3.5504,-3.5504,-3.5504,-3.5504,-3.5504,-3.5504,-3.5504,-3.5504,-3.5504,-3.5504,-3.5504,-3.5504,-3.5504,-3.5504,-3.5504,-3.5504,-3.5504,-3.5504,-3.5504,-3.5504,-3.5504,-3.5504,-3.5504,-3.5504,-2.6499,-2.6499,-2.6499,-2.6499,-2.6499,-2.6587,-2.6864,-2.6901,-2.7102,-2.762,-2.8172,-2.8511,-2.8511,-2.9183,-2.9759,-3.0018,-3.0464,-3.0877,-3.118,-3.0771,-3.0696,-3.1169,-3.0279,-2.9998,-3.0482,-3.0037,-3.0254,-3.1206,-3.2141,-3.3101,-3.409,-3.5034,-3.5504,-3.5519,-3.5848,-3.6178,-3.6507,-3.6821,-3.6941,-3.6881,-3.6252,0.0,-3.5504,-3.5504,-3.5504,-3.5504,-3.5504,-3.5504,-3.5424,-3.4905,-3.4109,0.0,0.0,-3.1609,-3.0482,0.0,-3.0177,-2.9792,0.0,0.0,0.0,-2.9792,0.0,0.0,0.0,-3.0871,-3.1315,0.0,0.0,0.0,0.0,0.0,0.0,0.0,0.0,0.0,0.0,0.0,0.0,0.0,0.0,0.0,-3.5439,-3.5504,-3.5504,-3.5504,-3.5504,-3.5504,-3.5504,-3.5504,-3.5504,-3.5504,-3.5504,-3.5504,-3.5504,-3.5504,-3.5504,-3.5504,-3.5504,-3.5504,-3.5504,-3.5504,-3.5504,-3.5504,-3.5504,-3.5504,-3.5504,-3.5504,-3.5504,-3.5504,-3.5504,-3.5504,-3.5504,-3.5504,-3.5504,-3.5504,-2.6537,-2.6575,-2.665,-2.665,-2.6738,-2.6964,-2.7369,-2.7444,-2.7717,-2.844,-2.9022,-2.9389,-2.9613,-3.0719,-3.1462,-3.1462,-3.2177,-3.2593,-3.2593,-3.1888,-3.1815,-3.2558,-3.1169,-3.0696,-3.1462,-3.0746,-3.1095,-3.2593,-3.2784,-3.3742,-3.5391,-3.5586,-3.5759,-3.5893,-3.6432,-3.6731,-3.6896,-3.7389,0.0,-3.7554,0.0,-3.6462,-3.5878,-3.5878,-3.5878,-3.5848,-3.5729,-3.5609,-3.5504,-3.5504,-3.4341,-3.2961,-3.3553,-3.2046,0.0,0.0,0.0,0.0,0.0,0.0,0.0,0.0,0.0,-2.9998,0.0,0.0,0.0,0.0,0.0,0.0,0.0,0.0,0.0,0.0,0.0,0.0,0.0,0.0,0.0,0.0,0.0,0.0,0.0,-3.5213,-3.5213,-3.5213,-3.5213,-3.5294,-3.5504,-3.5504,-3.5504,-3.5504,-3.5504,-3.5504,-3.5504,-3.5504,-3.5504,-3.5504,-3.5504,-3.5504,-3.5504,-3.5504,-3.5504,-3.5504,-3.5504,-3.5504,-3.5504,-3.5504,-3.5504,-3.5504,-3.5504,-3.5504,-3.5504,-3.5504,-3.5504,-3.5504,-2.6688,-2.6889,-2.7228,-2.7228,-2.7595,-2.7946,-2.7996,-2.8009,-2.8526,-2.9938,-3.0598,-3.1259,-3.2068,-3.2352,-3.2464,-3.2464,-3.2522,-3.2593,-3.2593,-3.25,-3.25,-3.2593,-3.2393,-3.2321,-3.2464,-3.2357,-3.2393,-3.2593,-3.3415,-3.4281,-3.5085,-3.5959,-3.6671,-3.7195,-3.727,-3.7629,-3.8182,0.0,-3.8287,0.0,-3.8197,-3.7778,0.0,-3.7195,-3.7195,-3.712,-3.6567,-3.5998,-3.5504,0.0,-3.4758,-3.3705,0.0,-3.196,-3.0895,0.0,0.0,0.0,0.0,0.0,0.0,0.0,-2.9792,0.0,0.0,0.0,0.0,0.0,0.0,0.0,0.0,0.0,0.0,0.0,0.0,0.0,0.0,0.0,0.0,0.0,0.0,0.0,0.0,-3.4177,-3.4177,-3.4177,-3.4177,-3.4543,-3.5457,-3.5504,-3.5504,-3.5504,-3.5504,-3.5504,-3.5504,-3.5504,-3.5504,-3.5504,-3.5504,-3.5504,-3.5504,-3.5504,-3.5504,-3.5504,-3.5504,-3.5504,-3.5504,-3.5504,-3.5504,-3.5504,-3.5504,-3.5504,-3.5504,-3.5504,-3.5504,-3.5504,-2.7507,-2.7607,-2.7758,-2.7758,-2.7946,-2.821,-2.8536,-2.8863,-2.969,-3.1438,-3.1389,-3.1573,-3.25,-3.3101,0.0,0.0,0.0,-3.4274,0.0,0.0,-3.3671,-3.4274,-3.3558,-3.3455,-3.3988,-3.3854,-3.4036,-3.4562,-3.4966,-3.5581,-3.6394,-3.6831,-3.7165,-3.7419,-3.7808,0.0,-3.8422,0.0,-3.899,0.0,0.0,0.0,0.0,-3.7704,-3.7404,-3.7375,-3.712,-3.6611,-3.6073,0.0,-3.5148,0.0,0.0,0.0,0.0,0.0,0.0,0.0,0.0,0.0,0.0,0.0,0.0,0.0,-2.9792,0.0,-2.9792,0.0,0.0,0.0,0.0,0.0,0.0,0.0,-2.9628,0.0,0.0,0.0,0.0,0.0,0.0,0.0,0.0,0.0,0.0,0.0,-3.3993,-3.4428,-3.5439,-3.5504,-3.5504,-3.5504,-3.5504,-3.5504,-3.5504,-3.5504,-3.5504,-3.5504,-3.5504,-3.5504,-3.5504,-3.5504,-3.5504,-3.5504,-3.5504,-3.5504,-3.5504,-3.5504,-3.5504,-3.5504,-3.5504,-3.5504,-3.5504,-3.5504,-3.5504,-3.5504,-2.8574,-2.8436,-2.8335,-2.8335,-2.8657,-2.9167,-2.9823,-2.9834,-3.057,-3.2713,-3.2177,-3.2033,-3.3255,-3.3993,0.0,0.0,-3.51,-3.5579,0.0,0.0,-3.5062,-3.598,0.0,0.0,-3.5621,-3.5468,-3.5697,-3.6391,-3.6391,-3.6825,-3.7674,-3.7674,-3.7778,-3.7973,-3.8452,-3.8676,-3.8706,0.0,-3.9388,-3.9388,-3.9388,-3.9388,-3.9269,-3.8332,-3.7838,-3.7674,-3.7674,-3.727,-3.6746,-3.6746,-3.5667,0.0,-3.5137,0.0,0.0,0.0,0.0,0.0,-3.0177,0.0,0.0,0.0,0.0,0.0,0.0,0.0,0.0,0.0,0.0,0.0,0.0,0.0,0.0,0.0,0.0,-2.9741,0.0,0.0,0.0,0.0,0.0,0.0,0.0,0.0,0.0,0.0,0.0,-3.3925,-3.4673,-3.5213,-3.5359,-3.51,-3.5359,-3.5504,-3.5504,-3.5504,-3.5504,-3.5504,-3.5504,-3.5504,-3.5504,-3.5504,-3.5504,-3.5504,-3.5504,-3.5504,-3.5504,-3.5504,-3.5504,-3.5504,-3.5504,-3.5504,-3.5504,-3.5504,-3.5504,-3.5504,-2.9741,-2.9289,-2.8863,-2.8863,-3.0119,-3.1409,-3.2352,-3.0945,-3.0784,-3.3602,0.0,0.0,0.0,0.0,0.0,0.0,0.0,-3.5774,-3.6417,0.0,-3.6683,0.0,0.0,-3.7306,0.0,-3.7321,-3.7336,-3.737,-3.737,-3.7699,-3.8362,-3.8362,-3.8721,-3.9328,-3.9379,-3.9394,-3.9394,-3.9373,-3.9388,-3.9388,-3.9388,-3.9388,-3.9388,0.0,-3.8931,-3.8362,-3.8362,0.0,0.0,-3.7375,-3.6301,0.0,0.0,0.0,0.0,0.0,0.0,0.0,0.0,0.0,0.0,-2.9792,0.0,0.0,0.0,0.0,-2.9792,0.0,0.0,0.0,0.0,0.0,-2.9616,-2.9013,-2.9428,0.0,0.0,0.0,0.0,0.0,0.0,0.0,0.0,0.0,0.0,0.0,0.0,0.0,-3.2713,-3.4491,-3.5052,-3.4061,-3.4986,-3.5504,-3.5504,-3.5504,-3.5504,-3.5504,-3.5504,-3.5504,-3.5504,-3.5504,-3.5504,-3.5504,-3.5504,-3.5504,-3.5504,-3.5504,-3.5504,-3.5504,-3.5504,-3.5504,-3.5504,-3.5504,-3.5504,-3.5504,-3.1659,-3.0998,-3.0422,-3.0422,-3.0839,-3.1742,-3.3276,-3.1938,-3.1769,0.0,0.0,0.0,0.0,-3.6148,-3.6312,0.0,0.0,-3.6866,-3.709,-3.7105,0.0,0.0,0.0,-3.8063,0.0,0.0,-3.8701,-3.8701,-3.8701,-3.8856,-3.9065,-3.9065,-3.9185,-3.9388,-3.9388,-3.9388,0.0,0.0,0.0,0.0,0.0,-3.9388,-3.9388,0.0,-3.9275,-3.9065,-3.9065,-3.8631,0.0,-3.8063,-3.7392,-3.6586,-3.6586,-3.5479,-3.4059,-3.3453,-3.2731,0.0,0.0,0.0,-3.0733,-3.0733,0.0,0.0,0.0,0.0,0.0,0.0,0.0,0.0,0.0,0.0,-2.9729,-2.9528,-2.9666,-2.9729,0.0,0.0,0.0,0.0,0.0,0.0,0.0,0.0,0.0,0.0,-3.1499,0.0,-3.2558,-3.322,-3.3719,-3.3993,-3.4312,-3.4839,-3.5504,-3.5504,-3.5504,-3.5504,-3.5504,-3.5504,-3.5504,-3.5504,-3.5504,-3.5504,-3.5504,-3.5504,-3.5504,-3.5504,-3.5504,-3.5504,-3.5504,-3.5504,-3.5439,-3.4758,-3.4953,-3.5504,-3.2593,-3.2105,-3.1706,-3.1706,-3.1706,-3.2426,-3.4549,-3.3296,0.0,0.0,-3.5331,0.0,-3.666,0.0,-3.6971,0.0,-3.7404,-3.7509,-3.7749,-3.7764,0.0,-3.8108,-3.8542,0.0,0.0,0.0,0.0,0.0,-3.9388,-3.9388,-3.9388,-3.9388,-3.9388,-3.9388,-3.9388,-3.9388,-3.9388,-3.9388,-3.9388,0.0,0.0,-3.9388,0.0,0.0,-3.9388,-3.9388,0.0,-3.9125,-3.8751,-3.8751,-3.8317,-3.7764,-3.7764,-3.6892,-3.57,-3.4859,-3.3853,-3.2762,-3.1942,-3.1217,0.0,-3.0696,-3.0241,0.0,-2.9792,0.0,0.0,0.0,0.0,0.0,0.0,0.0,-2.9792,-2.9792,-2.9792,-2.9792,0.0,-2.9792,0.0,0.0,0.0,0.0,0.0,0.0,0.0,-3.0658,-3.1007,-3.1328,0.0,0.0,-3.2713,-3.2996,-3.3671,-3.4312,-3.4953,-3.4953,-3.5133,-3.5504,-3.5133,-3.5166,-3.5504,-3.5504,-3.5504,-3.5472,-3.5133,-3.4953,-3.4953,-3.4591,-3.4457,-3.4457,-3.4457,-3.4457,-3.4476,-3.4509,-3.4725,-3.5019,-3.2832,-3.2832,-3.2832,-3.2797,-3.2733,-3.3579,0.0,0.0,-3.4604,0.0,-3.6617,-3.6406,-3.7346,-3.7464,-3.7464,-3.7509,-3.7509,0.0,-3.8407,-3.8437,0.0,0.0,-3.9388,-3.9388,-3.9388,0.0,0.0,0.0,0.0,-3.9388,-3.9388,-3.9388,-3.9388,-3.9388,-3.9388,0.0,-3.9388,-3.9388,-3.9388,-3.9388,-3.9388,-3.9388,-3.9388,-3.9388,-3.9388,-3.9388,-3.9388,-3.9388,-3.9388,-3.9388,-3.899,-3.8437,-3.8437,-3.7988,-3.7345,-3.6712,-3.5239,-3.3626,-3.285,-3.1344,-2.9972,-2.9908,-2.983,0.0,0.0,0.0,-2.9792,0.0,0.0,0.0,0.0,0.0,0.0,-2.9792,-2.9792,-2.9792,-2.9792,0.0,0.0,0.0,0.0,0.0,0.0,0.0,-2.9792,-2.9792,-3.062,-3.072,0.0,0.0,-3.2069,-3.1217,-3.2925,-3.3876,-3.391,-3.391,-3.4428,-3.5392,-3.4394,-3.4476,-3.5424,-3.5359,-3.5359,-3.5294,-3.4361,-3.391,-3.3842,-3.2961,-3.2593,-3.2593,-3.2593,-3.2593,-3.282,-3.4739,-3.4839,-3.4129,-3.6168,-3.6168,-3.5945,-3.5232,-3.4704,-3.5004,-3.6875,0.0,0.0,0.0,-3.7183,-3.7327,-3.8043,-3.8138,-3.8347,-3.8856,-3.8901,0.0,0.0,0.0,0.0,-3.9373,-3.9388,-3.9388,-3.9388,-3.9388,0.0,-3.9388,0.0,-3.9388,-3.9388,-3.9388,-3.9388,-3.9388,-3.9388,-3.9388,-3.9388,-3.9388,-3.9388,-3.9388,-3.9388,-3.9388,-3.9388,0.0,-3.9388,-3.9388,-3.9388,-3.9388,-3.9388,-3.9388,-3.9305,-3.9155,-3.9155,-3.8691,-3.7988,-3.7139,-3.6658,-3.5962,-3.3906,-3.2978,-3.2344,-3.1149,-3.0317,-2.9792,0.0,0.0,0.0,0.0,0.0,0.0,0.0,0.0,0.0,0.0,-2.9792,0.0,0.0,0.0,0.0,-2.9792,0.0,0.0,0.0,0.0,-2.9792,-2.9792,-3.0037,-3.0037,0.0,0.0,0.0,-3.118,-3.1669,-3.2249,-3.2961,-3.2961,-3.3429,-3.4361,-3.3429,-3.3463,-3.4361,-3.3671,-3.3359,-3.3325,-3.3066,-3.2961,-3.2961,-3.2713,-3.2593,-3.2593,-3.2593,-3.2593,-3.2749,-3.3925,-3.4211,-3.4027,-3.7404,-3.7404,0.0,-3.7105,0.0,-3.6807,-3.7709,-3.7375,0.0,-3.8172,-3.8287,0.0,-3.8796,-3.8841,-3.899,-3.9394,-3.9388,0.0,-3.9388,0.0,0.0,-3.9388,-3.9388,-3.9388,-3.9388,-3.9388,0.0,-3.9388,0.0,-3.9388,-3.9388,-3.9388,-3.9388,-3.9388,-3.9388,-3.9388,-3.9388,-3.9388,-3.9388,-3.9388,-3.9388,-3.9388,0.0,-3.9388,-3.9388,-3.9388,-3.9388,-3.9388,-3.9388,-3.9388,-3.9388,-3.9388,-3.9388,-3.8837,-3.7967,-3.7149,-3.6421,-3.545,-3.3721,-3.2793,-3.2048,-3.115,-3.0356,-2.9792,-2.9792,-2.9792,-2.9792,0.0,-2.9792,-2.9792,0.0,0.0,0.0,0.0,0.0,0.0,0.0,0.0,0.0,0.0,0.0,0.0,0.0,-2.9792,-2.9792,-2.9792,-2.9792,-2.9792,0.0,0.0,0.0,-3.0558,-3.097,-3.1462,-3.1997,-3.1997,-3.2464,-3.338,-3.2464,-3.25,-3.338,-3.2855,-3.2593,-3.2558,-3.2177,-3.1997,-3.196,-3.1549,-3.1378,-3.1378,-3.1378,-3.1623,-3.2069,-3.2558,-3.2784,-3.282,-3.7674,0.0,0.0,0.0,0.0,0.0,0.0,-3.8527,0.0,-3.9298,0.0,-3.9388,-3.9388,-3.9388,-3.9388,-3.9388,0.0,-3.9388,-3.9388,-3.9388,-3.9388,-3.9388,-3.9388,-3.9388,-3.9388,-3.9388,0.0,0.0,0.0,-3.9388,-3.9388,-3.9388,-3.9388,-3.9388,-3.9388,0.0,0.0,-3.9388,-3.9388,-3.9388,-3.9388,-3.9388,-3.9388,-3.9388,-3.9388,-3.9388,-3.9388,-3.9388,-3.9388,-3.9388,-3.9388,-3.9388,-3.9388,-3.8745,-3.7878,-3.73,-3.5809,-3.4139,-3.3369,-3.2109,-3.0956,-3.0773,-3.0306,-2.9892,-2.9892,-2.9842,-2.9792,-2.9792,-2.9792,-2.9792,0.0,0.0,0.0,0.0,0.0,0.0,0.0,0.0,0.0,0.0,0.0,0.0,0.0,0.0,-2.9792,-2.9792,-2.9792,0.0,0.0,0.0,0.0,-2.9792,-3.0595,-3.1007,-3.1007,0.0,-3.1499,-3.2429,-3.1462,-3.1499,-3.2429,-3.2285,-3.2213,-3.2177,-3.1365,-3.1007,-3.097,-3.0139,-2.9792,-2.9792,-2.9792,-3.0317,-3.1007,-3.1007,-3.1007,-3.1143,0.0,0.0,0.0,0.0,0.0,-3.923,-3.923,-3.923,-3.929,-3.9373,-3.9388,-3.9388,-3.9388,-3.9388,-3.9388,-3.9388,-3.9388,0.0,0.0,0.0,0.0,-3.9388,-3.9388,-3.9388,-3.9388,-3.9388,-3.9388,0.0,0.0,-3.9388,-3.9388,-3.9388,-3.9388,-3.9388,-3.9388,0.0,-3.9388,-3.9388,0.0,-3.9388,-3.9388,-3.9388,-3.9388,-3.9388,-3.9388,-3.9388,-3.9388,-3.9388,-3.9388,-3.9388,-3.9388,-3.9388,-3.9388,-3.9265,-3.909,-3.8992,-3.8059,-3.6777,-3.5355,-3.4097,-3.2931,-3.1592,-3.0859,-3.047,-3.047,-3.0118,-2.9792,-2.9792,-2.9792,-2.9792,-2.9792,0.0,0.0,0.0,0.0,0.0,0.0,0.0,0.0,0.0,0.0,0.0,0.0,0.0,0.0,0.0,0.0,0.0,0.0,0.0,0.0,0.0,-2.9972,0.0,0.0,0.0,-3.0533,-3.1426,-3.0482,-3.0533,-3.1426,-3.0633,-3.0292,-3.0292,-3.0113,-3.0037,-3.0037,-2.9869,-2.9792,-2.9792,-2.9792,-2.9895,-3.0037,-3.0037,-3.0037,-3.0177,0.0,0.0,0.0,0.0,0.0,0.0,0.0,-3.9388,0.0,-3.9388,-3.9388,-3.9388,-3.9388,-3.9388,-3.9388,-3.9388,-3.9388,-3.9388,-3.9388,-3.9388,-3.9388,-3.9388,-3.9388,0.0,-3.9388,-3.9388,-3.9388,-3.9388,0.0,-3.9388,-3.9388,-3.9388,-3.9388,-3.9388,-3.9388,-3.9388,0.0,0.0,0.0,-3.9388,-3.9388,-3.9388,-3.9388,-3.9388,-3.9388,-3.9388,-3.9388,-3.9388,-3.9388,-3.9388,-3.9388,-3.9388,-3.9388,-3.9017,-3.8583,-3.8583,-3.7434,-3.6026,-3.5262,-3.4017,-3.2764,-3.2,-3.1411,-3.0947,-3.067,-3.0407,-3.0143,-2.9854,-2.9792,-2.9792,-2.9792,-2.9792,0.0,0.0,0.0,0.0,0.0,0.0,0.0,0.0,0.0,0.0,0.0,0.0,0.0,0.0,0.0,0.0,0.0,0.0,0.0,0.0,0.0,0.0,0.0,0.0,0.0,-3.0482,-2.9998,-3.0037,-3.0444,-2.9998,-2.9792,-2.9792,-2.9792,-2.9792,-2.9792,-2.9792,-2.9792,-2.9792,-2.9792,-2.9792,-2.9792,-2.9792,-2.9792,-2.9856,0.0,-3.9388,0.0,0.0,-3.9388,0.0,-3.9388,-3.9388,-3.9388,-3.9388,-3.9388,-3.9388,-3.9388,-3.9388,-3.9388,-3.9388,-3.9388,-3.9388,-3.9388,-3.9388,-3.9388,-3.9388,-3.9388,-3.9388,-3.9388,-3.9388,-3.9388,0.0,0.0,0.0,-3.9388,-3.9388,-3.9388,-3.9388,0.0,0.0,0.0,0.0,-3.9388,-3.9388,-3.9388,-3.9388,-3.9388,-3.9388,-3.9388,-3.9388,-3.9388,-3.9388,-3.9388,-3.9388,-3.9388,-3.9337,-3.9141,-3.8472,-3.7753,-3.751,-3.616,-3.4705,-3.4705,-3.3576,-3.239,-3.239,-3.1976,-3.1461,-3.1047,-3.0771,-3.0495,-3.0055,-2.988,-2.9792,-2.9792,-2.9792,0.0,0.0,0.0,0.0,0.0,0.0,0.0,0.0,0.0,0.0,0.0,0.0,0.0,0.0,0.0,-2.9792,-2.9792,-2.9792,-2.9792,0.0,0.0,-2.9792,-2.9792,0.0,-2.9792,-2.9792,-2.9792,-2.9792,-2.9792,-2.9792,-2.9792,-2.9792,-2.9792,-2.9792,-2.9792,-2.9792,-2.9792,-2.9792,-2.9792,-2.9792,-2.9792,-2.9792,-2.9792,-2.9792,0.0,0.0,0.0,0.0,0.0,0.0,-3.9388,-3.9388,-3.9388,-3.9388,-3.9388,-3.9388,-3.9388,-3.9388,-3.9388,-3.9388,-3.9388,-3.9388,-3.9388,-3.9388,-3.9388,-3.9388,-3.9388,-3.9388,-3.9388,-3.9388,-3.9388,0.0,0.0,-3.9388,0.0,-3.9388,-3.9388,0.0,0.0,0.0,0.0,-3.9388,-3.9388,-3.9388,-3.9388,-3.9388,-3.9388,-3.9388,-3.9388,-3.9388,-3.9388,-3.9388,-3.9388,-3.9388,-3.9388,-3.9228,-3.8271,-3.7866,-3.7625,-3.6643,-3.5561,-3.4705,-3.4705,-3.3872,-3.3006,-3.3006,-3.2566,-3.2127,-3.2077,-3.1311,-3.0608,-3.0557,-3.0143,-2.9792,-2.9792,-2.9792,-2.9792,0.0,0.0,0.0,0.0,0.0,0.0,0.0,0.0,0.0,0.0,-2.9792,0.0,0.0,-2.9792,-2.9792,-2.9792,-2.9792,-2.9792,-2.9792,0.0,-2.9792,-2.9792,-2.9792,-2.9792,-2.9792,-2.9792,-2.9792,-2.9792,-2.9792,-2.9792,-2.9792,-2.9792,-2.9792,-2.9792,-2.9792,-2.9792,-2.9792,-2.9792,-2.9792,-2.9792,-2.9792,-2.9792,-2.9792,0.0,0.0,0.0,0.0,0.0,0.0,0.0,-3.9388,-3.9388,-3.9388,-3.9388,-3.9388,-3.9388,-3.9388,-3.9388,-3.9388,-3.9388,-3.9388,-3.9388,-3.9388,-3.9388,-3.9388,-3.9388,-3.9388,-3.9388,-3.9388,-3.9388,0.0,0.0,0.0,0.0,0.0,0.0,0.0,0.0,-3.9388,-3.9388,-3.9388,-3.9388,-3.9388,-3.9388,-3.9388,-3.9388,-3.9388,-3.9388,-3.9388,-3.9388,-3.9388,-3.9388,-3.9388,-3.9388,-3.9337,-3.8907,-3.8308,-3.7715,-3.7305,-3.6001,-3.4705,-3.4705,-3.3911,-3.3124,-3.3124,-3.2905,-3.2641,-3.229,-3.1888,-3.1486,-3.1148,-3.0658,-3.0181,-2.9854,-2.9792,-2.9792,-2.9792,0.0,0.0,0.0,0.0,0.0,0.0,0.0,0.0,0.0,0.0,-2.9792,0.0,0.0,-2.9792,-2.9792,-2.9792,0.0,-2.9792,0.0,-2.9792,-2.9792,-2.9792,-2.9792,-2.9792,-2.9792,-2.9792,-2.9792,-2.9792,-2.9792,-2.9792,-2.9792,-2.9792,-2.9792,-2.9792,-2.9792,-2.9792,-2.9792,-2.9792,-2.9792,-2.9792,-2.9792,-2.9842,-3.9388,0.0,-3.9388,0.0,-3.9388,-3.9388,-3.9388,-3.9388,-3.9388,-3.9388,-3.9388,-3.9388,-3.9388,-3.9388,-3.9388,-3.9388,-3.9388,-3.9388,-3.9388,-3.9388,-3.9388,-3.9388,-3.9388,0.0,-3.9388,-3.9388,-3.9388,-3.9388,-3.9388,0.0,0.0,0.0,0.0,0.0,-3.9388,-3.9388,-3.9388,-3.9388,-3.9388,-3.9388,-3.9388,-3.9388,-3.9388,-3.9388,-3.9388,-3.9388,-3.9388,-3.9177,-3.8943,-3.8943,-3.8745,-3.8494,-3.8819,-3.8182,-3.7266,-3.6958,-3.5615,-3.4233,-3.4233,-3.367,-3.3124,-3.3124,-3.3124,-3.2968,-3.2554,-3.234,-3.2051,-3.1499,-3.1097,-3.0683,-3.0131,-3.003,-2.998,-2.9817,0.0,0.0,0.0,0.0,0.0,0.0,-2.9792,-2.9792,-2.9792,-2.9792,0.0,0.0,0.0,0.0,0.0,0.0,0.0,0.0,0.0,0.0,-2.9792,-2.9792,-2.9792,-2.9792,-2.9792,-2.9792,-2.9792,-2.9792,-2.9792,-2.9792,-2.9792,-2.9792,-2.9792,-2.9792,-2.9792,-2.9792,-2.9792,-2.9792,-2.9792,-2.9792,-2.9792,-2.988,-3.9388,-3.9388,-3.9388,-3.9388,-3.9388,-3.9388,-3.9388,-3.9388,-3.9388,-3.9388,-3.9388,-3.9388,-3.9388,-3.9388,-3.9388,-3.9388,-3.9388,-3.9388,-3.9388,-3.9388,-3.9388,0.0,0.0,-3.9388,-3.9388,-3.9388,-3.9388,-3.9388,0.0,0.0,-3.9388,0.0,-3.9388,-3.9388,-3.9388,-3.9388,-3.9388,-3.9388,-3.9388,-3.9388,-3.9388,-3.9388,-3.9388,-3.9388,-3.9388,-3.9388,-3.9388,-3.8708,-3.7829,-3.7829,-3.7137,-3.6408,-3.751,-3.7098,-3.6013,-3.502,-3.3953,-3.3124,-3.3124,-3.3124,-3.3124,-3.3124,-3.3124,-3.3124,-3.3111,-3.2629,-3.2051,-3.1499,-3.1386,-3.1223,-3.0708,-3.0608,-3.0432,-2.988,0.0,0.0,0.0,0.0,0.0,0.0,-2.9792,-2.9792,-2.9792,-2.9792,0.0,0.0,0.0,0.0,0.0,0.0,0.0,-2.9792,-2.9792,0.0,-2.9792,-2.9792,-2.9792,-2.9792,-2.9792,-2.9792,-2.9792,-2.9792,-2.9792,-2.9792,-2.9792,-2.9792,-2.9792,-2.9792,-2.9792,-2.9792,-2.9792,-2.9792,-2.9792,-2.9792,-2.9792,-2.988,-3.9388,-3.9388,-3.9388,-3.9388,-3.9388,-3.9388,-3.9388,-3.9388,-3.9388,-3.9388,-3.9388,-3.9388,-3.9388,-3.9388,-3.9388,0.0,-3.9388,-3.9388,0.0,-3.9388,-3.9388,-3.9388,-3.9388,-3.9388,-3.9388,-3.9388,-3.9388,-3.9388,0.0,0.0,0.0,-3.9388,-3.9388,-3.9388,-3.9388,-3.9388,-3.9388,-3.9388,-3.9388,-3.9388,-3.9388,-3.9388,-3.9388,-3.9388,-3.9388,-3.9388,-3.9388,-3.9177,-3.8782,-3.8032,-3.7587,-3.7214,-3.6813,-3.5987,-3.5129,-3.4787,-3.3953,-3.3124,-3.3124,-3.3124,-3.3124,-3.3124,-3.3124,-3.3124,-3.3124,-3.293,-3.2641,-3.2064,-3.1951,-3.1788,-3.1235,-3.1148,-3.1085,-3.0909,-3.0583,0.0,0.0,0.0,0.0,0.0,-2.9792,-2.9792,-2.9792,-2.9792,0.0,0.0,0.0,0.0,0.0,0.0,0.0,0.0,-2.9792,0.0,-2.9792,-2.9792,-2.9792,-2.9792,-2.9792,-2.9792,-2.9792,-2.9792,-2.9792,-2.9792,-2.9792,-2.9792,-2.9792,-2.9792,-2.9792,-2.9792,-2.9792,-2.9792,-2.9792,-2.9792,-3.003,-3.0432,-3.9388,-3.9388,-3.9388,-3.9388,-3.9388,-3.9388,-3.9388,-3.9388,-3.9388,-3.9388,-3.9388,-3.9388,-3.9388,-3.9388,0.0,-3.9388,-3.9388,-3.9388,-3.9388,-3.9388,-3.9388,-3.9388,-3.9388,-3.9388,-3.9388,-3.9388,0.0,-3.9388,-3.9388,-3.9388,-3.9388,-3.9388,-3.9388,-3.9388,-3.9388,-3.9388,-3.9388,-3.9388,-3.9388,-3.9388,-3.9388,-3.9388,-3.9388,-3.9388,-3.9388,-3.9388,-3.9388,-3.9141,-3.862,-3.7572,-3.6958,-3.6436,-3.5359,-3.4609,-3.4191,-3.4594,-3.3953,-3.3124,-3.3124,-3.3124,-3.3124,-3.3124,-3.3124,-3.3124,-3.3124,-3.3124,-3.2968,-3.2616,-3.2541,-3.2365,-3.18,-3.17,-3.1625,-3.1424,-3.1122,-3.0909,-3.0909,0.0,0.0,0.0,0.0,0.0,0.0,-2.9792,-2.9792,0.0,0.0,0.0,0.0,0.0,0.0,-2.9792,-2.9792,-2.9792,-2.9792,-2.9792,-2.9792,-2.9792,-2.9792,-2.9792,-2.9792,-2.9792,-2.9792,-2.9792,-2.9792,-2.9792,-2.9792,-2.9792,-2.9792,-2.9792,-2.9792,-2.9917,-3.0105,-3.0105,-3.0444,-3.0984,-3.9388,-3.9388,-3.9388,0.0,-3.9388,0.0,-3.9388,-3.9388,-3.9388,-3.9388,-3.9388,-3.9388,-3.9388,-3.9388,-3.9388,-3.9388,0.0,0.0,0.0,-3.9388,-3.9388,-3.9388,-3.9388,-3.9388,-3.9388,-3.9388,-3.9388,-3.9388,-3.9388,-3.9388,-3.9388,-3.9388,-3.9388,-3.9388,-3.9388,-3.9388,-3.9388,-3.9388,-3.9388,-3.9388,-3.9388,-3.9388,-3.9388,-3.9388,-3.9388,-3.9388,-3.9388,-3.8745,-3.7753,-3.6682,-3.5628,-3.4622,-3.3556,-3.3154,-3.3313,-3.4317,-3.3869,-3.3124,-3.3124,-3.3124,-3.3124,-3.3124,-3.3124,-3.3124,-3.3124,-3.3124,-3.3124,-3.3124,-3.3124,-3.2918,-3.2365,-3.2277,-3.2102,-3.1587,-3.1474,-3.1449,-3.1449,0.0,0.0,0.0,0.0,0.0,-2.9955,-2.9905,-2.9905,0.0,0.0,0.0,0.0,0.0,-2.9867,-2.9792,-2.9792,-2.9792,-2.9792,-2.9792,-2.9792,-2.9792,-2.9792,-2.9792,-2.9792,-2.9792,-2.9792,-2.9792,-2.9792,-2.9792,-2.9792,-2.9829,-2.9854,-2.9854,-2.9892,-3.0218,-3.067,-3.067,-3.0997,-3.1524,0.0,0.0,-3.9388,-3.9388,-3.9388,-3.9388,-3.9388,-3.9388,-3.9388,-3.9388,-3.9388,-3.9388,-3.9388,-3.9388,-3.9388,-3.9388,-3.9388,-3.9388,-3.9388,-3.9388,-3.9388,-3.9388,-3.9388,-3.9388,-3.9388,-3.9388,-3.9388,-3.9388,-3.9388,-3.9388,-3.9388,-3.9388,-3.9388,-3.9388,-3.9388,-3.9388,-3.9388,-3.9388,-3.9388,-3.9388,-3.9388,-3.9388,-3.9388,-3.9388,-3.9388,-3.9388,-3.9388,-3.9228,-3.887,-3.7776,-3.6735,-3.5668,-3.4664,-3.3755,-3.3154,-3.3398,-3.3313,-3.3124,-3.3124,-3.3124,-3.3124,-3.3124,-3.3124,-3.3124,-3.3124,-3.3124,-3.3124,-3.3124,-3.3124,-3.3074,-3.2893,-3.2867,-3.283,-3.2747,-3.2303,-3.2014,-3.2014,-3.165,0.0,0.0,-3.121,-3.1148,-3.1022,-3.1009,-3.1009,0.0,0.0,0.0,0.0,-3.1009,-3.0633,-2.9817,-2.9792,-2.9792,-2.9792,-2.9792,-2.9792,-2.9792,-2.9792,-2.9792,-2.9792,-2.9792,-2.9792,-2.9792,-2.9792,-2.9792,-2.9829,-3.0244,-3.0419,-3.0457,-3.0859,-3.1097,-3.121,-3.121,-3.1549,-3.2039,-3.9388,-3.9388,-3.9388,-3.9388,-3.9388,-3.9388,-3.9388,-3.9388,-3.9493,-3.9828,-3.9873,-3.9978,-4.0277,-4.0307,-4.0307,-4.0307,-3.9768,-3.9388,-3.9388,-3.9388,-3.9388,-3.9388,-3.9388,-3.9388,-3.9388,-3.9388,-3.9388,-3.9388,-3.9388,-3.9388,-3.9388,-3.9388,-3.9388,-3.9388,-3.9388,-3.9388,-3.9388,-3.9388,-3.9388,-3.9388,-3.9388,-3.9388,-3.9388,-3.9388,-3.9388,-3.9388,-3.9388,-3.9068,-3.8494,-3.742,-3.6383,-3.5319,-3.4304,-3.3556,-3.3124,-3.3124,-3.3124,-3.3124,-3.3124,-3.3124,-3.3124,-3.3124,-3.3124,-3.3124,-3.3124,-3.3124,-3.3124,-3.3124,-3.3124,-3.3124,-3.3124,-3.3124,-3.3124,-3.3124,-3.2817,-3.2604,-3.2604,-3.2353,0.0,-3.18,-3.1763,-3.1675,-3.1411,-3.1386,-3.1386,-3.1386,-3.1386,0.0,-3.1386,-3.1386,-3.1122,-3.0545,-3.052,-3.052,-3.052,-3.052,-3.052,-3.052,-3.052,-3.052,-3.052,-3.052,-3.052,-3.052,-3.052,-3.052,-3.0545,-3.0846,-3.0972,-3.0997,-3.1286,-3.1549,-3.1763,-3.1763,-3.2114,-3.2604,-3.9694,-3.9709,-3.9709,-3.9709,-3.9709,-3.9709,-3.9709,-3.9709,-3.9918,-4.0472,-4.0546,-4.0756,-4.1324,-4.1422,-4.1422,-4.1422,-4.0367,-3.9679,-3.9574,-3.9469,-3.9388,-3.9388,-3.9388,-3.9388,-3.9388,-3.9388,-3.9388,-3.9388,-3.9388,-3.9388,-3.9388,-3.9388,-3.9388,-3.9388,-3.9388,-3.9388,-3.9388,-3.9388,-3.9388,-3.9388,-3.9388,-3.9388,-3.9388,-3.9388,-3.9388,-3.9388,-3.9388,-3.8708,-3.7663,-3.6735,-3.5682,-3.4553,-3.3641,-3.324,-3.3124,-3.3124,-3.3124,-3.3124,-3.3124,-3.3124,-3.3124,-3.3124,-3.3124,-3.3124,-3.3124,-3.3124,-3.3124,-3.3124,-3.3124,-3.3124,-3.3124,-3.3124,-3.3124,-3.3124,-3.3124,-3.3124,-3.3124,0.0,-3.2893,-3.2403,-3.234,-3.2164,-3.1687,-3.165,-3.165,-3.165,-3.165,-3.165,-3.165,-3.165,-3.165,-3.165,-3.1486,-3.1386,-3.1386,-3.1386,-3.1386,-3.1386,-3.1386,-3.1386,-3.1386,-3.1386,-3.1386,-3.1386,-3.1386,-3.1386,-3.1399,-3.1486,-3.1512,-3.1524,-3.1612,-3.1926,-3.234,-3.234,-3.2654,-3.3124,-4.0965,-4.107,-4.107,-4.107,-4.107,-4.107,-4.107,-4.107,-4.1115,-4.1205,-4.1235,-4.1265,-4.1407,-4.1422,-4.1422,-4.1422,-4.119,-4.0846,-4.0292,-3.9723,-3.9388,-3.9388,-3.9388,-3.9388,-3.9388,-3.9388,-3.9388,-3.9388,-3.9388,-3.9388,-3.9388,-3.9388,-3.9388,-3.9388,-3.9388,-3.9388,-3.9388,-3.9388,-3.9388,-3.9388,-3.9388,-3.9388,-3.9388,-3.9388,-3.9388,-3.9388,-3.9388,-3.8708,-3.7791,-3.7625,-3.6279,-3.4664,-3.4511,-3.3839,-3.3124,-3.3124,-3.3124,-3.3124,-3.3124,-3.3124,-3.3124,-3.3124,-3.3124,-3.3124,-3.3124,-3.3124,-3.3124,-3.3124,-3.3124,-3.3124,-3.3124,-3.3124,-3.3124,-3.3124,-3.3124,-3.3124,-3.3124,0.0,-3.3086,-3.2955,-3.2943,-3.2948,-3.2817,-3.286,-3.286,-3.286,-3.286,-3.286,-3.286,-3.286,-3.286,-3.286,-3.1888,-3.1386,-3.1386,-3.1386,-3.1386,-3.1386,-3.1386,-3.1386,-3.1386,-3.1386,-3.1386,-3.1386,-3.1386,-3.1386,-3.1424,-3.1888,-3.2089,-3.2139,-3.2629,-3.291,-3.2943,-3.2943,-3.3006,-3.3124,-4.1324,-4.1422,-4.1422,-4.1422,-4.1422,-4.1422,-4.1422,-4.1422,-4.1542,-4.1901,-4.1946,-4.2081,-4.2402,-4.2432,-4.2432,-4.2432,-4.2117,-4.1826,-4.1512,-4.0846,-4.0472,-4.0472,-4.0472,-4.0307,-3.9963,-3.9568,-3.9388,-3.9388,-3.9388,-3.9388,-3.9388,-3.9388,-3.9388,-3.9388,-3.9388,-3.9388,-3.9388,-3.9388,-3.9388,-3.9388,-3.9388,-3.9388,-3.9388,-3.9388,-3.9388,-3.9388,-3.9388,-3.8331,-3.693,-3.693,-3.5561,-3.3839,-3.3839,-3.3513,-3.3124,-3.3124,-3.3124,-3.3124,-3.3124,-3.3124,-3.3124,-3.3124,-3.3124,-3.3124,-3.3124,-3.3124,-3.3124,-3.3124,-3.3124,-3.3124,-3.3124,-3.3124,-3.3124,-3.3124,-3.3124,0.0,-3.3124,-3.3124,-3.3124,-3.3124,-3.3124,-3.3124,-3.3124,-3.3124,-3.3124,-3.3124,-3.3124,-3.3124,-3.3124,-3.3124,-3.3124,-3.3124,-3.2566,-3.2303,-3.2303,-3.2303,-3.2303,-3.2303,-3.2303,-3.2303,-3.2303,-3.2303,-3.2303,-3.2303,-3.2303,-3.2303,-3.2315,-3.2566,-3.2679,-3.2704,-3.2968,-3.3124,-3.3124,-3.3124,-3.3124,-3.3124,-4.1803,-4.1833,-4.1833,-4.1833,-4.1833,-4.1833,-4.1833,-4.1833,-4.2013,-4.2521,-4.262,-4.2776,-4.3245,-4.329,-4.329,-4.329,-4.288,-4.262,-4.262,-4.2117,-4.1698,-4.1384,-4.1422,-4.1145,-4.0636,-4.0127,-3.9873,-3.9873,-3.9873,-3.9873,-3.9873,-3.9873,-3.9873,-3.9873,-3.9873,-3.9783,-3.9649,-3.9649,-3.9559,-3.9388,-3.9388,-3.9388,-3.9388,-3.9388,-3.9388,-3.9388,-3.9388,-3.8017,-3.6198,-3.6198,-3.4802,-3.3124,-3.3124,-3.3124,-3.3124,-3.3124,-3.3124,-3.3124,-3.3124,-3.3124,-3.3124,-3.3124,-3.3124,-3.3124,-3.3124,-3.3124,-3.3124,-3.3124,-3.3124,-3.3124,-3.3124,-3.3124,-3.3124,-3.3124,0.0,-3.3124,0.0,-3.3124,-3.3124,-3.3124,-3.3124,-3.3124,-3.3124,-3.3124,-3.3124,-3.3124,-3.3124,-3.3124,-3.3124,-3.3124,-3.3124,-3.3124,-3.3124,-3.3124,-3.3124,-3.3124,-3.3124,-3.3124,-3.3124,-3.3124,-3.3124,-3.3124,-3.3124,-3.3124,-3.3124,-3.3124,-3.3124,-3.3124,-3.3124,-3.3124,-3.3124,-3.3124,-3.3124,-3.3124,-3.3124,-3.3124,-4.3075,-4.314,-4.314,-4.314,-4.314,-4.314,-4.314,-4.314,-4.317,-4.3215,-4.3215,-4.3245,-4.329,-4.329,-4.329,-4.329,-4.3245,-4.3215,-4.3215,-4.3185,-4.2641,-4.1429,-4.1422,-4.1392,-4.1347,-4.1265,-4.1235,-4.1235,-4.1235,-4.1235,-4.1235,-4.1235,-4.1235,-4.1235,-4.1235,-4.0905,-4.0337,-4.0337,-3.9978,-3.9388,-3.9388,-3.9388,-3.9388,-3.9388,-3.9388,-3.9388,-3.9388,-3.8017,-3.6198,-3.6198,-3.4802,-3.3124,-3.3124,-3.3124,-3.3124,-3.3124,-3.3124,-3.3124,-3.3124,-3.3124,-3.3124,-3.3124,-3.3124,-3.3124,-3.3124,-3.3124,-3.3124,-3.3124,-3.3124,-3.3124,-3.3124,-3.3124,-3.3124,-3.3124,0.0,0.0,-3.3124,-3.3124,-3.3124,-3.3124,-3.3124,-3.3124,-3.3124,-3.3124,-3.3124,-3.3124,-3.3124,-3.3124,-3.3124,-3.3124,-3.3124,-3.3124,-3.3124,-3.3124,-3.3124,-3.3124,-3.3124,-3.3124,-3.3124,-3.3124,-3.3124,-3.3124,-3.3124,-3.3124,-3.3124,-3.3124,-3.3124,-3.3124,-3.3124,-3.3124,-3.3124,-3.3124,-3.3124,-3.3124,-3.3124,-3.3124,-4.3245,-4.329,-4.329,-4.329,-4.329,-4.329,-4.329,-4.329,-4.329,-4.329,-4.329,-4.329,-4.329,-4.329,-4.329,-4.329,-4.329,-4.329,-4.329,-4.329,-4.3065,-4.2611,-4.2207,-4.2036,-4.2036,-4.1632,-4.1422,-4.1422,-4.1422,-4.1422,-4.1422,-4.1422,-4.1422,-4.1422,-4.1422,-4.125,-4.101,-4.101,-4.0861,-4.0636,-4.0636,-4.0636,-4.0636,-4.0636,-4.0636,-4.0502,-3.9406,-3.8082,-3.6656,-3.5602,-3.4304,-3.3124,-3.3124,-3.3124,-3.3124,-3.3124,-3.3124,-3.3124,-3.3124,-3.3124,-3.3124,-3.3124,-3.3124,-3.3124,-3.3124,-3.3124,-3.3124,-3.3124,-3.3124,-3.3124,-3.3124,-3.3124,-3.3124,-3.3124,0.0,-3.3124,-3.3124,-3.3124,-3.3124,-3.3124,-3.3124,-3.3124,-3.3124,-3.3124,-3.3124,-3.3124,-3.3124,-3.3124,-3.3124,-3.3124,-3.3124,-3.3124,-3.3124,-3.3124,-3.3124,-3.3124,-3.3124,-3.3124,-3.3124,-3.3124,-3.3124,-3.3124,-3.3124,-3.3124,-3.3124,-3.3124,-3.3124,-3.3124,-3.3124,-3.3124,-3.3124,-3.3124,-3.3124,-3.3124,-3.3124,-3.3124,-4.329,-4.329,-4.329,-4.329,-4.329,-4.329,-4.329,-4.329,-4.329,-4.329,-4.329,-4.329,-4.329,-4.329,-4.329,-4.329,-4.329,-4.329,-4.329,-4.329,-4.329,-4.329,-4.2895,-4.2671,-4.2671,-4.2222,-4.1998,-4.1998,-4.1998,-4.1998,-4.1998,-4.1998,-4.1998,-4.1998,-4.1998,-4.1878,-4.1722,-4.1722,-4.1602,-4.1422,-4.1422,-4.1422,-4.1422,-4.1422,-4.1422,-4.1196,-3.963,-3.8368,-3.7249,-3.57,-3.4482,-3.3558,-3.3382,-3.3262,-3.3124,-3.3124,-3.3124,-3.3124,-3.3124,-3.3124,-3.3124,-3.3124,-3.3124,-3.3124,-3.3124,-3.3124,-3.3124,-3.3124,-3.3124,-3.3124,-3.3124,-3.3124,-3.3124,-3.3124,-3.3124,-3.3124,-3.3124,-3.3124,-3.3124,-3.3124,-3.3124,-3.3124,-3.3124,-3.3124,-3.3124,-3.3124,-3.3124,-3.3124,-3.3124,-3.3124,-3.3124,-3.3124,-3.3124,-3.3124,-3.3124,-3.3124,-3.3124,-3.3124,-3.3124,-3.3124,-3.3124,-3.3124,-3.3124,-3.3124,-3.3124,-3.3124,-3.3124,-3.3124,-3.3124,-3.3124,-3.3124,-3.3124,-3.3124,-3.3124,-3.3124,-3.3124,-4.329,-4.329,-4.329,-4.329,-4.329,-4.329,-4.329,-4.329,-4.329,-4.329,-4.329,-4.329,-4.329,-4.329,-4.329,-4.329,-4.329,-4.329,-4.329,-4.329,-4.329,-4.329,-4.329,-4.329,-4.329,-4.329,-4.329,-4.329,-4.329,-4.329,-4.329,-4.329,-4.329,-4.329,-4.329,-4.297,-4.241,-4.241,-4.2036,-4.1384,-4.1384,-4.1384,-4.1384,-4.1384,-4.1384,-4.127,-4.0046,-3.8965,-3.7924,-3.6681,-3.56,-3.4625,-3.4073,-3.3533,-3.3093,-3.3093,-3.3124,-3.3124,-3.3124,-3.3124,-3.3124,-3.3124,-3.3124,-3.3124,-3.3124,-3.3124,-3.3124,-3.3124,-3.3124,-3.3124,-3.3124,-3.3124,-3.3124,-3.3124,-3.3124,-3.3124,-3.3124,-3.3124,-3.3124,-3.3124,-3.3124,-3.3124,-3.3124,-3.3124,-3.3124,-3.3124,-3.3124,-3.3124,-3.3124,-3.3124,-3.3124,-3.3124,-3.3124,-3.3124,-3.3124,-3.3124,-3.3124,-3.3124,-3.3124,-3.3124,-3.3124,-3.3124,-3.3124,-3.3124,-3.3124,-3.3124,-3.3124,-3.3124,-3.3124,-3.3124,-3.3124,-3.3124,-3.3124,-3.3124,-3.3124,-3.3124,-4.329,-4.329,-4.329,-4.329,-4.329,-4.329,-4.329,-4.329,-4.329,-4.329,-4.329,-4.329,-4.329,-4.329,-4.329,-4.329,-4.329,-4.329,-4.329,-4.329,-4.329,-4.329,-4.329,-4.329,-4.329,-4.329,-4.329,-4.329,-4.329,-4.329,-4.329,-4.329,-4.329,-4.329,-4.329,-4.3185,-4.3045,-4.3045,-4.2925,-4.2746,-4.2746,-4.2746,-4.2746,-4.2746,-4.2746,-4.2436,-4.0018,-3.8978,-3.8361,-3.5981,-3.497,-3.4655,-3.4525,-3.4361,-3.4223,-3.4223,-3.396,-3.3658,-3.3658,-3.337,-3.3124,-3.3124,-3.3124,-3.3124,-3.3124,-3.3124,-3.3124,-3.3124,-3.3124,-3.3124,-3.3124,-3.3124,-3.3124,-3.3124,-3.3124,-3.3124,-3.3124,-3.3124,-3.3124,-3.3124,-3.3124,-3.3124,-3.3124,-3.3124,-3.3124,-3.3124,-3.3124,-3.3124,-3.3124,-3.3124,-3.3124,-3.3124,-3.3124,-3.3124,-3.3124,-3.3124,-3.3124,-3.3124,-3.3124,-3.3124,-3.3124,-3.3124,-3.3124,-3.3124,-3.3124,-3.3124,-3.3124,-3.3124,-3.3124,-3.3124,-3.3124,-3.3124,-3.3124,-3.3124,-3.3124,-3.3124,-4.329,-4.329,-4.329,-4.329,-4.329,-4.329,-4.329,-4.329,-4.329,-4.329,-4.329,-4.329,-4.329,-4.329,-4.329,-4.329,-4.29,-4.2426,-4.2003,-4.1961,-4.1961,-4.1961,-4.1961,-4.2386,-4.329,-4.329,-4.329,-4.329,-4.329,-4.329,-4.329,-4.329,-4.329,-4.329,-4.329,-4.329,-4.329,-4.329,-4.329,-4.329,-4.329,-4.329,-4.329,-4.329,-4.329,-4.3016,-4.0824,-3.9745,-3.902,-3.681,-3.5613,-3.5006,-3.5006,-3.4856,-3.468,-3.468,-3.4487,-3.4223,-3.4223,-3.3985,-3.3721,-3.3721,-3.3395,-3.3124,-3.3124,-3.3124,-3.3124,-3.3124,-3.3124,-3.3124,-3.3124,-3.3124,-3.3124,-3.3124,-3.3124,-3.3124,-3.3124,-3.3124,-3.3124,-3.3124,-3.3124,-3.3124,-3.3124,-3.3124,-3.3124,-3.3124,-3.3124,-3.3124,-3.3124,-3.3124,-3.3124,-3.3124,-3.3124,-3.3124,-3.3124,-3.3124,-3.3124,-3.3124,-3.3124,-3.3124,-3.3124,-3.3124,-3.3124,-3.3124,-3.3124,-3.3124,-3.3124,-3.3124,-3.3124,-3.3124,-3.3124,-3.3124,-3.3124,-3.3124,-3.3124,-3.3124,-4.329,-4.329,-4.329,-4.329,-4.329,-4.329,-4.329,-4.329,-4.329,-4.329,-4.329,-4.329,-4.329,-4.329,-4.329,-4.329,-4.2249,-4.1127,-3.9986,-3.9899,-3.9899,-3.9899,-3.9899,-4.0887,-4.2941,-4.3076,-4.3155,-4.3155,-4.325,-4.329,-4.329,-4.329,-4.329,-4.329,-4.329,-4.329,-4.329,-4.329,-4.329,-4.329,-4.329,-4.329,-4.329,-4.329,-4.325,-4.2981,-4.185,-4.0703,-3.9549,-3.8334,-3.6895,-3.5571,-3.5571,-3.5232,-3.4864,-3.4864,-3.4826,-3.4756,-3.4756,-3.4718,-3.468,-3.468,-3.3972,-3.3206,-3.3156,-3.3106,-3.3124,-3.3124,-3.3124,-3.3124,-3.3124,-3.3124,-3.3124,-3.3124,-3.3124,-3.3124,-3.3124,-3.3124,-3.3124,-3.3124,-3.3124,-3.3124,-3.3124,-3.3124,-3.3124,-3.3124,-3.3124,-3.3124,-3.3124,-3.3124,-3.3124,-3.3124,-3.3124,-3.3124,-3.3124,-3.3124,-3.3124,-3.3124,-3.3124,-3.3124,-3.3124,-3.3124,-3.3124,-3.3124,-3.3124,-3.3124,-3.3124,-3.3124,-3.3124,-3.3124,-3.3124,-3.3124,-3.3124,-3.3124,-3.3124,-3.3124,-4.329,-4.329,-4.329,-4.329,-4.329,-4.329,-4.329,-4.329,-4.329,-4.329,-4.329,-4.329,-4.329,-4.329,-4.329,-4.329,-4.2249,-4.1127,-3.9986,-3.9899,-3.9899,-3.9899,-3.9899,-4.0116,-4.0632,-4.1518,-4.1988,-4.1988,-4.286,-4.329,-4.329,-4.329,-4.329,-4.329,-4.329,-4.329,-4.329,-4.329,-4.329,-4.329,-4.329,-4.329,-4.329,-4.329,-4.2765,-4.1809,-4.0661,-3.9478,-3.8289,-3.715,-3.6505,-3.6182,-3.6182,-3.6153,-3.6053,-3.6053,-3.5705,-3.532,-3.532,-3.5006,-3.468,-3.468,-3.455,-3.4248,-3.3822,-3.3382,-3.3124,-3.3124,-3.3124,-3.3124,-3.3124,-3.3124,-3.3124,-3.3124,-3.3124,-3.3124,-3.3124,-3.3124,-3.3124,-3.3124,-3.3124,-3.3124,-3.3124,-3.3124,-3.3124,-3.3124,-3.3124,-3.3124,-3.3124,-3.3124,-3.3124,-3.3124,-3.3124,-3.3124,-3.3124,-3.3124,-3.3124,-3.3124,-3.3124,-3.3124,-3.3124,-3.3124,-3.3124,-3.3124,-3.3124,-3.3124,-3.3124,-3.3124,-3.3124,-3.3124,-3.3124,-3.3124,-3.3124,-3.3124,-3.3124,-3.3124,-4.329,-4.329,-4.329,-4.329,-4.329,-4.329,-4.329,-4.329,-4.329,-4.329,-4.329,-4.329,-4.329,-4.329,-4.286,-4.1782,-4.0604,-3.9464,-3.8315,-3.8225,-3.8225,-3.8225,-3.8225,-3.8225,-3.8225,-3.9332,-4.0204,-4.0788,-4.1393,-4.1961,-4.2508,-4.2508,-4.2765,-4.329,-4.329,-4.329,-4.329,-4.329,-4.329,-4.329,-4.329,-4.329,-4.325,-4.2684,-4.2111,-4.1462,-4.0332,-3.9139,-3.7939,-3.6803,-3.6405,-3.6405,-3.6405,-3.6405,-3.6405,-3.6405,-3.6157,-3.5931,-3.5931,-3.5717,-3.5504,-3.5504,-3.5303,-3.4919,-3.4412,-3.4073,-3.3859,-3.3859,-3.3859,-3.3784,-3.352,-3.347,-3.3382,-3.3162,-3.3124,-3.3124,-3.3124,-3.3124,-3.3124,-3.3124,-3.3124,-3.3124,-3.3124,-3.3124,-3.3124,-3.3124,-3.3124,-3.3124,-3.3124,-3.3124,-3.3124,-3.3124,-3.3124,-3.3124,-3.3124,-3.3124,-3.3124,-3.3124,-3.3124,-3.3124,-3.3124,-3.3124,-3.3124,-3.3124,-3.3124,-3.3124,-3.3124,-3.3124,-3.3124,-3.3124,-3.3124,-3.3124,-3.3124,-3.3124,-3.3124,-3.3124,-4.329,-4.329,-4.329,-4.329,-4.329,-4.329,-4.329,-4.329,-4.329,-4.329,-4.329,-4.329,-4.329,-4.3115,-4.2167,-4.0073,-3.8783,-3.7632,-3.6452,-3.6405,-3.6499,-3.6675,-3.6499,-3.6499,-3.6675,-3.7505,-3.8485,-3.9579,-3.9972,-4.0661,-4.1587,-4.1809,-4.2371,-4.329,-4.329,-4.329,-4.329,-4.329,-4.329,-4.329,-4.329,-4.329,-4.321,-4.2249,-4.1767,-4.1462,-4.0332,-3.9006,-3.7678,-3.6709,-3.6405,-3.6405,-3.6405,-3.6405,-3.6405,-3.6405,-3.6405,-3.6405,-3.6405,-3.6405,-3.6405,-3.6405,-3.6019,-3.552,-3.5102,-3.4864,-3.468,-3.468,-3.468,-3.4575,-3.4123,-3.4035,-3.3884,-3.3432,-3.3357,-3.3319,-3.3232,-3.3262,-3.3181,-3.3124,-3.3124,-3.3124,-3.3124,-3.3124,-3.3124,-3.3124,-3.3124,-3.3124,-3.3124,-3.3124,-3.3124,-3.3124,-3.3124,-3.3124,-3.3124,-3.3124,-3.3124,-3.3124,-3.3124,-3.3124,-3.3124,-3.3124,-3.3124,-3.3124,-3.3124,-3.3124,-3.3124,-3.3124,-3.3124,-3.3124,-3.3124,-3.3124,-3.3124,-3.3124,-3.3124,-3.3124,-4.329,-4.329,-4.329,-4.329,-4.329,-4.329,-4.329,-4.329,-4.329,-4.329,-4.329,-4.329,-4.329,-4.2412,-4.1295,-4.0029,-3.8783,-3.7632,-3.6452,-3.6405,-3.6849,-3.7848,-3.693,-3.6849,-3.7848,-3.7497,-3.7638,-3.8334,-4.0376,-4.1462,-4.1629,-4.2589,-4.3155,-4.329,-4.329,-4.329,-4.329,-4.329,-4.329,-4.329,-4.329,-4.329,-4.329,-4.3115,-4.2467,-4.1462,-4.0332,-3.8482,-3.6628,-3.6452,-3.6405,-3.6405,-3.6405,-3.6405,-3.6405,-3.6405,-3.6405,-3.6405,-3.6405,-3.6405,-3.6405,-3.6405,-3.6355,-3.6279,-3.6204,-3.5403,-3.468,-3.468,-3.468,-3.47,-3.4625,-3.4613,-3.4587,-3.4512,-3.45,-3.4336,-3.3859,-3.3784,-3.3608,-3.3174,-3.3124,-3.3124,-3.3124,-3.3124,-3.3124,-3.3124,-3.3124,-3.3124,-3.3124,-3.3124,-3.3124,-3.3124,-3.3124,-3.3124,-3.3124,-3.3124,-3.3124,-3.3124,-3.3124,-3.3124,-3.3124,-3.3124,-3.3124,-3.3124,-3.3124,-3.3124,-3.3124,-3.3124,-3.3124,-3.3124,-3.3124,-3.3124,-3.3124,-3.3124,-3.3124,-3.3124,-4.329,-4.329,-4.329,-4.329,-4.329,-4.329,-4.329,-4.329,-4.329,-4.329,-4.329,-4.329,-4.329,-4.229,-4.1127,-3.9986,-3.8783,-3.7632,-3.6452,-3.7352,-3.78,-3.7625,-3.8773,-3.9336,-3.9117,-3.9542,-3.9913,-4.0192,-4.0494,-4.0999,-4.1688,-4.2894,-4.3414,-4.3357,-4.3357,-4.3357,-4.3357,-4.3357,-4.3761,-4.4421,-4.4421,-4.4421,-4.434,-4.3693,-4.3162,-4.2496,-4.0566,-3.921,-3.8226,-3.7197,-3.687,-3.6807,-3.6505,-3.6405,-3.6405,-3.6405,-3.6405,-3.6405,-3.6405,-3.6405,-3.6405,-3.6405,-3.6405,-3.6405,-3.6405,-3.6028,-3.5642,-3.5642,-3.5642,-3.5542,-3.5194,-3.5144,-3.5044,-3.4731,-3.468,-3.4638,-3.4399,-3.4361,-3.4274,-3.4022,-3.3721,-3.3533,-3.3533,-3.3257,-3.3124,-3.3124,-3.3124,-3.3124,-3.3124,-3.3124,-3.3124,-3.3124,-3.3124,-3.3124,-3.3124,-3.3124,-3.3124,-3.3124,-3.3124,-3.3124,-3.3124,-3.3124,-3.3124,-3.3124,-3.3124,-3.3124,-3.3124,-3.3124,-3.3124,-3.3124,-3.3124,-3.3124,-3.3124,-3.3124,-3.3124,-3.3124]},{"header":{"parameterUnit":"m.s-1","parameterCategory":1,"la1":30.6,"la2":28.766,"lo1":-90.7593,"lo2":-88.6598,"dy":0.0162,"dx":0.0183,"nx":116,"ny":114,"refTime":"2024-04-26T12:00:00:Z","depth":0,"parameterNumber":3,"parameterNumberName":"V-component_of_WINDS"},"data":[0.0,0.0,0.0,0.0,0.0,0.0,0.0,0.0,0.0,0.0,0.0,0.0,0.0,0.0,0.0,0.0,0.0,0.0,0.0,0.0,0.0,0.0,0.0,0.0,0.0,0.0,0.0,0.0,0.0,0.0,0.0,0.0,0.0,0.0,0.0,0.0,0.0,0.0,0.0,0.0,0.0,0.0,0.0,0.0,0.0,0.0,0.0,0.0,0.0,0.0,0.0,0.0,0.0,0.0,0.0,0.0,0.0,0.0,0.0,0.0,0.0,0.0,0.0,0.0,0.0,0.0,0.0,0.0,0.0,0.0,0.0,0.0,0.0,0.0,0.0,0.0,0.0,0.0,0.0,0.0,0.0,0.0,0.0,0.0,0.0,0.0,0.0,0.0,0.0,0.0,0.0,0.0,0.0,0.0,0.0,0.0,0.0,0.0,0.0,0.0,0.0,0.0,0.0,0.0,0.0,0.0,0.0,0.0,0.0,0.0,0.0,0.0,0.0,0.0,0.0,0.0,0.0,0.0,0.0,0.0,0.0,0.0,0.0,0.0,0.0,0.0,0.0,0.0,0.0,0.0,0.0,0.0,0.0,0.0,0.0,0.0,0.0,0.0,0.0,0.0,0.0,0.0,0.0,0.0,0.0,0.0,0.0,0.0,0.0,0.0,0.0,0.0,0.0,0.0,0.0,0.0,0.0,0.0,0.0,0.0,0.0,0.0,0.0,0.0,0.0,0.0,0.0,0.0,0.0,0.0,0.0,0.0,0.0,0.0,0.0,0.0,0.0,0.0,0.0,0.0,0.0,0.0,0.0,0.0,0.0,0.0,0.0,0.0,0.0,0.0,0.0,0.0,0.0,0.0,0.0,0.0,0.0,0.0,0.0,0.0,0.0,0.0,0.0,0.0,0.0,0.0,0.0,0.0,0.0,0.0,0.0,0.0,0.0,0.0,0.0,0.0,0.0,0.0,0.0,0.0,0.0,0.0,0.0,0.0,0.0,0.0,0.0,0.0,0.0,0.0,0.0,0.0,0.0,0.0,0.0,0.0,0.0,0.0,0.0,0.0,0.0,0.0,0.0,0.0,0.0,0.0,0.0,0.0,0.0,0.0,0.0,0.0,0.0,0.0,0.0,0.0,0.0,0.0,0.0,0.0,0.0,0.0,0.0,0.0,0.0,0.0,0.0,0.0,0.0,0.0,0.0,0.0,0.0,0.0,0.0,0.0,0.0,0.0,0.0,0.0,0.0,0.0,0.0,0.0,0.0,0.0,0.0,0.0,0.0,0.0,0.0,0.0,0.0,0.0,0.0,0.0,0.0,0.0,0.0,0.0,0.0,0.0,0.0,0.0,0.0,0.0,0.0,0.0,0.0,0.0,0.0,0.0,0.0,0.0,0.0,0.0,0.0,0.0,0.0,0.0,0.0,0.0,0.0,0.0,0.0,0.0,0.0,0.0,0.0,0.0,0.0,0.0,0.0,0.0,0.0,0.0,0.0,0.0,0.0,0.0,0.0,0.0,0.0,0.0,0.0,0.0,0.0,0.0,0.0,0.0,0.0,0.0,0.0,0.0,0.0,0.0,0.0,0.0,0.0,0.0,0.0,0.0,0.0,0.0,0.0,0.0,0.0,0.0,0.0,0.0,0.0,0.0,0.0,0.0,0.0,0.0,0.0,0.0,0.0,0.0,0.0,0.0,0.0,0.0,0.0,0.0,0.0,0.0,0.0,0.0,0.0,0.0,0.0,0.0,0.0,0.0,0.0,0.0,0.0,0.0,0.0,0.0,0.0,0.0,0.0,0.0,0.0,0.0,0.0,0.0,0.0,0.0,0.0,0.0,0.0,0.0,0.0,0.0,0.0,0.0,0.0,0.0,0.0,0.0,0.0,0.0,0.0,0.0,0.0,0.0,0.0,0.0,0.0,0.0,0.0,0.0,0.0,0.0,0.0,0.0,0.0,0.0,0.0,0.0,0.0,0.0,0.0,0.0,0.0,0.0,0.0,0.0,0.0,0.0,0.0,0.0,0.0,0.0,0.0,0.0,0.0,0.0,0.0,0.0,0.0,0.0,0.0,0.0,0.0,0.0,0.0,0.0,0.0,0.0,0.0,0.0,0.0,0.0,0.0,0.0,0.0,0.0,0.0,0.0,0.0,0.0,0.0,0.0,0.0,0.0,0.0,0.0,0.0,0.0,0.0,0.0,0.0,0.0,0.0,0.0,0.0,0.0,0.0,0.0,0.0,0.0,0.0,0.0,0.0,0.0,0.0,0.0,0.0,0.0,0.0,0.0,0.0,0.0,0.0,0.0,0.0,0.0,0.0,0.0,0.0,0.0,0.0,0.0,0.0,0.0,0.0,0.0,0.0,0.0,0.0,0.0,0.0,0.0,0.0,0.0,0.0,0.0,0.0,0.0,0.0,0.0,0.0,0.0,0.0,0.0,0.0,0.0,0.0,0.0,0.0,0.0,0.0,0.0,0.0,0.0,0.0,0.0,0.0,0.0,0.0,0.0,0.0,0.0,0.0,0.0,0.0,0.0,0.0,0.0,0.0,0.0,0.0,0.0,0.0,0.0,0.0,0.0,0.0,0.0,0.0,0.0,0.0,0.0,0.0,0.0,0.0,0.0,0.0,0.0,0.0,0.0,0.0,0.0,0.0,0.0,0.0,0.0,0.0,0.0,0.0,0.0,0.0,0.0,0.0,0.0,0.0,0.0,0.0,0.0,0.0,0.0,0.0,0.0,0.0,0.0,0.0,0.0,0.0,0.0,0.0,0.0,0.0,0.0,0.0,0.0,0.0,0.0,0.0,0.0,0.0,0.0,0.0,0.0,0.0,0.0,0.0,0.0,0.0,0.0,0.0,0.0,0.0,0.0,0.0,0.0,0.0,0.0,0.0,0.0,0.0,0.0,0.0,0.0,0.0,0.0,0.0,0.0,0.0,0.0,0.0,0.0,0.0,0.0,0.0,0.0,0.0,0.0,0.0,0.0,0.0,0.0,0.0,0.0,0.0,0.0,0.0,0.0,0.0,0.0,0.0,0.0,0.0,0.0,0.0,0.0,0.0,0.0,0.0,0.0,0.0,0.0,0.0,0.0,0.0,0.0,0.0,0.0,0.0,0.0,0.0,0.0,0.0,0.0,0.0,0.0,0.0,0.0,0.0,0.0,0.0,0.0,0.0,0.0,0.0,0.0,0.0,0.0,0.0,0.0,0.0,0.0,0.0,0.0,0.0,0.0,0.0,0.0,0.0,0.0,0.0,0.0,0.0,0.0,0.0,0.0,0.0,0.0,0.0,0.0,0.0,0.0,0.0,0.0,0.0,0.0,0.0,0.0,0.0,0.0,0.0,0.0,0.0,0.0,0.0,0.0,0.0,0.0,0.0,0.0,0.0,0.0,0.0,0.0,0.0,0.0,0.0,0.0,0.0,0.0,0.0,0.0,0.0,0.0,0.0,0.0,0.0,0.0,0.0,0.0,0.0,0.0,0.0,0.0,0.0,0.0,0.0,0.0,0.0,0.0,0.0,0.0,0.0,0.0,0.0,0.0,0.0,0.0,0.0,0.0,0.0,0.0,0.0,0.0,0.0,0.0,0.0,0.0,0.0,0.0,0.0,0.0,0.0,0.0,0.0,0.0,0.0,0.0,0.0,0.0,0.0,0.0,0.0,0.0,0.0,0.0,0.0,0.0,0.0,0.0,0.0,0.0,0.0,0.0,0.0,0.0,0.0,0.0,0.0,0.0,0.0,0.0,0.0,0.0,0.0,0.0,0.0,0.0,0.0,0.0,0.0,0.0,0.0,0.0,0.0,0.0,0.0,0.0,0.0,0.0,0.0,0.0,0.0,0.0,0.0,0.0,0.0,0.0,0.0,0.0,0.0,0.0,0.0,0.0,0.0,0.0,0.0,0.0,0.0,0.0,0.0,0.0,0.0,0.0,0.0,0.0,0.0,0.0,0.0,0.0,0.0,0.0,0.0,0.0,0.0,0.0,0.0,0.0,0.0,0.0,0.0,0.0,0.0,0.0,0.0,0.0,0.0,0.0,0.0,0.0,0.0,0.0,0.0,0.0,0.0,0.0,0.0,0.0,0.0,0.0,0.0,0.0,0.0,0.0,0.0,0.0,0.0,0.0,0.0,0.0,0.0,0.0,0.0,0.0,0.0,0.0,0.0,0.0,0.0,0.0,0.0,0.0,0.0,0.0,0.0,0.0,0.0,0.0,0.0,0.0,0.0,0.0,0.0,0.0,0.0,0.0,0.0,0.0,0.0,0.0,0.0,0.0,0.0,0.0,0.0,0.0,0.0,0.0,0.0,0.0,0.0,0.0,0.0,0.0,0.0,0.0,0.0,0.0,0.0,0.0,0.0,0.0,0.0,0.0,0.0,0.0,0.0,0.0,0.0,0.0,0.0,0.0,0.0,0.0,0.0,0.0,0.0,0.0,0.0,0.0,0.0,0.0,0.0,0.0,0.0,0.0,0.0,0.0,0.0,0.0,0.0,0.0,0.0,0.0,0.0,0.0,0.0,0.0,0.0,0.0,0.0,0.0,0.0,0.0,0.0,0.0,0.0,0.0,0.0,0.0,0.0,0.0,0.0,0.0,0.0,0.0,0.0,0.0,0.0,0.0,0.0,0.0,0.0,0.0,0.0,0.0,0.0,0.0,0.0,0.0,0.0,0.0,0.0,0.0,0.0,0.0,0.0,0.0,0.0,0.0,0.0,0.0,0.0,0.0,0.0,0.0,0.0,0.0,0.0,0.0,0.0,0.0,0.0,0.0,0.0,0.0,0.0,0.0,0.0,0.0,0.0,0.0,0.0,0.0,0.0,0.0,0.0,0.0,0.0,0.0,0.0,0.0,0.0,0.0,0.0,0.0,0.0,0.0,0.0,0.0,0.0,0.0,0.0,0.0,0.0,0.0,0.0,0.0,0.0,0.0,0.0,0.0,0.0,0.0,0.0,0.0,0.0,0.0,0.0,0.0,0.0,0.0,0.0,0.0,0.0,0.0,0.0,0.0,0.0,0.0,0.0,0.0,0.0,0.0,0.0,0.0,0.0,0.0,0.0,0.0,0.0,0.0,0.0,0.0,0.0,0.0,0.0,0.0,0.0,0.0,0.0,0.0,0.0,0.0,0.0,0.0,0.0,0.0,0.0,0.0,0.0,0.0,0.0,0.0,0.0,0.0,0.0,0.0,0.0,0.0,0.0,0.0,0.0,0.0,0.0,0.0,0.0,0.0,0.0,0.0,0.0,0.0,0.0,0.0,0.0,0.0,0.0,0.0,0.0,0.0,0.0,0.0,0.0,0.0,0.0,0.0,0.0,0.0,0.0,0.0,0.0,0.0,0.0,0.0,0.0,0.0,0.0,0.0,0.0,0.0,0.0,0.0,0.0,0.0,0.0,0.0,0.0,0.0,0.0,0.0,0.0,0.0,0.0,0.0,0.0,0.0,0.0,0.0,0.0,0.0,0.0,0.0,0.0,0.0,0.0,0.0,0.0,0.0,0.0,0.0,0.0,0.0,0.0,0.0,0.0,0.0,0.0,0.0,0.0,0.0,0.0,0.0,0.0,0.0,0.0,0.0,0.0,0.0,0.0,0.0,0.0,0.0,0.0,0.0,0.0,0.0,0.0,0.0,0.0,0.0,0.0,0.0,0.0,0.0,0.0,0.0,0.0,0.0,0.0,0.0,0.0,0.0,0.0,0.0,0.0,0.0,0.0,0.0,0.0,0.0,0.0,0.0,0.0,0.0,0.0,0.0,0.0,0.0,0.0,0.0,0.0,0.0,0.0,0.0,0.0,0.0,0.0,0.0,0.0,0.0,0.0,0.0,0.0,0.0,0.0,0.0,0.0,0.0,0.0,0.0,0.0,0.0,0.0,0.0,0.0,0.0,0.0,0.0,0.0,0.0,0.0,0.0,0.0,0.0,0.0,0.0,0.0,0.0,0.0,0.0,0.0,0.0,0.0,0.0,0.0,0.0,0.0,0.0,0.0,0.0,0.0,0.0,0.0,0.0,0.0,0.0,0.0,0.0,0.0,0.0,0.0,0.0,0.0,0.0,0.0,0.0,0.0,0.0,0.0,0.0,0.0,0.0,0.0,0.0,0.0,0.0,1.4817,0.0,0.0,0.0,0.0,0.0,0.0,0.0,0.0,0.0,0.0,0.0,0.0,0.0,0.0,0.0,0.0,0.0,0.0,0.0,0.0,0.0,0.0,0.0,0.0,1.998,1.979,1.979,2.0097,2.0274,2.0274,0.0,0.0,0.0,0.0,0.0,2.2193,2.2216,2.2216,2.2216,2.2216,2.2053,2.172,2.2944,2.3695,2.4008,0.0,0.0,0.0,0.0,0.0,0.0,0.0,0.0,0.0,0.0,0.0,0.0,0.0,0.0,0.0,0.0,0.0,0.0,0.0,0.0,0.0,0.0,0.0,0.0,0.0,0.0,0.0,0.0,0.0,0.0,0.0,0.0,0.0,0.0,0.0,0.0,0.0,0.0,0.0,0.0,0.0,0.0,0.0,0.0,0.0,0.0,0.0,0.0,0.0,0.0,0.0,0.0,0.0,0.0,0.0,0.0,0.0,0.0,0.0,0.0,0.0,0.0,0.0,0.0,0.0,0.0,0.0,0.0,0.0,0.0,0.0,1.4326,0.0,0.0,0.0,0.0,0.0,0.0,0.0,0.0,0.0,0.0,0.0,0.0,0.0,0.0,0.0,0.0,0.0,0.0,0.0,0.0,0.0,2.0635,2.0635,2.0131,1.9798,1.9798,2.0295,2.0635,2.0635,2.1099,0.0,0.0,2.1363,2.1411,2.1544,2.1544,2.1544,2.1544,2.1424,2.1363,2.1363,2.1363,2.1724,2.2374,2.2475,0.0,0.0,0.0,0.0,0.0,0.0,0.0,0.0,0.0,0.0,0.0,0.0,0.0,0.0,0.0,0.0,0.0,0.0,0.0,0.0,0.0,0.0,0.0,0.0,0.0,0.0,0.0,0.0,0.0,0.0,0.0,0.0,0.0,0.0,0.0,0.0,0.0,0.0,0.0,0.0,0.0,0.0,0.0,0.0,0.0,0.0,0.0,0.0,0.0,0.0,0.0,0.0,0.0,0.0,0.0,0.0,0.0,0.0,0.0,0.0,0.0,0.0,0.0,1.3995,1.3575,1.2795,1.2795,1.2704,1.2581,1.2581,1.3213,1.4204,1.4353,0.0,0.0,0.0,0.0,0.0,0.0,0.0,0.0,0.0,0.0,0.0,0.0,0.0,0.0,0.0,0.0,0.0,0.0,0.0,1.9927,1.9927,1.985,1.9798,1.9798,1.9875,1.9927,1.9927,2.0016,2.0042,2.0042,2.0042,2.0308,2.0919,2.0919,2.0919,2.0919,2.0333,2.0042,2.0042,2.0042,2.0421,2.1077,2.1605,2.1875,2.1955,0.0,0.0,0.0,0.0,0.0,0.0,0.0,0.0,0.0,0.0,0.0,0.0,0.0,0.0,0.0,0.0,0.0,0.0,0.0,0.0,0.0,0.0,0.0,0.0,0.0,0.0,0.0,0.0,0.0,0.0,0.0,0.0,0.0,0.0,0.0,0.0,0.0,0.0,0.0,0.0,0.0,1.7715,1.7605,0.0,0.0,0.0,0.0,0.0,0.0,0.0,0.0,0.0,0.0,0.0,0.0,0.0,1.461,1.4501,1.4501,1.4055,1.3161,1.3161,1.2726,1.195,1.195,1.1593,1.0926,1.0926,0.0,1.4234,1.4962,0.0,0.0,0.0,0.0,0.0,0.0,0.0,0.0,0.0,0.0,0.0,0.0,0.0,0.0,0.0,0.0,0.0,0.0,0.0,0.0,0.0,1.9798,1.9798,1.9798,1.9798,1.9798,1.9798,1.9798,1.9798,1.9798,1.9798,1.9927,2.022,2.0232,2.0232,2.0232,1.9952,1.9798,1.9798,1.9798,1.9952,2.0245,2.0521,2.1037,2.1697,2.1697,0.0,0.0,0.0,0.0,0.0,0.0,0.0,0.0,0.0,0.0,0.0,0.0,0.0,0.0,0.0,0.0,0.0,0.0,0.0,0.0,0.0,0.0,0.0,0.0,0.0,0.0,0.0,0.0,0.0,0.0,0.0,0.0,0.0,0.0,0.0,0.0,0.0,0.0,0.0,1.744,1.6838,1.6415,1.6083,1.5892,0.0,0.0,0.0,0.0,0.0,0.0,0.0,0.0,0.0,1.4024,1.4024,1.4024,1.4024,1.4024,1.3611,1.2826,1.2826,1.2397,1.1589,1.1589,1.1392,1.1082,1.157,1.2373,1.3364,1.3372,1.3657,1.4055,0.0,0.0,0.0,0.0,1.5021,1.5439,0.0,0.0,0.0,0.0,0.0,0.0,0.0,0.0,0.0,0.0,0.0,0.0,1.9798,1.9798,1.9798,1.9798,1.9798,1.9798,1.9798,1.9798,1.9798,1.9798,1.9798,1.9798,1.9798,1.9798,1.9798,1.9798,1.9798,1.9798,1.9798,1.9962,2.0024,2.0024,2.0175,2.0604,2.1207,2.1207,2.1207,2.1245,0.0,0.0,0.0,0.0,0.0,0.0,0.0,0.0,0.0,0.0,0.0,0.0,0.0,0.0,0.0,0.0,0.0,0.0,0.0,0.0,0.0,0.0,0.0,0.0,0.0,0.0,0.0,0.0,0.0,0.0,0.0,0.0,0.0,0.0,0.0,0.0,0.0,1.6669,1.6048,1.5625,1.5576,1.5527,0.0,0.0,0.0,0.0,0.0,0.0,1.3619,1.3594,1.3594,1.3594,1.3594,1.3594,1.3594,1.3594,1.3168,1.2376,1.2376,1.2037,1.1389,1.1389,1.1389,1.143,1.2071,1.2376,1.2374,1.2357,1.2837,1.3583,1.349,1.3943,1.4657,1.4547,1.4903,1.541,0.0,0.0,0.0,0.0,0.0,0.0,0.0,0.0,0.0,0.0,0.0,1.9798,1.9798,1.9798,1.9798,1.9798,1.9798,1.9798,1.9798,1.9798,1.9798,1.9798,1.9798,1.9798,1.9798,1.9798,1.9798,1.9798,1.9798,1.9798,1.9811,2.039,2.0641,2.0679,2.1207,2.0857,1.9901,1.9901,1.9901,1.999,2.1133,0.0,0.0,0.0,0.0,0.0,0.0,0.0,0.0,0.0,0.0,0.0,0.0,0.0,0.0,0.0,0.0,0.0,0.0,0.0,0.0,0.0,0.0,0.0,0.0,0.0,0.0,0.0,0.0,0.0,0.0,0.0,0.0,0.0,0.0,0.0,0.0,0.0,0.0,1.6016,1.6056,0.0,0.0,0.0,0.0,1.4024,1.3925,1.3578,1.2815,1.2747,1.2747,1.2747,1.2747,1.2747,1.2747,1.2747,1.2308,1.1457,1.1457,1.1423,1.1389,1.1389,1.1389,1.1389,1.1457,1.1457,1.1587,1.3155,1.4351,1.5158,1.476,1.5182,1.5946,1.5508,1.5381,1.541,0.0,0.0,0.0,0.0,0.0,2.2725,2.1852,2.1366,2.0794,1.9927,1.9798,1.9798,1.9798,1.9798,1.9798,1.9798,1.9798,1.9798,1.9798,1.9798,1.9798,1.9798,1.9798,1.9798,1.9798,1.9798,1.9798,1.9798,2.0201,2.0377,2.0402,2.0955,2.1219,2.1232,2.1393,2.1255,2.0891,2.0891,2.0891,2.093,2.1364,2.1753,0.0,0.0,0.0,0.0,0.0,0.0,0.0,0.0,0.0,0.0,0.0,0.0,0.0,0.0,0.0,0.0,0.0,0.0,0.0,0.0,0.0,0.0,0.0,0.0,0.0,0.0,0.0,0.0,0.0,0.0,0.0,0.0,0.0,0.0,0.0,0.0,0.0,1.5644,1.5599,0.0,1.5312,1.4737,1.438,1.4277,1.3724,1.3108,1.2478,1.2457,1.2457,1.2457,1.2457,1.2457,1.2457,1.2457,1.2278,1.1991,1.1991,1.1991,1.1991,1.1991,1.1991,1.1991,1.1991,1.1991,1.2027,1.2621,1.2828,1.277,1.2624,1.3107,1.3949,1.4415,1.4908,1.5408,0.0,0.0,0.0,2.3595,2.3098,2.2475,2.1805,2.1186,2.0547,1.9901,1.9798,1.9798,1.9798,1.9798,1.9798,1.9798,1.9798,1.9798,1.9798,1.9798,1.9798,1.9798,1.9798,1.9798,1.9798,1.9987,2.0087,2.0087,2.0691,2.0968,2.0981,2.1506,2.1769,2.1782,2.1958,2.2046,2.2046,2.2046,2.1832,2.1506,2.1694,2.1998,2.2306,0.0,0.0,0.0,0.0,0.0,0.0,0.0,0.0,0.0,0.0,0.0,0.0,0.0,0.0,0.0,0.0,0.0,0.0,0.0,0.0,0.0,0.0,0.0,0.0,0.0,0.0,0.0,0.0,0.0,0.0,0.0,0.0,0.0,0.0,0.0,1.6523,1.6049,1.5724,1.5432,1.5267,1.4411,1.3799,1.3773,1.3176,1.2669,1.2328,1.2305,1.2305,1.2305,1.2305,1.2305,1.2305,1.2305,1.2305,1.2305,1.2305,1.2305,1.2305,1.2305,1.2305,1.2305,1.2305,1.2305,1.2305,1.2305,1.2071,1.171,1.1888,1.2726,1.3787,1.3966,1.4378,1.4932,0.0,2.3964,2.3595,2.3595,2.3076,2.2452,2.1805,2.1161,2.0535,1.9901,1.9798,1.9798,1.9798,1.9798,1.9798,1.9798,1.9798,1.9798,1.9798,1.9798,1.9798,1.9798,1.9798,1.9811,1.9823,2.0402,2.0704,2.0717,2.127,2.1506,2.1531,2.2083,2.2305,2.2359,2.2869,2.3108,2.3108,2.3108,2.2493,2.1594,2.2121,2.2305,2.2305,0.0,0.0,0.0,0.0,0.0,0.0,0.0,0.0,0.0,0.0,0.0,0.0,0.0,0.0,0.0,0.0,0.0,0.0,0.0,0.0,0.0,0.0,0.0,0.0,0.0,0.0,0.0,0.0,0.0,0.0,0.0,0.0,0.0,1.6785,1.6726,1.6892,1.7288,1.6485,1.5693,1.5201,1.4243,1.328,1.2409,1.2335,1.2305,1.2305,1.2305,1.2305,1.2305,1.2305,1.2305,1.2305,1.2305,1.2305,1.2305,1.2305,1.2305,1.2318,1.2318,1.2318,1.2318,1.2318,1.2311,1.2305,1.2305,1.2335,1.2382,1.2877,1.4196,1.5634,1.4413,1.3958,1.3991,2.3815,2.3702,2.3595,2.3595,2.2711,2.1899,2.172,2.0781,2.0003,1.9824,1.9798,1.9798,1.9798,1.9798,1.9798,1.9798,1.9798,1.9798,1.9798,1.9798,1.9798,1.9798,1.9798,1.9999,2.044,2.0616,2.0893,2.1295,2.182,2.2083,2.2096,2.2619,2.2882,2.2882,2.3032,2.3108,2.3108,2.3108,2.2932,2.2669,2.2819,2.2882,2.2882,0.0,0.0,0.0,0.0,0.0,0.0,0.0,0.0,0.0,0.0,0.0,0.0,0.0,0.0,0.0,0.0,0.0,0.0,0.0,0.0,0.0,0.0,0.0,0.0,0.0,0.0,0.0,0.0,0.0,0.0,0.0,0.0,1.7686,1.7266,1.7471,1.7172,1.5956,1.5574,1.5047,1.4199,1.3237,1.2842,1.3273,1.2666,1.2305,1.2305,1.2305,1.2305,1.2305,1.2305,1.2305,1.2305,1.2305,1.2305,1.2305,1.2305,1.2418,1.2663,1.2663,1.2663,1.2663,1.2663,1.2536,1.2305,1.2305,1.2703,1.3266,1.2715,1.2854,1.3402,1.4444,1.5282,1.5764,2.4266,2.3921,2.3595,2.3595,2.2778,2.2123,2.2123,2.1026,2.022,2.022,1.9978,1.9798,1.9798,1.9798,1.9798,1.9798,1.9798,1.9798,1.9798,1.9798,1.9798,1.9798,2.0037,2.0352,2.0679,2.1144,2.1506,2.1832,2.2355,2.2631,2.2631,2.2957,2.3108,2.3108,2.3108,2.3108,2.3108,2.3108,2.3108,2.3108,2.3108,2.3108,2.3108,2.3108,2.3108,2.3108,2.3108,2.2895,2.2631,2.2631,0.0,0.0,0.0,0.0,0.0,0.0,0.0,0.0,0.0,0.0,0.0,0.0,0.0,0.0,0.0,0.0,0.0,0.0,0.0,0.0,0.0,0.0,0.0,0.0,1.8337,1.793,1.7676,1.7494,1.7001,1.5904,1.5057,1.435,1.3745,1.2842,1.2519,1.3062,1.2629,1.2305,1.2305,1.2305,1.2358,1.2522,1.2522,1.2552,1.2679,1.2685,1.2685,1.2685,1.2685,1.2772,1.2978,1.2978,1.2978,1.2978,1.2978,1.2846,1.2685,1.2685,1.302,0.0,0.0,0.0,0.0,0.0,1.4335,1.4791,2.5128,2.4348,2.3681,2.3595,2.3098,2.2694,2.2694,2.168,2.0894,2.0795,2.0283,1.9875,1.9798,1.9798,1.9798,1.9798,1.9798,1.9798,1.9798,1.9798,1.9823,1.9899,2.0415,2.0754,2.088,2.1807,2.2347,2.2397,2.2869,2.3108,2.3108,2.3108,2.3108,2.3108,2.3108,2.3108,2.3108,2.3108,2.3108,2.3108,2.3108,2.3108,2.3108,2.3108,2.3108,2.3108,2.3108,2.3108,2.3108,2.3108,0.0,0.0,0.0,0.0,0.0,0.0,0.0,0.0,0.0,0.0,0.0,0.0,0.0,0.0,0.0,0.0,0.0,0.0,0.0,0.0,0.0,0.0,0.0,0.0,1.8008,1.8008,1.8008,1.7104,1.6428,1.6428,1.4906,1.3781,1.3564,1.2806,1.2305,1.2305,1.2442,1.2499,1.2351,0.0,0.0,0.0,0.0,1.2971,1.3206,1.3213,1.3213,1.3213,1.3213,1.3227,1.326,1.326,1.326,1.326,1.326,1.324,1.3213,1.3213,1.3213,1.316,1.2612,1.2963,1.3652,1.2714,1.2405,1.2556,2.4716,2.4389,2.4116,2.3681,2.3098,2.2694,2.2694,2.203,2.1342,2.087,2.0696,2.0396,1.985,1.9798,1.9798,1.9798,1.9798,1.9798,1.9798,1.9798,2.0012,2.0503,2.0629,2.1119,2.197,2.2196,2.2493,2.2945,2.3058,2.3108,2.3108,2.3108,2.3108,2.3108,2.3108,2.3108,2.3108,2.3108,2.3108,2.3108,2.3108,2.3108,2.3108,2.3108,2.3108,2.3108,2.3108,2.3108,2.3108,2.3108,2.3108,2.3083,2.2982,2.2945,0.0,0.0,0.0,0.0,0.0,0.0,0.0,0.0,0.0,0.0,0.0,0.0,0.0,0.0,0.0,0.0,0.0,0.0,0.0,1.8008,1.8008,1.8008,1.8008,1.6541,1.5473,1.5473,1.5128,1.4307,1.2732,1.2409,1.2305,1.2305,1.337,1.3626,1.2735,1.3749,1.3959,1.3159,1.312,1.3153,1.3213,1.3213,1.3213,1.3213,0.0,0.0,1.352,1.352,1.352,1.352,1.352,1.3387,1.3213,1.3213,1.3213,1.32,1.308,1.3488,1.4,1.303,1.3021,1.3346,2.5354,2.4756,2.4307,2.4053,2.3537,2.3143,2.3143,2.2597,2.196,2.1318,2.0979,2.0547,1.9875,1.9798,1.9798,1.9798,1.9798,1.9798,1.9798,1.9798,2.0062,2.0666,2.0955,2.1496,2.2297,2.2556,2.2832,2.3108,2.3108,2.3108,2.3108,2.3108,2.3108,2.3108,2.3108,2.3108,2.3108,2.3108,2.3108,2.3108,2.3108,2.3108,2.3108,2.3108,2.3108,2.3108,2.3108,2.3108,2.3108,2.3108,2.3108,2.3108,2.3108,2.3108,2.3005,0.0,0.0,0.0,0.0,0.0,0.0,0.0,0.0,0.0,0.0,0.0,0.0,0.0,0.0,1.8654,1.8654,0.0,1.8008,1.8008,1.8008,1.8008,1.8008,1.7182,1.6263,1.5305,1.4343,1.3557,1.3062,1.2729,1.275,1.3221,1.3594,1.3586,1.3018,1.3655,1.3808,1.342,1.3387,1.35,1.3647,1.3647,1.3647,1.3647,1.3647,1.3728,1.3868,1.3868,1.3868,1.3868,1.442,1.4568,1.4434,1.4434,1.4434,1.4393,1.3845,1.3687,1.3624,1.3167,1.3187,1.3469,2.6209,2.5373,2.4692,2.4556,2.4116,2.3767,2.3767,2.3253,2.2634,2.1969,2.1355,2.0708,2.008,1.9875,1.9798,1.9798,1.9798,1.9798,1.9798,1.9798,2.0112,2.0817,2.1282,2.1794,2.2431,2.2882,2.3108,2.3108,2.3108,2.3108,2.3108,2.3108,2.3108,2.3108,2.3108,2.3108,2.3108,2.3108,2.3108,2.3108,2.3108,2.3108,2.3108,2.3108,2.3108,2.3108,2.3108,2.3108,2.3108,2.3108,2.3108,2.3078,2.2914,2.2884,2.2732,2.2106,2.1784,0.0,0.0,0.0,0.0,0.0,0.0,0.0,0.0,0.0,1.8008,1.8008,1.8008,1.8008,1.8008,1.8008,1.8008,1.8008,1.8008,1.8008,1.8008,1.7828,1.7107,1.5468,1.3848,1.3119,1.3725,1.3194,1.3147,1.3919,1.3772,1.3525,1.3293,1.354,1.3682,1.368,1.3686,1.3924,1.4412,1.4412,1.4412,1.4412,1.4412,1.4292,1.4088,1.4088,1.4088,1.413,1.5012,1.5496,1.5696,1.5696,1.5696,1.5621,1.4734,1.4001,1.3373,1.3313,1.326,1.3325,2.6641,2.6192,2.567,2.5202,2.4672,2.4307,2.4307,2.3843,2.3275,2.2672,2.2007,2.1366,2.0746,2.0156,1.9798,1.9798,1.9798,1.9798,1.9798,1.9798,2.0275,2.1343,2.1455,2.197,2.2995,2.307,2.3108,2.3108,2.3108,2.3108,2.3108,2.3108,2.3108,2.3108,2.3108,2.3108,2.3108,2.3108,2.3108,2.3108,2.3108,2.3108,2.3108,2.3108,2.3108,2.3108,2.3108,2.3108,2.3108,2.3108,2.3108,2.2975,2.2261,2.2032,2.2002,2.1939,2.1365,2.0878,2.1553,2.0623,1.9431,1.9332,1.8721,1.811,0.0,0.0,1.8008,1.8008,1.8008,1.8008,1.8008,1.8008,1.8008,1.8008,1.8008,1.8008,1.8008,1.7285,1.6448,1.5629,1.5137,1.4684,1.4194,1.3327,1.2936,1.329,1.4399,1.4612,1.3594,1.4755,1.5009,1.4077,1.4041,1.4538,1.5496,1.5538,1.5538,1.5538,1.5538,1.5019,1.4088,1.4088,1.4088,1.413,1.4208,1.4817,1.5696,1.5696,1.5696,1.5703,1.5579,1.4893,1.3955,1.3653,1.3387,1.3358,2.6691,2.6556,2.6349,2.6105,2.5395,2.4756,2.445,2.4204,2.3736,2.283,2.2452,2.2044,2.139,2.1062,2.0756,2.0421,2.0371,2.0232,1.9824,1.9798,2.0313,2.1443,2.1493,2.2008,2.3083,2.3108,2.3108,2.3108,2.3108,2.3108,2.3108,2.3108,2.3108,2.3108,2.3108,2.3108,2.3108,2.3108,2.3108,2.3108,2.3108,2.3108,2.3108,2.3108,2.3108,2.3108,2.3108,2.3108,0.0,2.3108,2.3108,2.3035,2.2702,2.2292,2.1815,2.1302,2.0526,1.9824,1.965,1.911,1.8519,0.0,1.8269,1.8008,1.8008,1.8008,1.8008,1.8008,1.8008,1.8008,1.8008,1.8008,1.8008,0.0,1.8008,1.8008,1.8008,1.7182,1.6781,1.7296,1.6292,1.5251,1.4523,1.4314,1.4513,1.5191,1.599,1.6266,1.5787,1.6318,1.6445,1.5959,1.5959,1.6157,1.6642,1.6889,1.7026,1.7034,1.7275,1.7159,1.6707,1.5986,1.5641,1.5555,1.5369,1.5911,1.6893,1.6729,1.6642,1.6642,1.6642,1.6363,1.5779,1.4393,1.3828,1.3796,2.6691,2.6691,2.6691,2.6691,2.6105,2.5433,2.4914,2.4592,2.4085,2.3267,2.2897,2.2452,2.1767,2.1697,2.152,2.1088,2.0894,2.0597,2.0105,1.9901,2.0313,2.1443,2.1493,2.2008,2.3083,2.3108,2.3108,2.3108,2.3108,2.3108,2.3108,2.3108,2.3108,2.3108,2.3108,2.3108,2.3108,2.3108,2.3108,2.3108,2.3108,2.3108,2.3108,2.3108,2.3108,2.3108,2.3108,2.3108,2.3108,2.3108,2.3108,2.3005,2.2567,2.2002,2.1365,2.0494,1.9781,1.911,1.8236,1.8008,0.0,1.8008,1.8008,1.8008,1.8008,1.8008,1.8008,1.8008,1.8008,1.8008,1.8008,1.8008,1.8008,1.8008,1.8008,1.7906,1.7647,1.7345,1.735,1.7875,1.7085,1.6175,1.5427,1.5597,1.592,1.6397,1.6976,1.718,1.6887,1.7131,1.7343,1.7491,1.7491,1.7696,1.8083,1.8438,1.8616,1.8616,1.888,1.8888,1.8587,1.7672,1.7244,1.7142,1.6895,1.7427,1.8431,1.783,1.7738,1.789,1.7573,1.7392,1.7098,1.5553,1.4985,1.4985,0.0,2.6691,2.6691,2.6691,2.6674,2.6504,2.6015,2.5067,2.4389,2.4348,2.3398,2.2452,2.1767,2.1697,2.1697,2.1673,2.1137,2.0795,2.0771,2.0156,2.0313,2.1443,2.1493,2.2008,2.3083,2.3108,2.3108,2.3108,2.3108,2.3108,2.3108,2.3108,2.3108,2.3108,2.3108,2.3108,2.3108,2.3108,2.3108,2.3108,2.3108,2.3108,2.3108,2.3108,2.3108,2.3108,2.3108,2.3108,2.3108,2.3108,2.3108,2.2811,2.1195,2.0655,2.0462,1.9595,1.9299,1.911,1.8236,1.8008,1.8008,1.8008,1.8008,1.8008,1.8008,1.8008,1.8008,1.8008,1.8008,1.8008,1.8008,1.8008,1.8008,1.8008,1.8008,1.7681,1.6784,1.7729,1.7992,1.6464,1.7418,1.7965,0.0,1.6979,1.6524,1.5782,1.6715,1.6846,1.582,1.6723,1.7499,1.7979,1.7996,1.8657,2.0117,2.0135,2.0135,2.0135,2.0153,1.9604,1.8587,1.8544,1.8544,1.8544,1.8528,1.9119,2.006,1.8854,1.8853,1.9393,1.8246,1.7573,1.7293,1.7212,1.722,1.722,0.0,0.0,2.6691,2.6691,2.6691,2.6657,2.6487,2.589,2.5335,2.4989,2.4292,0.0,0.0,0.0,0.0,0.0,2.2175,2.1856,2.1438,2.0794,2.0965,2.2053,2.1718,2.2008,2.3083,2.3108,2.3108,2.3108,2.3108,2.3108,2.3108,2.3108,2.3108,2.3108,2.3108,2.3108,2.3108,2.3108,2.3108,2.3108,2.3108,2.3108,2.3108,2.3108,2.3108,2.3108,0.0,2.3108,2.3108,2.3108,2.3108,2.3005,2.2433,2.1479,2.0333,1.8844,1.8428,1.8361,1.8076,1.8008,1.8008,1.8008,1.8008,1.8008,1.8008,1.8008,1.8008,1.8008,1.8008,1.8008,1.8008,1.8008,1.8008,1.8008,1.8008,1.7906,1.7569,1.7617,1.7804,1.8202,1.8346,0.0,0.0,0.0,0.0,1.6838,1.8461,1.9145,1.8331,1.9304,2.0083,2.0583,2.0592,2.0833,2.1307,2.1574,2.1716,2.1716,2.1993,2.1534,2.0369,2.0369,1.9971,1.9206,1.901,1.9129,1.9496,1.9547,1.9279,1.8913,2.0083,1.9788,1.8807,1.9606,1.9721,1.9274,0.0,0.0,0.0,2.6691,2.6691,0.0,0.0,0.0,0.0,0.0,0.0,0.0,0.0,0.0,0.0,0.0,0.0,2.2521,2.21,2.1462,2.1531,2.243,2.2055,2.2362,2.3534,2.3251,2.3245,2.3543,2.3245,2.3108,2.3108,2.3108,2.3108,2.3108,2.3108,2.3108,2.3108,2.3108,2.3108,2.3108,2.3108,2.3108,2.3108,2.3108,2.3108,0.0,2.3108,2.3108,2.3108,2.3108,2.3108,2.3047,2.2763,2.151,1.9846,1.8428,1.8008,1.8008,1.8008,1.8008,1.8008,1.8008,1.8008,1.8008,1.8008,1.8008,1.8008,1.8008,1.8008,1.8008,1.8008,1.8008,1.8008,1.8008,1.8135,1.8036,1.7564,1.7861,1.8321,1.8746,1.9061,1.962,0.0,0.0,0.0,1.798,1.9699,2.0472,1.9648,2.078,2.166,2.21,2.2109,2.2178,2.2334,2.2607,2.2691,2.2744,2.2964,2.2677,2.1933,2.1933,2.1534,2.08,2.0598,2.0536,2.0518,2.0566,2.0334,1.9961,2.1053,2.0977,2.0397,2.1171,2.1289,2.0748,0.0,0.0,0.0,0.0,0.0,0.0,0.0,0.0,0.0,0.0,0.0,0.0,0.0,0.0,0.0,0.0,0.0,0.0,2.2754,2.2123,2.2011,2.2622,2.2483,2.3018,2.4378,2.3592,2.3564,2.435,2.359,2.3198,2.3155,2.3155,2.3155,2.3155,2.3155,2.3185,2.3215,2.3215,2.3198,2.3155,2.3155,2.3138,2.3108,2.3108,2.3108,2.3108,2.3108,2.3108,2.3108,2.3108,2.3078,2.2884,2.2106,2.0655,1.9144,1.8269,1.8008,1.8008,1.8008,1.8008,1.8008,1.8008,1.8008,1.8008,1.8008,1.8008,1.8008,1.8008,1.8008,1.8008,0.0,0.0,1.8008,1.8008,1.8325,1.8161,1.6892,1.8548,1.9419,0.0,0.0,0.0,0.0,0.0,0.0,1.9192,0.0,2.0747,1.972,2.1126,2.2109,2.2529,2.2549,2.2691,2.3091,2.3091,2.3091,2.3091,2.3091,2.3091,2.3091,2.3091,2.3091,2.3091,2.3091,2.3091,2.3003,2.1845,2.1808,2.2326,2.1238,2.122,2.1831,2.1924,2.1904,2.1634,0.0,0.0,0.0,0.0,0.0,0.0,0.0,0.0,0.0,0.0,0.0,0.0,0.0,0.0,0.0,0.0,0.0,0.0,2.3377,2.2793,2.2676,2.3244,2.2801,2.3137,2.4378,2.4164,2.4393,2.5119,2.4922,2.4525,2.4002,2.4002,2.4002,2.4002,2.4002,2.4308,2.4809,2.4809,2.4509,2.4002,2.4002,2.3619,2.3108,2.3108,2.3108,2.3108,2.3108,2.3108,2.3108,2.3108,2.2702,2.2063,2.1195,2.0171,1.9144,0.0,0.0,1.8008,1.8008,1.8008,1.8008,1.8008,1.8008,1.8008,1.8008,1.8008,1.8008,1.8008,1.8008,1.8008,0.0,0.0,0.0,1.8008,1.8325,0.0,1.8152,1.9114,0.0,1.9419,0.0,2.0605,2.0605,2.0869,0.0,0.0,2.1002,2.1036,2.0604,2.1707,2.2549,2.2925,2.2935,2.2984,2.3091,2.3091,2.3091,2.3091,2.3091,2.3091,2.3091,2.3091,2.3091,2.3091,2.3091,2.3091,2.3091,2.2775,2.2249,2.1653,2.2252,2.1857,2.1105,2.2038,2.2158,2.1814,0.0,0.0,0.0,0.0,0.0,0.0,0.0,0.0,0.0,0.0,0.0,0.0,0.0,0.0,0.0,0.0,0.0,0.0,0.0,2.3275,2.3215,2.3535,2.3188,2.359,2.4894,2.4584,2.4732,2.5442,2.5397,2.5038,2.4362,2.466,2.4794,2.4794,2.4794,2.5007,2.5398,2.5398,2.5147,0.0,0.0,2.4031,2.3603,2.3215,2.3108,2.3108,2.3108,2.3108,2.3108,2.3108,2.2567,2.1753,2.0878,2.0009,1.9144,1.8269,0.0,1.8008,1.8008,1.8008,1.8008,1.8008,1.8008,1.8008,1.8008,1.8008,1.8008,1.8008,1.8008,1.8008,1.8008,1.812,0.0,0.0,0.0,0.0,1.8909,1.9658,2.0127,0.0,2.0303,0.0,2.0605,2.0967,2.1278,0.0,2.1689,2.1742,2.1631,2.2323,2.2847,2.3091,2.3091,2.3091,2.3091,2.3091,2.3091,2.3091,2.3091,2.3091,2.3091,2.3091,2.3091,2.3091,0.0,2.3091,2.3091,2.3091,2.2677,2.2173,2.2818,2.2533,2.1836,2.2515,2.2637,2.2412,0.0,0.0,0.0,0.0,0.0,0.0,0.0,0.0,0.0,0.0,2.6349,2.6067,0.0,0.0,0.0,0.0,0.0,0.0,0.0,0.0,2.3595,2.3595,2.3535,2.4168,2.5561,2.4937,2.497,2.5774,2.5731,2.5326,2.469,2.5272,2.5536,2.5536,2.5536,2.5591,2.5701,2.5701,2.5646,2.5481,2.4851,2.4538,2.4366,0.0,2.3245,2.3258,2.3125,2.3108,2.3108,2.3108,2.2506,2.1596,2.0846,1.9911,1.8977,1.8202,1.8008,1.8008,1.8008,1.8008,1.8008,1.8008,1.8008,1.8008,1.8008,1.8008,1.8008,1.8008,1.8057,1.8096,1.8096,1.8403,1.8685,1.8685,0.0,1.9785,1.9424,2.0096,2.0458,2.0049,2.0332,2.0605,2.0605,2.1025,2.1475,2.1855,2.2324,2.2598,2.2598,2.2896,2.3091,2.3091,2.3091,2.3091,2.3091,2.3091,2.3091,2.3091,2.3091,2.3091,2.3091,2.3091,2.3091,2.3091,2.3091,2.3091,2.3091,2.3091,2.3091,2.3091,2.3091,2.3091,2.3091,2.3091,2.3091,2.3042,0.0,0.0,0.0,0.0,0.0,0.0,0.0,0.0,0.0,2.6691,2.6641,2.6436,0.0,0.0,0.0,0.0,0.0,0.0,0.0,0.0,0.0,2.3595,2.3591,2.4231,2.5561,2.5453,2.5997,2.7229,2.7206,2.6846,2.6152,2.6252,2.631,2.631,2.631,2.6654,2.7214,2.7214,2.6878,2.6283,2.6176,2.5755,2.5119,2.4366,0.0,0.0,2.3335,2.3108,2.3108,2.3108,2.2082,2.0814,2.0655,1.9497,1.8202,1.8042,1.8008,1.8008,1.8008,1.8008,1.8008,1.8008,1.8008,1.8008,1.8008,1.8008,0.0,1.8008,1.8247,1.849,1.849,1.8877,1.918,1.918,0.0,0.0,0.0,0.0,2.0576,0.0,0.0,0.0,0.0,0.0,0.0,0.0,0.0,2.2984,2.2984,2.3052,2.3091,2.3091,2.3091,2.3091,2.3091,2.3091,2.3091,2.3091,2.3091,2.3091,2.3091,2.3091,2.3091,2.3091,2.3091,0.0,2.3091,2.3091,2.3091,2.3091,2.3091,2.3091,2.3091,2.3091,2.3091,2.3081,0.0,0.0,0.0,0.0,0.0,0.0,2.6691,2.6691,2.6691,2.6691,2.6691,2.6607,2.6384,2.6367,2.5944,0.0,0.0,0.0,0.0,0.0,0.0,2.3595,2.3939,2.4575,2.5585,2.5944,2.6437,2.7091,0.0,2.7229,2.6549,2.6913,2.706,2.706,2.706,2.728,2.76,2.76,2.7408,2.7034,2.6642,2.6068,2.537,2.5007,0.0,0.0,2.3855,2.3454,2.3108,2.3108,2.2279,2.1207,2.0751,1.9716,1.8596,1.8144,1.8008,1.8008,1.8008,1.8008,1.8008,1.8008,1.8008,1.8008,1.8008,0.0,0.0,1.8256,1.8461,1.8666,1.8936,1.9326,0.0,0.0,0.0,0.0,0.0,0.0,0.0,0.0,0.0,0.0,0.0,0.0,0.0,0.0,0.0,2.3091,2.3091,2.3091,2.3091,2.3091,2.3091,2.3091,2.3091,2.3091,2.3091,2.3091,2.3091,2.3091,2.3091,2.3091,2.3091,2.3091,2.3091,0.0,2.3091,2.3091,2.3091,2.3091,2.3091,2.3091,2.3091,2.3091,2.3091,2.3091,0.0,0.0,0.0,0.0,0.0,0.0,2.6691,2.6691,2.6691,2.6691,2.6691,2.6691,2.6691,2.6691,2.6298,0.0,0.0,0.0,0.0,0.0,0.0,0.0,0.0,0.0,2.5809,0.0,0.0,0.0,2.7345,0.0,0.0,0.0,0.0,0.0,2.76,2.76,2.76,2.76,2.76,0.0,0.0,2.639,0.0,0.0,0.0,0.0,0.0,2.3767,2.3108,2.3108,2.2671,2.2002,2.1144,2.0139,1.9177,1.8496,1.8144,1.8008,1.8008,1.8008,1.8008,1.8008,1.8008,1.8037,1.8125,1.8144,0.0,1.8646,1.8812,1.8978,1.9355,1.9766,2.0059,0.0,2.038,0.0,0.0,0.0,0.0,0.0,0.0,0.0,0.0,0.0,0.0,0.0,0.0,0.0,2.3091,2.3091,2.3091,2.3091,2.3091,2.3091,2.3091,2.3091,2.3091,2.3091,2.3091,2.3091,2.3091,2.3091,2.3091,2.3091,2.3091,0.0,0.0,2.3091,2.3091,2.3091,2.3091,2.3091,2.3091,2.3091,2.3091,2.3091,0.0,0.0,0.0,0.0,0.0,0.0,2.6691,2.6691,2.6691,2.6691,2.6691,2.6691,2.6691,2.6691,2.6298,0.0,0.0,0.0,0.0,0.0,0.0,0.0,0.0,0.0,0.0,0.0,0.0,2.751,0.0,0.0,0.0,0.0,0.0,0.0,0.0,0.0,2.76,2.76,0.0,0.0,0.0,0.0,0.0,0.0,0.0,0.0,0.0,2.3767,2.3108,2.3108,2.3047,2.2854,2.2032,2.0655,1.9266,1.921,0.0,0.0,1.8008,1.8008,1.8008,1.8008,1.8008,1.8115,1.8461,0.0,1.8666,1.9141,1.9531,1.9805,1.9853,2.0215,2.0546,2.0546,2.0576,2.0605,0.0,0.0,0.0,0.0,0.0,0.0,0.0,0.0,0.0,0.0,0.0,0.0,2.3091,2.3091,2.3091,2.3091,2.3091,2.3091,2.3091,2.3091,2.3091,2.3091,2.3091,2.3091,2.3091,2.3091,2.3091,2.3091,2.3091,0.0,0.0,2.3091,2.3091,2.3091,2.3091,2.3091,2.3091,2.3091,2.3091,2.3091,0.0,0.0,0.0,0.0,0.0,0.0,2.6691,2.6691,2.6691,2.6691,2.6691,2.6691,2.6691,2.6691,2.6436,2.5744,2.5392,0.0,0.0,0.0,0.0,0.0,0.0,0.0,0.0,0.0,2.733,2.76,2.76,0.0,0.0,0.0,0.0,0.0,0.0,0.0,2.76,2.76,0.0,0.0,0.0,0.0,0.0,0.0,0.0,0.0,0.0,0.0,2.3108,2.3108,2.3108,2.3035,2.272,2.1803,2.0751,0.0,1.9464,1.8787,1.8787,1.8395,1.8008,1.8008,1.8159,1.8393,1.8559,0.0,1.915,1.958,1.9805,2.0,2.0254,2.0488,2.0605,2.0605,2.0605,2.0605,2.0605,0.0,0.0,0.0,0.0,0.0,0.0,0.0,0.0,0.0,0.0,0.0,2.3091,2.3091,2.3091,2.3091,2.3091,2.3091,2.3091,2.3091,2.3091,2.3091,2.3091,2.3091,2.3091,2.3091,2.3091,2.3091,2.3091,0.0,0.0,2.3091,2.3091,2.3091,2.3091,2.3091,2.3091,2.3091,2.3091,2.3091,0.0,0.0,0.0,0.0,0.0,2.6691,2.6691,2.6691,2.6691,2.6691,2.6691,2.6776,2.6996,2.7029,2.6924,2.6623,2.594,0.0,0.0,0.0,0.0,0.0,0.0,0.0,0.0,0.0,2.76,2.76,2.76,2.76,0.0,0.0,0.0,0.0,0.0,0.0,0.0,0.0,0.0,0.0,0.0,0.0,0.0,0.0,0.0,0.0,0.0,0.0,0.0,0.0,0.0,2.3108,2.3108,2.2689,2.2094,2.1227,2.0171,1.9299,1.9299,1.8654,1.8037,1.8164,1.8383,1.8666,0.0,0.0,1.959,2.0019,2.0107,2.0195,2.0546,2.0605,2.0605,2.0605,2.0605,2.0605,2.0605,0.0,0.0,0.0,0.0,0.0,0.0,0.0,0.0,0.0,0.0,0.0,2.3091,2.3091,2.3091,2.3091,2.3091,2.3091,2.3091,2.3091,2.3091,2.3091,2.3091,2.3091,2.3091,2.3091,2.3091,2.3091,2.3091,0.0,0.0,2.3091,2.3091,2.3091,2.3091,2.3091,2.3091,2.3091,2.3091,2.3091,0.0,0.0,0.0,0.0,0.0,2.6691,2.6691,2.6691,2.6691,2.6691,2.6691,2.6979,2.7705,2.779,2.788,2.8053,2.6916,0.0,0.0,0.0,0.0,0.0,0.0,0.0,2.757,2.76,2.76,2.76,2.76,2.76,2.76,2.76,2.76,2.76,0.0,0.0,0.0,0.0,0.0,0.0,0.0,0.0,2.76,0.0,0.0,0.0,0.0,0.0,0.0,0.0,0.0,0.0,0.0,2.3095,2.2914,2.2125,2.0655,1.9299,1.9299,1.8654,1.8115,1.849,1.8598,1.8822,0.0,1.9902,2.0029,2.0507,2.0595,2.0595,2.0605,2.0605,2.0605,2.0605,2.0605,2.0605,2.0605,0.0,0.0,0.0,0.0,0.0,0.0,0.0,0.0,0.0,0.0,0.0,2.3091,2.3091,2.3091,2.3091,2.3091,2.3091,2.3091,2.3091,2.3091,2.3091,2.3091,2.3091,2.3091,2.3091,2.3091,0.0,0.0,0.0,0.0,2.3091,2.3091,2.3091,2.3091,2.3091,2.3091,2.3091,2.3091,2.3091,0.0,0.0,0.0,0.0,0.0,0.0,2.6691,2.6691,2.6877,2.7384,2.7452,2.7757,2.8518,2.8239,2.8066,2.8225,2.7458,0.0,0.0,0.0,0.0,2.7255,2.7285,2.739,2.76,2.76,2.76,2.76,2.76,2.76,2.76,2.76,2.76,2.76,2.76,2.76,0.0,0.0,0.0,0.0,0.0,2.76,2.76,0.0,0.0,0.0,0.0,0.0,0.0,0.0,0.0,0.0,0.0,0.0,0.0,2.2793,2.1928,2.1149,2.1525,2.0996,2.0283,2.0139,2.0313,2.0394,1.9993,2.0146,2.0439,2.0576,2.0605,2.0605,2.0605,2.0605,2.0605,2.0605,2.0605,2.0605,0.0,0.0,0.0,0.0,0.0,0.0,0.0,0.0,0.0,0.0,0.0,0.0,2.3091,2.3091,2.3091,2.3091,2.3091,2.3091,2.3091,2.3091,2.3091,2.3091,2.3091,2.3091,2.3091,2.3091,2.3091,0.0,0.0,0.0,0.0,2.3091,2.3091,2.3091,2.3091,2.3091,2.3091,2.3091,2.3091,2.3091,0.0,0.0,0.0,0.0,0.0,0.0,2.7571,2.7571,2.7723,2.8197,2.8264,2.8552,2.933,2.9082,2.892,2.9054,2.8671,0.0,0.0,0.0,0.0,2.7585,2.76,2.76,2.76,2.76,2.76,2.76,2.76,2.76,2.76,2.76,2.76,2.76,2.76,2.76,0.0,0.0,0.0,0.0,2.76,2.76,2.76,0.0,0.0,0.0,0.0,0.0,0.0,0.0,0.0,0.0,0.0,0.0,0.0,0.0,2.322,2.2965,2.2755,2.2194,2.1688,2.1599,2.1793,2.1726,2.088,2.0916,2.1039,2.0673,2.0605,2.0605,2.0605,2.0605,2.0605,2.0605,2.0605,0.0,0.0,0.0,0.0,0.0,0.0,0.0,0.0,0.0,0.0,0.0,0.0,0.0,2.3091,2.3091,2.3091,2.3091,2.3091,2.3091,2.3091,2.3091,2.3091,2.3091,2.3091,2.3091,2.3091,2.3091,2.3091,0.0,0.0,0.0,0.0,2.3091,2.3091,2.3091,2.3091,2.3091,2.3091,2.3091,2.3091,2.3091,0.0,0.0,0.0,0.0,0.0,0.0,2.8993,2.8993,2.9027,2.9077,2.9077,2.9347,3.0108,3.0137,3.0157,3.0243,3.0187,0.0,0.0,2.765,2.7635,2.76,2.76,2.76,2.76,2.76,2.76,2.76,2.76,2.76,2.76,2.76,2.76,2.76,2.76,2.76,2.76,2.76,2.76,2.76,2.76,2.76,0.0,0.0,0.0,0.0,0.0,0.0,0.0,0.0,0.0,0.0,0.0,0.0,0.0,0.0,0.0,0.0,0.0,2.2673,2.2537,2.2942,2.3031,2.2894,2.227,2.2103,0.0,2.0972,2.0828,2.0828,2.0828,2.075,2.0712,2.0712,2.0644,0.0,0.0,0.0,0.0,0.0,0.0,0.0,0.0,0.0,0.0,0.0,0.0,0.0,2.3091,2.3091,2.3091,2.3091,2.3091,2.3091,2.3091,2.3091,2.3091,2.3091,2.3091,2.3091,2.3091,2.3091,2.3091,0.0,0.0,0.0,0.0,2.3091,2.3091,2.3091,2.3091,2.3091,2.3091,2.3091,2.3091,2.3091,0.0,0.0,0.0,0.0,0.0,0.0,0.0,0.0,0.0,0.0,2.9837,3.0125,3.0852,3.053,3.007,0.0,0.0,0.0,0.0,2.8042,2.8091,2.7625,2.76,2.76,2.76,2.76,2.76,2.76,2.76,2.76,2.76,2.76,2.76,2.76,2.76,2.76,2.76,2.76,2.76,2.76,2.76,2.76,0.0,0.0,0.0,0.0,2.6774,2.6041,0.0,0.0,0.0,0.0,0.0,0.0,0.0,0.0,2.4996,2.5352,2.5004,0.0,2.4762,2.4578,2.4495,2.4269,0.0,2.3147,2.3073,0.0,0.0,0.0,0.0,0.0,2.1669,0.0,0.0,0.0,0.0,0.0,0.0,0.0,0.0,0.0,0.0,0.0,0.0,0.0,0.0,2.3091,2.3091,2.3091,2.3091,2.3091,2.3091,2.3091,2.3091,2.3091,2.3091,2.3091,2.3091,2.3091,2.3091,2.3091,2.3091,0.0,0.0,0.0,2.3091,2.3091,2.3091,2.3091,2.3091,2.3091,2.3091,2.3091,2.3091,2.3091,0.0,0.0,0.0,0.0,0.0,0.0,0.0,0.0,0.0,0.0,3.0598,3.0768,3.1157,3.0658,3.0166,0.0,0.0,0.0,2.8042,2.8319,2.8238,2.7625,2.76,2.76,2.76,2.76,2.76,2.76,2.76,2.76,2.76,2.76,2.76,2.76,2.76,2.76,2.76,2.76,2.76,2.76,2.76,0.0,0.0,0.0,0.0,0.0,2.7152,2.6522,0.0,2.5425,2.4727,2.4069,0.0,0.0,0.0,0.0,2.5561,2.6021,2.6021,2.6021,2.5961,2.573,2.5699,2.5441,2.4409,2.4192,0.0,0.0,0.0,0.0,0.0,0.0,0.0,0.0,0.0,0.0,0.0,0.0,0.0,0.0,0.0,0.0,0.0,0.0,0.0,0.0,0.0,2.3091,2.3091,2.3091,2.3091,2.3091,2.3091,2.3091,2.3091,2.3091,2.3091,2.3091,2.3091,2.3091,2.3091,2.3091,2.3091,0.0,0.0,0.0,2.3091,2.3091,2.3091,2.3091,2.3091,2.3091,2.3091,2.3091,2.3091,2.3091,0.0,0.0,0.0,0.0,0.0,0.0,0.0,0.0,0.0,0.0,0.0,0.0,0.0,0.0,0.0,0.0,0.0,2.8996,2.8391,2.8367,2.814,2.7625,2.76,2.76,2.76,2.76,2.76,2.76,2.76,2.76,2.76,2.76,2.76,2.76,2.76,2.76,2.76,2.76,2.76,2.76,2.76,0.0,0.0,0.0,0.0,0.0,0.0,0.0,0.0,2.6654,2.6021,2.5265,2.5357,0.0,0.0,0.0,0.0,0.0,2.6499,2.6499,2.6499,2.6499,2.6499,2.628,2.5406,2.5229,0.0,0.0,0.0,0.0,0.0,2.2328,0.0,0.0,0.0,0.0,0.0,0.0,0.0,0.0,0.0,0.0,0.0,0.0,0.0,0.0,0.0,2.3091,2.3091,2.3091,2.3091,2.3091,2.3091,2.3091,2.3091,2.3091,2.3091,2.3091,2.3091,2.3091,2.3091,2.3091,2.3091,2.3091,0.0,0.0,2.3091,2.3091,2.3091,2.3091,2.3091,2.3091,2.3091,2.3091,2.3091,2.3091,0.0,0.0,0.0,0.0,0.0,0.0,0.0,0.0,0.0,0.0,0.0,0.0,0.0,0.0,0.0,0.0,0.0,2.8367,2.7785,2.7735,2.7685,2.7585,2.76,2.76,2.76,2.76,2.76,2.76,2.76,2.76,2.76,2.76,2.76,2.76,2.76,2.76,2.76,2.76,2.76,2.76,2.76,0.0,0.0,0.0,0.0,0.0,0.0,0.0,0.0,2.733,2.6731,2.603,2.6488,0.0,0.0,0.0,0.0,0.0,2.6499,2.6499,2.6499,2.6499,2.6499,2.6452,2.6314,2.628,2.6245,0.0,0.0,0.0,0.0,2.3854,0.0,0.0,0.0,0.0,0.0,0.0,0.0,0.0,0.0,0.0,0.0,0.0,0.0,0.0,0.0,2.3091,2.3091,2.3091,2.3091,2.3091,2.3091,2.3091,2.3091,2.3091,2.3091,2.3091,2.3091,2.3091,2.3091,2.3091,2.3091,2.3091,0.0,2.3091,2.3091,2.3091,2.3091,2.3091,2.3091,2.3091,2.3091,2.3091,2.3091,2.3091,0.0,0.0,0.0,0.0,0.0,0.0,0.0,0.0,0.0,0.0,0.0,0.0,0.0,0.0,0.0,0.0,2.8391,2.791,2.7625,2.76,2.76,2.76,2.76,2.76,2.76,2.76,2.76,2.76,2.76,2.76,2.76,2.76,2.76,2.76,2.76,2.76,2.76,2.76,2.76,2.76,0.0,0.0,0.0,0.0,0.0,0.0,0.0,0.0,0.0,0.0,2.8283,2.7792,2.756,0.0,0.0,0.0,0.0,0.0,2.6499,2.6499,2.6499,2.6499,2.6499,2.6499,2.6499,2.6499,2.6499,0.0,0.0,0.0,0.0,0.0,0.0,0.0,0.0,0.0,0.0,0.0,0.0,0.0,0.0,0.0,0.0,0.0,0.0,0.0,0.0,0.0,2.3091,2.3671,2.3757,2.3135,2.3714,2.3714,2.3101,2.3091,2.3091,2.3091,2.3091,2.3091,2.3091,2.3091,2.3091,2.3091,0.0,2.3091,2.3091,2.3091,2.3091,2.3091,2.3091,2.3091,2.3091,2.3091,2.3091,2.3091,0.0,0.0,0.0,0.0,0.0,0.0,0.0,0.0,0.0,0.0,0.0,0.0,0.0,0.0,0.0,0.0,2.8125,2.76,2.76,2.76,2.76,2.76,2.76,2.76,2.76,2.76,2.76,2.76,2.76,2.76,2.76,2.76,2.76,2.76,2.76,2.76,2.76,2.76,2.76,2.76,0.0,0.0,0.0,0.0,0.0,0.0,0.0,0.0,0.0,0.0,0.0,0.0,0.0,0.0,0.0,2.6973,2.6658,2.6499,2.6499,2.6499,2.6499,2.6499,2.6499,2.6499,2.6499,2.6499,2.6499,0.0,0.0,0.0,0.0,0.0,0.0,0.0,0.0,0.0,0.0,0.0,0.0,0.0,0.0,0.0,0.0,0.0,0.0,0.0,0.0,0.0,2.3507,2.4339,2.4414,2.3507,2.4585,2.4798,2.3887,2.3887,2.3637,2.3091,2.3091,2.3091,2.3091,2.3387,2.3507,2.3507,2.3767,2.3887,2.3887,2.3594,2.3507,2.3464,2.3222,2.3091,2.3135,2.3387,2.3507,2.3551,0.0,0.0,0.0,0.0,0.0,0.0,0.0,0.0,0.0,0.0,0.0,0.0,0.0,0.0,0.0,0.0,2.7635,2.76,2.76,2.76,2.76,2.76,2.76,2.76,2.76,2.76,2.76,2.76,2.76,2.76,2.76,2.76,2.76,2.76,2.76,2.76,2.76,2.76,2.76,2.7645,2.8263,0.0,0.0,0.0,0.0,0.0,0.0,0.0,0.0,0.0,0.0,0.0,0.0,0.0,2.7703,2.7637,2.7061,2.6499,2.6499,2.6499,2.6499,2.6499,2.6499,2.6499,2.6499,2.6499,2.6499,2.6499,0.0,0.0,0.0,0.0,0.0,0.0,0.0,0.0,0.0,0.0,0.0,0.0,0.0,0.0,0.0,0.0,0.0,0.0,0.0,0.0,2.467,2.4745,2.4745,2.466,2.5766,2.6359,2.6265,2.6276,2.5179,2.3091,2.3091,2.3091,2.3135,2.4211,2.467,2.4755,2.5808,2.6276,2.6182,2.5126,2.467,2.4585,2.3507,2.3091,2.3222,2.4296,2.467,2.483,0.0,0.0,0.0,0.0,0.0,0.0,0.0,0.0,0.0,0.0,0.0,3.0081,2.9473,0.0,0.0,0.0,2.781,2.76,2.76,2.76,2.76,2.76,2.76,2.76,2.76,2.76,2.76,2.76,2.76,2.76,2.76,2.76,2.76,2.76,2.76,2.7839,2.8203,2.8203,2.8468,2.8873,2.9101,2.9205,0.0,0.0,0.0,0.0,0.0,0.0,0.0,0.0,3.1099,3.0866,2.9827,2.9411,2.9002,2.7417,2.7095,2.7129,2.6658,2.6499,2.6499,2.6499,2.6499,2.6499,2.6499,2.6499,2.6499,2.6499,2.6198,0.0,0.0,0.0,0.0,0.0,0.0,0.0,0.0,0.0,0.0,0.0,0.0,0.0,0.0,0.0,0.0,0.0,0.0,0.0,2.5797,2.585,2.585,2.585,2.6912,2.7157,2.6524,2.6524,2.6058,2.5221,2.5221,2.5221,2.5231,2.5683,2.585,2.588,2.6307,2.6524,2.6483,2.6016,2.542,2.4702,2.3551,2.3091,2.3266,2.4382,2.4787,2.4957,0.0,0.0,0.0,0.0,0.0,0.0,0.0,0.0,3.076,0.0,0.0,0.0,0.0,2.8756,0.0,0.0,2.7835,2.76,2.76,2.76,2.76,2.76,2.76,2.76,2.76,2.76,2.76,2.76,2.76,2.76,2.76,2.76,2.7705,2.7929,2.7929,2.8304,2.8906,2.8906,2.916,2.9621,2.9816,2.9864,0.0,0.0,0.0,0.0,0.0,0.0,0.0,0.0,3.1511,3.1307,3.0133,3.0011,2.9889,2.7887,2.7484,2.7517,2.6714,2.6499,2.6499,2.6499,2.6499,2.6499,2.6499,2.6499,2.6499,2.6499,2.6499,2.6198,2.5194,0.0,0.0,0.0,0.0,0.0,0.0,0.0,0.0,0.0,0.0,0.0,0.0,0.0,0.0,0.0,0.0,0.0,0.0,2.7005,2.7005,2.7005,2.8068,2.8279,2.7557,2.7545,2.7545,2.7545,2.7545,2.718,2.6513,2.6842,2.7005,2.7046,2.7383,2.7545,2.7504,2.7128,2.6337,2.5252,2.4478,2.4178,2.4307,2.541,2.5859,2.5983,0.0,0.0,0.0,0.0,0.0,0.0,0.0,0.0,3.0293,3.0272,2.9761,0.0,0.0,0.0,0.0,0.0,2.76,2.76,2.76,2.76,2.76,2.76,2.76,2.76,2.76,2.76,2.76,2.76,2.76,2.76,2.76,2.76,2.7974,2.8607,2.8607,2.8981,2.9621,2.9621,2.9621,2.9681,3.0268,3.0507,3.0582,0.0,0.0,0.0,0.0,0.0,0.0,0.0,3.1511,3.1511,3.1511,3.097,3.0133,2.9254,2.8363,2.7537,2.6714,2.6499,2.6499,2.6499,0.0,0.0,2.6499,2.6499,2.6499,2.6499,2.6499,2.6198,2.5194,0.0,0.0,0.0,0.0,0.0,0.0,0.0,0.0,0.0,0.0,0.0,0.0,0.0,0.0,0.0,0.0,0.0,0.0,2.8096,2.8096,2.8136,2.9197,2.9792,2.9792,2.9792,2.9792,2.9792,2.9792,2.8673,2.6565,2.7643,2.8136,2.8176,2.9326,2.9792,2.9702,2.8557,2.7481,2.6513,2.6524,2.6524,2.6637,2.7683,2.8096,2.8255,0.0,0.0,0.0,0.0,0.0,0.0,0.0,0.0,2.9518,2.9088,2.8873,0.0,0.0,0.0,0.0,0.0,0.0,2.76,2.76,2.76,2.76,2.76,2.76,2.76,2.76,2.76,2.76,2.76,2.76,2.7839,2.8293,2.8293,2.8652,2.928,2.928,2.9639,3.0223,3.0223,3.0507,3.0943,3.1122,3.1197,3.1227,0.0,0.0,0.0,0.0,0.0,0.0,0.0,0.0,0.0,3.0837,3.0866,3.0748,2.8684,2.833,2.8298,2.6871,2.6499,0.0,2.6499,0.0,0.0,0.0,2.6499,0.0,0.0,2.6499,2.6418,2.6094,0.0,0.0,0.0,0.0,0.0,0.0,0.0,0.0,0.0,0.0,0.0,0.0,0.0,0.0,0.0,0.0,0.0,0.0,2.8557,2.8466,2.9275,2.9624,2.9792,2.9792,2.9792,2.9792,2.9792,2.9792,2.9456,2.8831,2.9157,2.9287,2.9314,2.9663,2.9792,2.9702,2.8557,2.7924,2.7562,2.6801,2.6524,2.6637,2.7683,2.8096,2.8255,0.0,0.0,0.0,0.0,0.0,0.0,2.9935,2.9429,2.8919,2.8559,2.8286,2.7993,0.0,0.0,0.0,2.76,2.76,2.76,2.76,2.76,2.76,2.76,2.76,2.772,2.8004,2.8004,2.8139,2.8393,2.8139,2.8349,2.8996,2.8996,2.9325,2.9953,2.9953,3.0313,3.0883,3.0568,3.0849,3.1467,3.1161,3.1219,3.1511,0.0,0.0,0.0,0.0,0.0,0.0,0.0,0.0,0.0,3.0925,3.1117,3.1058,2.8876,2.8588,2.862,2.6973,2.6499,0.0,2.6499,2.6499,2.6499,2.6499,0.0,0.0,0.0,0.0,2.6499,0.0,0.0,0.0,0.0,0.0,0.0,0.0,0.0,0.0,0.0,0.0,0.0,0.0,0.0,0.0,0.0,0.0,0.0,0.0,2.9157,2.9106,2.9792,2.9792,2.9792,2.9792,2.9792,2.9792,2.9792,2.9792,2.9792,2.9792,2.9792,2.9792,2.9792,2.9792,2.9792,2.9753,2.9067,2.8767,2.8727,2.8039,2.7799,2.7879,2.853,2.8767,2.8858,0.0,0.0,3.0043,2.9563,0.0,0.0,2.9473,2.8873,2.8439,2.8487,2.7968,2.76,0.0,0.0,0.0,2.76,2.76,2.76,2.76,2.76,2.76,2.76,2.766,2.7989,2.8592,2.8667,2.9011,2.9696,2.9011,2.9026,2.9696,2.9696,2.9998,3.0597,3.0597,3.0913,3.1438,3.0644,3.0718,3.1322,3.0584,3.0777,3.1483,3.1556,0.0,0.0,0.0,0.0,0.0,0.0,0.0,0.0,3.1615,3.1585,3.1264,2.9518,2.9002,2.862,2.6973,2.6499,0.0,2.6499,2.6499,0.0,2.6499,2.6499,2.6499,0.0,0.0,0.0,0.0,0.0,0.0,0.0,0.0,0.0,0.0,0.0,0.0,0.0,0.0,0.0,0.0,0.0,0.0,0.0,0.0,0.0,0.0,2.9792,2.9792,2.9792,2.9792,2.9792,2.9792,2.9792,2.9792,2.9792,2.9792,2.9792,2.9792,2.9792,2.9792,2.9792,2.9792,2.9792,2.9792,2.9792,2.9792,2.9792,2.9792,2.9792,2.9792,2.9792,2.9792,2.9792,0.0,0.0,2.9695,3.0059,0.0,0.0,2.9957,2.8787,2.7944,2.8439,2.7968,2.76,2.76,2.76,0.0,2.76,2.76,2.76,2.76,2.76,2.76,2.76,2.8109,2.8442,2.8607,2.9101,2.9684,3.0313,2.9684,2.9684,3.0313,3.0313,3.0672,3.1286,3.1286,3.1376,3.1438,3.0644,3.0389,3.0554,3.0359,3.0678,3.1358,3.2035,3.2617,0.0,0.0,0.0,0.0,0.0,0.0,0.0,3.2437,3.2273,3.1842,2.9645,2.9002,2.862,2.6973,2.6499,0.0,0.0,2.6499,2.6499,2.6499,2.6499,0.0,0.0,0.0,0.0,0.0,0.0,0.0,0.0,0.0,0.0,0.0,0.0,0.0,0.0,0.0,0.0,0.0,0.0,0.0,0.0,0.0,0.0,2.9792,2.9792,2.9792,2.9792,2.9792,2.9792,2.9792,2.9792,2.9792,0.0,2.9792,2.9792,2.9792,2.9792,2.9792,2.9792,2.9792,2.9792,2.9792,2.9792,2.9792,2.9792,2.9792,2.9792,2.9792,2.9792,2.9792,2.9792,0.0,0.0,0.0,0.0,0.0,0.0,0.0,0.0,2.771,2.8018,2.781,2.76,2.76,2.76,0.0,0.0,2.76,2.76,2.76,2.7899,2.8229,2.8543,2.8876,2.9205,2.9505,2.9849,3.0342,3.0972,3.0672,3.0687,3.0972,3.0972,3.0965,3.094,3.1322,3.1058,3.0283,3.014,3.0066,3.0062,2.991,3.0558,3.17,3.2151,3.2788,3.3499,3.3499,0.0,0.0,0.0,0.0,0.0,0.0,0.0,3.2659,3.0997,3.0215,2.9564,2.8294,0.0,0.0,2.7291,0.0,2.7291,2.7291,2.7291,0.0,0.0,0.0,0.0,0.0,0.0,0.0,0.0,0.0,0.0,0.0,0.0,0.0,0.0,0.0,0.0,0.0,0.0,0.0,0.0,0.0,2.9792,2.9792,2.9792,2.9792,2.9792,2.9792,2.9792,2.9792,2.9792,2.9792,2.9792,2.9792,2.9792,2.9792,2.9792,2.9792,2.9792,2.9792,2.9792,2.9792,2.9792,2.9792,2.9792,2.9792,2.9792,2.9792,2.9792,2.9792,2.9792,0.0,0.0,0.0,0.0,0.0,0.0,0.0,0.0,0.0,2.7735,2.766,2.76,2.76,2.76,2.76,0.0,0.0,0.0,2.7779,2.8382,2.9011,2.9592,2.9711,2.9983,3.0492,3.0612,3.0928,3.1511,3.1511,3.1511,3.1511,3.1351,3.0999,3.0524,3.0984,3.0518,2.9386,2.964,2.9722,2.9711,2.9496,3.0371,3.181,3.1974,3.2675,3.3596,3.3596,3.3704,3.3844,3.3844,0.0,0.0,0.0,0.0,3.348,3.2486,3.164,3.0831,2.9994,0.0,2.8303,2.8133,2.8109,0.0,2.8109,0.0,0.0,0.0,0.0,0.0,0.0,0.0,0.0,0.0,0.0,0.0,0.0,0.0,0.0,0.0,0.0,0.0,0.0,0.0,0.0,0.0,0.0,2.9792,2.9792,2.9792,2.9792,2.9792,2.9792,2.9792,2.9792,2.9792,2.9792,2.9792,2.9792,2.9792,2.9792,2.9792,2.9792,2.9792,2.9792,2.9792,2.9792,2.9792,2.9792,2.9792,2.9792,2.9792,2.9792,2.9792,2.9792,2.9792,0.0,0.0,0.0,0.0,0.0,0.0,0.0,0.0,0.0,0.0,2.7919,2.76,2.76,2.76,2.76,2.76,2.8113,2.8472,2.8472,0.0,0.0,2.9606,3.0103,3.0417,3.0507,3.1062,3.1406,3.1511,3.1511,3.1511,3.1467,3.0807,3.0777,3.1307,3.0412,3.0337,3.076,2.9822,2.9437,2.9451,2.9425,2.991,3.0695,3.1378,3.2605,3.3917,3.3917,3.4494,3.5235,3.5235,3.5235,0.0,0.0,0.0,3.4092,3.2649,3.2108,3.1836,0.0,0.0,2.9112,0.0,2.8109,2.8109,0.0,0.0,0.0,0.0,0.0,0.0,0.0,0.0,0.0,0.0,0.0,0.0,0.0,0.0,0.0,0.0,0.0,0.0,0.0,0.0,0.0,0.0,2.9792,2.9792,2.9792,2.9792,2.9792,2.9792,2.9792,2.9792,2.9792,2.9792,2.9792,2.9792,2.9792,2.9792,2.9792,2.9792,2.9792,2.9792,2.9792,2.9792,2.9792,2.9792,2.9792,2.9792,2.9792,2.9792,2.9792,2.9792,2.9792,2.9792,0.0,0.0,0.0,0.0,0.0,0.0,0.0,0.0,0.0,0.0,0.0,2.76,2.76,2.7944,2.8169,2.8169,2.8757,2.9295,2.9639,2.9939,3.0268,3.0657,3.0913,3.1047,3.1047,3.1346,3.1511,3.1511,3.1058,3.0983,3.1243,2.9901,2.9742,3.0523,3.0002,2.9664,2.9453,2.9724,2.9558,2.9138,2.9484,3.0112,3.0884,3.1221,3.2478,3.3993,3.3993,3.4658,3.5504,3.5504,3.5504,3.5444,3.5145,0.0,0.0,0.0,3.3664,3.2892,3.1492,3.0797,3.0223,0.0,2.9051,2.9051,0.0,0.0,0.0,0.0,0.0,0.0,0.0,0.0,0.0,0.0,0.0,0.0,0.0,0.0,0.0,0.0,0.0,0.0,0.0,0.0,0.0,0.0,2.9792,2.9792,2.9792,2.9792,2.9792,2.9792,2.9792,2.9792,2.9792,2.9792,2.9792,2.9792,2.9792,2.9792,2.9792,2.9792,2.9792,2.9792,2.9792,2.9792,2.9792,2.9792,2.9792,2.9792,2.9792,2.9792,2.9792,2.9792,2.9792,2.9792,0.0,0.0,0.0,0.0,0.0,0.0,0.0,0.0,0.0,0.0,0.0,2.7854,2.7854,0.0,0.0,0.0,2.9445,3.0088,3.0717,3.0761,3.0972,3.1481,3.1511,3.1511,3.1511,3.1511,3.1511,3.1511,3.1072,3.0942,3.108,2.9709,2.9369,2.9889,2.9653,2.9232,2.8689,2.9667,2.9702,2.9189,2.9616,3.0203,3.0833,3.0833,3.1852,3.3276,3.3276,3.4075,3.5133,3.5133,3.5279,3.5504,3.5504,3.5504,0.0,0.0,0.0,0.0,0.0,0.0,3.1646,3.0457,3.0139,3.0113,0.0,0.0,0.0,0.0,0.0,0.0,0.0,0.0,0.0,0.0,0.0,0.0,0.0,0.0,0.0,0.0,0.0,0.0,0.0,0.0,0.0,0.0,2.9792,2.9792,2.9792,2.9792,2.9792,2.9792,2.9792,2.9792,2.9792,2.9792,2.9792,2.9792,2.9792,2.9792,2.9792,2.9792,2.9792,2.9792,2.9792,2.9792,2.9792,2.9792,2.9792,2.9792,2.9792,2.9792,2.9792,2.9792,2.9792,2.9792,0.0,0.0,0.0,0.0,0.0,0.0,0.0,0.0,0.0,0.0,0.0,2.8547,2.8547,2.9146,2.9562,2.9562,3.0103,3.0746,3.1406,3.1451,3.1466,3.1511,3.1511,0.0,3.1511,3.1511,3.1511,3.1511,3.2094,3.1957,3.108,3.0811,3.0513,3.0158,2.9333,2.937,3.0069,2.9897,2.978,2.9754,2.9779,2.983,2.9856,2.9856,3.0495,3.1352,3.1352,3.2522,3.4061,3.4061,3.4725,3.5504,3.5504,3.5504,3.5504,0.0,0.0,0.0,0.0,3.3842,0.0,3.1573,0.0,0.0,0.0,0.0,0.0,0.0,0.0,0.0,0.0,0.0,0.0,0.0,0.0,0.0,0.0,0.0,0.0,0.0,0.0,0.0,0.0,0.0,0.0,0.0,2.9792,2.9792,2.9792,2.9792,2.9792,2.9792,2.9792,2.9792,2.9792,2.9792,2.9792,2.9792,2.9792,2.9792,2.9792,2.9792,2.9792,2.9792,2.9792,2.9792,2.9792,2.9792,2.9792,2.9792,2.9792,2.9792,2.9792,2.9792,2.9792,2.9792,0.0,0.0,0.0,0.0,0.0,0.0,0.0,0.0,0.0,0.0,0.0,0.0,0.0,2.9789,3.0178,3.0178,3.0776,3.1241,3.1481,3.1511,3.1511,3.1511,3.1511,3.1511,3.1511,3.1914,3.2123,3.2123,3.2251,3.2011,3.1397,3.0827,3.0349,2.9922,2.9189,2.9277,2.9922,2.9845,2.9792,2.9792,2.9792,2.9792,2.9792,2.9792,3.0381,3.1217,0.0,0.0,0.0,0.0,0.0,0.0,3.5504,3.5504,3.5504,3.5504,3.5504,0.0,0.0,0.0,0.0,3.2429,0.0,0.0,0.0,0.0,0.0,0.0,0.0,0.0,0.0,0.0,0.0,0.0,0.0,0.0,0.0,0.0,0.0,0.0,0.0,0.0,0.0,0.0,0.0,0.0,0.0,2.9792,2.9792,2.9792,2.9792,2.9792,2.9792,2.9792,2.9792,2.9792,2.9792,2.9792,2.9792,2.9792,2.9792,2.9792,2.9792,2.9792,2.9792,2.9792,2.9792,2.9792,2.9792,2.9792,2.9792,2.9792,2.9792,2.9792,2.9792,2.9792,0.0,0.0,0.0,2.7899,0.0,2.8019,2.8244,2.8663,2.8936,2.8936,0.0,0.0,0.0,0.0,3.0851,3.0851,3.1241,3.1511,3.1511,3.1511,3.16,3.1824,3.1839,3.1929,3.2153,3.2378,3.2617,3.2841,3.2707,3.2262,3.1605,3.1262,3.0666,2.9779,2.939,2.9428,2.9792,2.9792,2.9792,2.9792,2.9792,2.9792,2.9792,2.9792,3.0177,0.0,0.0,0.0,0.0,0.0,0.0,0.0,3.492,3.5246,3.5504,3.5504,3.5504,0.0,3.4691,0.0,0.0,0.0,0.0,0.0,0.0,0.0,0.0,0.0,0.0,0.0,0.0,0.0,0.0,0.0,0.0,0.0,0.0,0.0,0.0,0.0,0.0,0.0,0.0,0.0,0.0,0.0,0.0,0.0,2.9792,2.9792,2.9792,2.9792,2.9792,2.9792,2.9792,2.9792,2.9792,2.9792,2.9792,2.9792,2.9792,2.9792,2.9792,2.9792,2.9792,2.9792,2.9792,2.9792,2.9792,2.9792,2.9792,2.9792,2.9792,2.9792,2.9792,2.9792,2.766,2.766,2.7869,2.8517,2.8622,2.8846,2.9517,2.9621,2.9636,2.9636,0.0,0.0,0.0,0.0,0.0,3.1525,3.1525,3.154,3.157,3.157,3.1854,3.2512,3.2542,3.2841,3.3484,3.2886,3.2886,3.3529,3.3514,3.2853,3.1633,3.226,3.1586,2.9792,2.9792,2.9792,2.9792,2.9792,2.9792,2.9792,2.9792,2.9792,2.9792,2.9792,0.0,0.0,2.9792,3.0419,0.0,3.1217,0.0,0.0,0.0,3.4725,3.5504,3.5504,3.5504,0.0,0.0,0.0,0.0,0.0,0.0,0.0,0.0,0.0,0.0,0.0,0.0,0.0,0.0,0.0,0.0,0.0,0.0,0.0,0.0,0.0,0.0,0.0,0.0,0.0,0.0,0.0,0.0,0.0,2.9792,2.9792,2.9792,2.9792,2.9792,2.9792,2.9792,2.9792,2.9792,2.9792,2.9792,2.9792,2.9792,2.9792,2.9792,2.9792,2.9792,2.9792,2.9792,2.9792,2.9792,2.9792,2.9792,2.9792,2.9792,2.9792,2.9792,2.9792,2.9792,2.9792,2.9052,2.9052,2.9112,2.9307,2.931,2.9397,2.9577,2.9968,3.0253,0.0,0.0,0.0,3.1212,3.1391,3.1705,3.2168,3.2213,3.2437,3.2916,3.2961,3.3036,3.3215,3.3215,3.3305,3.3499,3.3784,3.4054,3.4234,3.398,3.3345,3.2323,3.182,3.0945,2.9792,2.9792,2.9792,2.9792,2.9792,2.9792,2.9792,2.9792,2.9792,2.9792,0.0,0.0,0.0,0.0,3.0419,3.1217,0.0,3.2285,3.3774,0.0,3.5279,3.5504,3.5504,3.5504,0.0,3.5504,0.0,0.0,0.0,0.0,0.0,3.3345,3.2177,0.0,0.0,0.0,0.0,0.0,0.0,0.0,0.0,0.0,0.0,0.0,0.0,0.0,0.0,0.0,0.0,0.0,0.0,0.0,0.0,2.9792,2.9792,2.9792,2.9792,2.9792,2.9792,2.9792,2.9792,2.9792,2.9792,2.9792,2.9792,2.9792,2.9792,2.9792,2.9792,2.9792,2.9792,2.9792,2.9792,2.9792,2.9792,2.9792,2.9792,2.9792,2.9792,2.9792,2.9792,2.9792,2.9792,2.9606,2.9606,2.9696,2.9924,2.9968,3.0058,3.0357,3.0702,3.0913,0.0,0.0,0.0,3.1884,3.2153,3.2497,3.2886,3.2916,3.308,3.3469,3.3499,3.3619,3.3888,3.3934,3.4038,3.4322,3.4427,3.4433,3.4283,3.3844,3.3071,3.1997,3.1462,3.0696,2.9792,2.9792,2.9792,2.9792,2.9792,2.9792,2.9792,2.9792,2.9792,0.0,2.9792,2.9792,0.0,0.0,0.0,3.0633,3.0633,3.1865,0.0,0.0,0.0,0.0,3.5504,3.5504,0.0,0.0,0.0,0.0,0.0,0.0,0.0,3.3602,3.2558,3.1573,0.0,0.0,0.0,0.0,0.0,0.0,0.0,0.0,0.0,0.0,0.0,0.0,0.0,0.0,0.0,0.0,2.9792,2.9792,2.9792,2.9792,2.9792,2.9792,2.9792,2.9792,2.9792,2.9792,2.9792,2.9792,2.9792,2.9792,2.9792,2.9792,2.9792,2.9792,2.9792,2.9792,2.9792,2.9792,2.9792,2.9792,2.9792,2.9792,2.9792,2.9792,2.9792,2.9792,2.9792,2.9792,2.9792,0.0,2.9804,2.9968,3.0522,3.0612,3.0821,3.1406,3.1511,3.1525,0.0,3.1675,3.1944,3.2557,3.314,3.3529,3.3589,3.3604,3.3634,3.3709,3.3724,3.3978,3.4593,3.4623,3.4876,3.5489,3.4906,3.446,3.4177,3.3427,3.2444,3.1352,3.1143,3.0582,2.9792,2.9792,2.9829,2.988,2.988,2.988,2.988,2.9817,2.9792,0.0,0.0,2.9792,2.9792,2.9792,2.9792,2.983,2.9934,3.1057,0.0,0.0,0.0,0.0,0.0,3.5504,0.0,0.0,0.0,0.0,0.0,0.0,0.0,3.3325,3.2855,3.2285,0.0,0.0,0.0,0.0,0.0,0.0,0.0,0.0,0.0,0.0,0.0,0.0,0.0,0.0,0.0,2.9792,2.9792,2.9792,2.9792,2.9792,2.9792,2.9792,2.9792,2.9792,2.9792,2.9792,2.9792,2.9792,2.9792,2.9792,2.9792,2.9792,2.9792,2.9792,2.9792,2.9792,2.9792,2.9792,2.9792,2.9792,2.9792,2.9792,2.9792,2.9792,2.9792,2.9792,2.9792,2.9792,2.9792,3.1122,3.1122,3.1167,3.1286,3.1301,3.1346,3.1481,3.1511,3.169,3.2228,3.2781,3.3155,3.329,3.3425,3.3709,3.4279,3.4309,3.4517,3.507,3.5115,3.5175,3.5295,3.5295,3.537,3.5504,3.537,3.5257,3.5213,3.3522,3.2567,3.2285,3.0771,2.9972,2.9792,2.9792,3.0043,3.0457,3.0457,3.0457,3.0419,2.9967,0.0,2.9792,2.9792,2.9792,2.9792,2.9792,2.9792,2.9934,3.0658,3.118,3.1742,0.0,0.0,0.0,0.0,0.0,0.0,0.0,0.0,0.0,0.0,0.0,0.0,3.5034,3.4293,3.3636,0.0,0.0,0.0,0.0,0.0,0.0,0.0,0.0,0.0,0.0,0.0,0.0,0.0,0.0,0.0,2.9792,2.9792,2.9792,2.9792,2.9792,2.9792,2.9792,2.9792,2.9792,2.9792,2.9792,2.9792,2.9792,2.9792,2.9792,2.9792,2.9792,2.9792,2.9792,2.9792,2.9792,2.9792,2.9792,2.9792,2.9792,2.9792,2.9792,2.9792,2.9792,2.9792,2.9792,2.9792,2.9792,2.9792,3.1511,3.1511,3.1511,3.1511,3.1511,3.1615,3.1944,3.1989,3.2228,3.2916,3.3574,3.3978,3.3978,3.3868,3.3859,3.4229,3.3833,3.3696,3.4027,3.4476,3.4543,3.409,3.4986,3.5279,3.4758,3.5246,3.5034,3.4056,3.3066,3.2105,3.1169,3.0254,2.9792,2.9804,3.008,3.0357,3.0633,3.0896,3.0997,3.0947,3.0419,0.0,2.9792,2.9792,2.9792,2.9792,2.9792,2.9792,2.9856,3.0343,3.1119,0.0,0.0,3.3602,3.4758,0.0,3.51,3.5504,0.0,0.0,0.0,3.5504,0.0,0.0,0.0,3.4361,3.3876,0.0,0.0,0.0,0.0,0.0,0.0,0.0,0.0,0.0,0.0,0.0,0.0,0.0,0.0,0.0,2.9869,2.9792,2.9792,2.9792,2.9792,2.9792,2.9792,2.9792,2.9792,2.9792,2.9792,2.9792,2.9792,2.9792,2.9792,2.9792,2.9792,2.9792,2.9792,2.9792,2.9792,2.9792,2.9792,2.9792,2.9792,2.9792,2.9792,2.9792,2.9792,2.9792,2.9792,2.9792,2.9792,2.9792,3.1555,3.16,3.169,3.169,3.1795,3.2064,3.2617,3.2706,3.2885,3.3373,3.3981,3.4335,3.4142,3.3893,3.3739,3.3739,3.3031,3.2593,3.2593,3.331,3.338,3.2629,3.409,3.4543,3.3739,3.4524,3.4158,3.2593,3.2429,3.1603,3.0227,3.0059,3.0005,3.0118,3.057,3.0821,3.0959,3.1373,0.0,3.1512,0.0,3.0595,3.0105,3.0105,3.0105,3.008,2.998,2.988,2.9792,2.9792,3.0921,3.2249,3.1633,3.3185,0.0,0.0,0.0,0.0,0.0,0.0,0.0,0.0,0.0,3.5279,0.0,0.0,0.0,0.0,0.0,0.0,0.0,0.0,0.0,0.0,0.0,0.0,0.0,0.0,0.0,0.0,0.0,0.0,0.0,3.0075,3.0075,3.0075,3.0075,3.0011,2.9792,2.9792,2.9792,2.9792,2.9792,2.9792,2.9792,2.9792,2.9792,2.9792,2.9792,2.9792,2.9792,2.9792,2.9792,2.9792,2.9792,2.9792,2.9792,2.9792,2.9792,2.9792,2.9792,2.9792,2.9792,2.9792,2.9792,2.9792,3.1735,3.1974,3.2378,3.2378,3.2886,3.3305,3.3365,3.338,3.3326,3.3177,3.3686,3.3742,3.2919,3.2778,3.2749,3.2749,3.2664,3.2593,3.2593,3.2713,3.2713,3.2593,3.282,3.289,3.2749,3.2855,3.282,3.2593,3.1779,3.1481,3.173,3.0916,3.0771,3.121,3.1273,3.1574,3.2039,0.0,3.2127,0.0,3.2051,3.17,0.0,3.121,3.121,3.1148,3.0683,3.0206,2.9792,0.0,3.0482,3.1499,0.0,3.3241,3.4312,0.0,0.0,0.0,0.0,0.0,0.0,0.0,3.5504,0.0,0.0,0.0,0.0,0.0,0.0,0.0,0.0,0.0,0.0,0.0,0.0,0.0,0.0,0.0,0.0,0.0,0.0,0.0,0.0,3.1044,3.1044,3.1044,3.1044,3.0696,2.9818,2.9792,2.9792,2.9792,2.9792,2.9792,2.9792,2.9792,2.9792,2.9792,2.9792,2.9792,2.9792,2.9792,2.9792,2.9792,2.9792,2.9792,2.9792,2.9792,2.9792,2.9792,2.9792,2.9792,2.9792,2.9792,2.9792,2.9792,3.2781,3.2901,3.308,3.308,3.3305,3.3619,3.4008,3.4397,3.423,3.2984,3.3514,3.3636,3.2713,3.2105,0.0,0.0,0.0,3.0996,0.0,0.0,3.1536,3.0996,3.2336,3.2805,3.2253,3.3124,3.3301,3.2726,3.2323,3.1967,3.1637,3.1248,3.1185,3.1399,3.1725,0.0,3.224,0.0,3.2717,0.0,0.0,0.0,0.0,3.1637,3.1386,3.1361,3.1148,3.0721,3.0269,0.0,3.0689,0.0,0.0,0.0,0.0,0.0,0.0,0.0,0.0,0.0,0.0,0.0,0.0,0.0,3.5504,0.0,3.5504,0.0,0.0,0.0,0.0,0.0,0.0,0.0,3.531,0.0,0.0,0.0,0.0,0.0,0.0,0.0,0.0,0.0,0.0,0.0,3.1217,3.0796,2.9869,2.9792,2.9792,2.9792,2.9792,2.9792,2.9792,2.9792,2.9792,2.9792,2.9792,2.9792,2.9792,2.9792,2.9792,2.9792,2.9792,2.9792,2.9792,2.9792,2.9792,2.9792,2.9792,2.9792,2.9792,2.9792,2.9792,2.9792,3.4053,3.3888,3.3769,3.3769,3.3702,3.3701,3.3932,3.4854,3.4706,3.25,3.3031,3.3171,3.1974,3.1217,0.0,0.0,3.0177,2.9854,0.0,0.0,3.0816,3.0258,0.0,0.0,3.1863,3.293,3.3143,3.2409,3.2409,3.2153,3.1612,3.1612,3.17,3.1863,3.2265,3.2453,3.2478,0.0,3.3124,3.3124,3.3124,3.3124,3.3023,3.2164,3.175,3.1612,3.1612,3.1273,3.0834,3.0834,3.1074,0.0,3.0612,0.0,0.0,0.0,0.0,0.0,3.51,0.0,0.0,0.0,0.0,0.0,0.0,0.0,0.0,0.0,0.0,0.0,0.0,0.0,0.0,0.0,0.0,3.5444,0.0,0.0,0.0,0.0,0.0,0.0,0.0,0.0,0.0,0.0,0.0,3.1291,3.0608,3.0075,2.9934,3.0177,2.9934,2.9792,2.9792,2.9792,2.9792,2.9792,2.9792,2.9792,2.9792,2.9792,2.9792,2.9792,2.9792,2.9792,2.9792,2.9792,2.9792,2.9792,2.9792,2.9792,2.9792,2.9792,2.9792,2.9792,3.5444,3.4906,3.4474,3.4474,3.4193,3.3682,3.2778,3.4293,3.4491,3.1609,0.0,0.0,0.0,0.0,0.0,0.0,0.0,3.0018,3.0557,0.0,3.0849,0.0,0.0,3.1442,0.0,3.1455,3.1468,3.1427,3.1427,3.1703,3.219,3.219,3.2491,3.3074,3.3043,3.3056,3.3056,3.3111,3.3124,3.3124,3.3124,3.3124,3.3124,0.0,3.2667,3.219,3.219,0.0,0.0,3.1361,3.1625,0.0,0.0,0.0,0.0,0.0,0.0,0.0,0.0,0.0,0.0,3.5504,0.0,0.0,0.0,0.0,3.5504,0.0,0.0,0.0,0.0,0.0,3.5295,3.4653,3.507,0.0,0.0,0.0,0.0,0.0,0.0,0.0,0.0,0.0,0.0,0.0,0.0,0.0,3.25,3.0784,3.0203,3.1143,3.0279,2.9792,2.9792,2.9792,2.9792,2.9792,2.9792,2.9792,2.9792,2.9792,2.9792,2.9792,2.9792,2.9792,2.9792,2.9792,2.9792,2.9792,2.9792,2.9792,2.9792,2.9792,2.9792,2.9792,3.3581,3.3902,3.4159,3.4159,3.41,3.3449,3.1924,3.329,3.3478,0.0,0.0,0.0,0.0,3.0331,3.047,0.0,0.0,3.0934,3.1122,3.1135,0.0,0.0,0.0,3.1938,0.0,0.0,3.2546,3.2546,3.2546,3.2604,3.278,3.278,3.288,3.3124,3.3124,3.3124,0.0,0.0,0.0,0.0,0.0,3.3124,3.3124,0.0,3.2955,3.278,3.278,3.2416,0.0,3.1938,3.1795,3.1594,3.1594,3.1876,3.232,3.2946,3.309,0.0,0.0,0.0,3.4509,3.4509,0.0,0.0,0.0,0.0,0.0,0.0,0.0,0.0,0.0,0.0,3.5429,3.519,3.5355,3.5429,0.0,0.0,0.0,0.0,0.0,0.0,0.0,0.0,0.0,0.0,3.3705,0.0,3.2629,3.201,3.1513,3.1217,3.0895,3.0419,2.9792,2.9792,2.9792,2.9792,2.9792,2.9792,2.9792,2.9792,2.9792,2.9792,2.9792,2.9792,2.9792,2.9792,2.9792,2.9792,2.9792,2.9792,2.9869,3.0482,3.0317,2.9792,3.2593,3.3101,3.3484,3.3484,3.3484,3.2925,3.1245,3.2577,0.0,0.0,3.119,0.0,3.0966,0.0,3.1022,0.0,3.1386,3.1474,3.1675,3.1687,0.0,3.1976,3.234,0.0,0.0,0.0,0.0,0.0,3.3124,3.3124,3.3124,3.3124,3.3124,3.3124,3.3124,3.3124,3.3124,3.3124,3.3124,0.0,0.0,3.3124,0.0,0.0,3.3124,3.3124,0.0,3.283,3.2516,3.2516,3.2152,3.1687,3.1687,3.1718,3.1863,3.2294,3.262,3.2977,3.3367,3.3993,0.0,3.4543,3.5019,0.0,3.5504,0.0,0.0,0.0,0.0,0.0,0.0,0.0,3.5504,3.5504,3.5504,3.5504,0.0,3.5504,0.0,0.0,0.0,0.0,0.0,0.0,0.0,3.4576,3.4211,3.3891,0.0,0.0,3.25,3.2213,3.1536,3.0895,3.0317,3.0317,3.0139,2.9792,3.0139,3.0101,2.9792,2.9792,2.9792,2.983,3.0139,3.0317,3.0317,3.0671,3.0822,3.0822,3.0822,3.0822,3.0771,3.0733,3.052,3.0241,3.2547,3.2547,3.2547,3.2583,3.2591,3.2144,0.0,0.0,3.2909,0.0,3.2183,3.2422,3.1546,3.1436,3.1436,3.1474,3.1474,0.0,3.2227,3.2252,0.0,0.0,3.3124,3.3124,3.3124,0.0,0.0,0.0,0.0,3.3124,3.3124,3.3124,3.3124,3.3124,3.3124,0.0,3.3124,3.3124,3.3124,3.3124,3.3124,3.3124,3.3124,3.3124,3.3124,3.3124,3.3124,3.3124,3.3124,3.3124,3.2717,3.2252,3.2252,3.1876,3.1336,3.0874,3.1938,3.3189,3.2778,3.3982,3.5404,3.5407,3.5472,0.0,0.0,0.0,3.5504,0.0,0.0,0.0,0.0,0.0,0.0,3.5504,3.5504,3.5504,3.5504,0.0,0.0,0.0,0.0,0.0,0.0,0.0,3.5504,3.5504,3.461,3.4495,0.0,0.0,3.3136,3.3993,3.2285,3.1315,3.1278,3.1278,3.0796,2.9895,3.0833,3.0771,2.9856,2.9934,2.9934,3.0011,3.0871,3.1278,3.1352,3.2249,3.2593,3.2593,3.2593,3.2593,3.2393,3.0533,3.0419,3.1068,3.1718,3.1718,3.1941,3.2639,3.2433,3.1935,3.1286,0.0,0.0,0.0,3.1618,3.181,3.1993,3.2001,3.2177,3.2604,3.2641,0.0,0.0,0.0,0.0,3.3111,3.3124,3.3124,3.3124,3.3124,0.0,3.3124,0.0,3.3124,3.3124,3.3124,3.3124,3.3124,3.3124,3.3124,3.3124,3.3124,3.3124,3.3124,3.3124,3.3124,3.3124,0.0,3.3124,3.3124,3.3124,3.3124,3.3124,3.3124,3.298,3.2855,3.2855,3.2466,3.2088,3.2713,3.2432,3.2098,3.2958,3.3559,3.4009,3.4293,3.4953,3.5504,0.0,0.0,0.0,0.0,0.0,0.0,0.0,0.0,0.0,0.0,3.5504,0.0,0.0,0.0,0.0,3.5504,0.0,0.0,0.0,0.0,3.5504,3.5504,3.5246,3.5246,0.0,0.0,0.0,3.4027,3.3518,3.2961,3.2249,3.2249,3.1792,3.0871,3.1792,3.1756,3.0871,3.1536,3.1865,3.1901,3.2141,3.2249,3.2249,3.25,3.2593,3.2593,3.2593,3.2593,3.2464,3.1291,3.1007,3.118,3.1386,3.1386,0.0,3.2397,0.0,3.1996,3.1782,3.2204,0.0,3.2172,3.2127,0.0,3.2554,3.2591,3.2717,3.3056,3.3124,0.0,3.3124,0.0,0.0,3.3124,3.3124,3.3124,3.3124,3.3124,0.0,3.3124,0.0,3.3124,3.3124,3.3124,3.3124,3.3124,3.3124,3.3124,3.3124,3.3124,3.3124,3.3124,3.3124,3.3124,0.0,3.3124,3.3124,3.3124,3.3124,3.3124,3.3124,3.3124,3.3124,3.3124,3.3124,3.317,3.3369,3.367,3.3741,3.3862,3.439,3.4633,3.4821,3.5054,3.5307,3.5504,3.5504,3.5504,3.5504,0.0,3.5504,3.5504,0.0,0.0,0.0,0.0,0.0,0.0,0.0,0.0,0.0,0.0,0.0,0.0,0.0,3.5504,3.5504,3.5504,3.5504,3.5504,0.0,0.0,0.0,3.4691,3.4245,3.3739,3.3206,3.3206,3.2749,3.1815,3.2749,3.2713,3.1815,3.2357,3.2593,3.2629,3.3031,3.3206,3.3241,3.3685,3.3871,3.3871,3.3871,3.3616,3.3136,3.2629,3.2429,3.2393,3.1612,0.0,0.0,0.0,0.0,0.0,0.0,3.2328,0.0,3.3048,0.0,3.3124,3.3124,3.3124,3.3124,3.3124,0.0,3.3124,3.3124,3.3124,3.3124,3.3124,3.3124,3.3124,3.3124,3.3124,0.0,0.0,0.0,3.3124,3.3124,3.3124,3.3124,3.3124,3.3124,0.0,0.0,3.3124,3.3124,3.3124,3.3124,3.3124,3.3124,3.3124,3.3124,3.3124,3.3124,3.3124,3.3124,3.3124,3.3124,3.3124,3.3124,3.3755,3.4406,3.3881,3.5036,3.645,3.602,3.6213,3.6567,3.6593,3.6118,3.5624,3.5624,3.5564,3.5504,3.5504,3.5504,3.5504,0.0,0.0,0.0,0.0,0.0,0.0,0.0,0.0,0.0,0.0,0.0,0.0,0.0,0.0,3.5504,3.5504,3.5504,0.0,0.0,0.0,0.0,3.5504,3.4658,3.4211,3.4211,0.0,3.3705,3.2784,3.3739,3.3705,3.2784,3.2925,3.2996,3.3031,3.3856,3.4211,3.4245,3.5133,3.5504,3.5504,3.5504,3.4953,3.4211,3.4211,3.4211,3.4061,0.0,0.0,0.0,0.0,0.0,3.2918,3.2918,3.2918,3.2968,3.3111,3.3124,3.3124,3.3124,3.3124,3.3124,3.3124,3.3124,0.0,0.0,0.0,0.0,3.3124,3.3124,3.3124,3.3124,3.3124,3.3124,0.0,0.0,3.3124,3.3124,3.3124,3.3124,3.3124,3.3124,0.0,3.3124,3.3124,0.0,3.3124,3.3124,3.3124,3.3124,3.3124,3.3124,3.3124,3.3124,3.3124,3.3124,3.3124,3.3124,3.3124,3.3124,3.324,3.3386,3.3229,3.4118,3.513,3.5355,3.6088,3.6815,3.7154,3.6776,3.6312,3.6312,3.5893,3.5504,3.5504,3.5504,3.5504,3.5504,0.0,0.0,0.0,0.0,0.0,0.0,0.0,0.0,0.0,0.0,0.0,0.0,0.0,0.0,0.0,0.0,0.0,0.0,0.0,0.0,0.0,3.5326,0.0,0.0,0.0,3.4739,3.3774,3.4758,3.4739,3.3774,3.4624,3.5001,3.5001,3.518,3.5246,3.5246,3.5439,3.5504,3.5504,3.5504,3.5392,3.5246,3.5246,3.5246,3.51,0.0,0.0,0.0,0.0,0.0,0.0,0.0,3.3124,0.0,3.3124,3.3124,3.3124,3.3124,3.3124,3.3124,3.3124,3.3124,3.3124,3.3124,3.3124,3.3124,3.3124,3.3124,0.0,3.3124,3.3124,3.3124,3.3124,0.0,3.3124,3.3124,3.3124,3.3124,3.3124,3.3124,3.3124,0.0,0.0,0.0,3.3124,3.3124,3.3124,3.3124,3.3124,3.3124,3.3124,3.3124,3.3124,3.3124,3.3124,3.3124,3.3124,3.3124,3.3471,3.3911,3.3911,3.5061,3.6341,3.6515,3.7123,3.7691,3.7883,3.7434,3.6881,3.6552,3.6237,3.5923,3.5579,3.5504,3.5504,3.5504,3.5504,0.0,0.0,0.0,0.0,0.0,0.0,0.0,0.0,0.0,0.0,0.0,0.0,0.0,0.0,0.0,0.0,0.0,0.0,0.0,0.0,0.0,0.0,0.0,0.0,0.0,3.4758,3.5279,3.5246,3.4791,3.5279,3.5504,3.5504,3.5504,3.5504,3.5504,3.5504,3.5504,3.5504,3.5504,3.5504,3.5504,3.5504,3.5504,3.5424,0.0,3.3124,0.0,0.0,3.3124,0.0,3.3124,3.3124,3.3124,3.3124,3.3124,3.3124,3.3124,3.3124,3.3124,3.3124,3.3124,3.3124,3.3124,3.3124,3.3124,3.3124,3.3124,3.3124,3.3124,3.3124,3.3124,0.0,0.0,0.0,3.3124,3.3124,3.3124,3.3124,0.0,0.0,0.0,0.0,3.3124,3.3124,3.3124,3.3124,3.3124,3.3124,3.3124,3.3124,3.3124,3.3124,3.3124,3.3124,3.3124,3.3154,3.3356,3.4037,3.4746,3.4979,3.6318,3.7791,3.7791,3.8201,3.8601,3.8601,3.8108,3.7494,3.7,3.6671,3.6342,3.5818,3.5609,3.5504,3.5504,3.5504,0.0,0.0,0.0,0.0,0.0,0.0,0.0,0.0,0.0,0.0,0.0,0.0,0.0,0.0,0.0,3.5504,3.5504,3.5504,3.5504,0.0,0.0,3.5504,3.5504,0.0,3.5504,3.5504,3.5504,3.5504,3.5504,3.5504,3.5504,3.5504,3.5504,3.5504,3.5504,3.5504,3.5504,3.5504,3.5504,3.5504,3.5504,3.5504,3.5504,3.5504,0.0,0.0,0.0,0.0,0.0,0.0,3.3124,3.3124,3.3124,3.3124,3.3124,3.3124,3.3124,3.3124,3.3124,3.3124,3.3124,3.3124,3.3124,3.3124,3.3124,3.3124,3.3124,3.3124,3.3124,3.3124,3.3124,0.0,0.0,3.3124,0.0,3.3124,3.3124,0.0,0.0,0.0,0.0,3.3124,3.3124,3.3124,3.3124,3.3124,3.3124,3.3124,3.3124,3.3124,3.3124,3.3124,3.3124,3.3124,3.3124,3.3283,3.4233,3.4622,3.4856,3.5774,3.6905,3.7791,3.7791,3.8539,3.9334,3.9334,3.8811,3.8287,3.8227,3.7315,3.6477,3.6417,3.5923,3.5504,3.5504,3.5504,3.5504,0.0,0.0,0.0,0.0,0.0,0.0,0.0,0.0,0.0,0.0,3.5504,0.0,0.0,3.5504,3.5504,3.5504,3.5504,3.5504,3.5504,0.0,3.5504,3.5504,3.5504,3.5504,3.5504,3.5504,3.5504,3.5504,3.5504,3.5504,3.5504,3.5504,3.5504,3.5504,3.5504,3.5504,3.5504,3.5504,3.5504,3.5504,3.5504,3.5504,3.5504,0.0,0.0,0.0,0.0,0.0,0.0,0.0,3.3124,3.3124,3.3124,3.3124,3.3124,3.3124,3.3124,3.3124,3.3124,3.3124,3.3124,3.3124,3.3124,3.3124,3.3124,3.3124,3.3124,3.3124,3.3124,3.3124,0.0,0.0,0.0,0.0,0.0,0.0,0.0,0.0,3.3124,3.3124,3.3124,3.3124,3.3124,3.3124,3.3124,3.3124,3.3124,3.3124,3.3124,3.3124,3.3124,3.3124,3.3124,3.3124,3.3154,3.3598,3.4191,3.4787,3.517,3.6476,3.7791,3.7791,3.8583,3.9388,3.9388,3.9215,3.8901,3.8482,3.8003,3.7524,3.712,3.6537,3.5968,3.5579,3.5504,3.5504,3.5504,0.0,0.0,0.0,0.0,0.0,0.0,0.0,0.0,0.0,0.0,3.5504,0.0,0.0,3.5504,3.5504,3.5504,0.0,3.5504,0.0,3.5504,3.5504,3.5504,3.5504,3.5504,3.5504,3.5504,3.5504,3.5504,3.5504,3.5504,3.5504,3.5504,3.5504,3.5504,3.5504,3.5504,3.5504,3.5504,3.5504,3.5504,3.5504,3.5564,3.3124,0.0,3.3124,0.0,3.3124,3.3124,3.3124,3.3124,3.3124,3.3124,3.3124,3.3124,3.3124,3.3124,3.3124,3.3124,3.3124,3.3124,3.3124,3.3124,3.3124,3.3124,3.3124,0.0,3.3124,3.3124,3.3124,3.3124,3.3124,0.0,0.0,0.0,0.0,0.0,3.3124,3.3124,3.3124,3.3124,3.3124,3.3124,3.3124,3.3124,3.3124,3.3124,3.3124,3.3124,3.3124,3.3313,3.3556,3.3556,3.3755,3.3982,3.367,3.4304,3.521,3.5534,3.688,3.8271,3.8271,3.8819,3.9388,3.9388,3.9388,3.929,3.8796,3.8542,3.8197,3.7539,3.706,3.6567,3.5908,3.5789,3.5729,3.5534,0.0,0.0,0.0,0.0,0.0,0.0,3.5504,3.5504,3.5504,3.5504,0.0,0.0,0.0,0.0,0.0,0.0,0.0,0.0,0.0,0.0,3.5504,3.5504,3.5504,3.5504,3.5504,3.5504,3.5504,3.5504,3.5504,3.5504,3.5504,3.5504,3.5504,3.5504,3.5504,3.5504,3.5504,3.5504,3.5504,3.5504,3.5504,3.5609,3.3124,3.3124,3.3124,3.3124,3.3124,3.3124,3.3124,3.3124,3.3124,3.3124,3.3124,3.3124,3.3124,3.3124,3.3124,3.3124,3.3124,3.3124,3.3124,3.3124,3.3124,0.0,0.0,3.3124,3.3124,3.3124,3.3124,3.3124,0.0,0.0,3.3124,0.0,3.3124,3.3124,3.3124,3.3124,3.3124,3.3124,3.3124,3.3124,3.3124,3.3124,3.3124,3.3124,3.3124,3.3124,3.3124,3.3797,3.4664,3.4664,3.5319,3.6013,3.4979,3.5359,3.6408,3.7472,3.8546,3.9388,3.9388,3.9388,3.9388,3.9388,3.9388,3.9388,3.9373,3.8886,3.8197,3.7539,3.7404,3.721,3.6596,3.6477,3.6267,3.5609,0.0,0.0,0.0,0.0,0.0,0.0,3.5504,3.5504,3.5504,3.5504,0.0,0.0,0.0,0.0,0.0,0.0,0.0,3.5504,3.5504,0.0,3.5504,3.5504,3.5504,3.5504,3.5504,3.5504,3.5504,3.5504,3.5504,3.5504,3.5504,3.5504,3.5504,3.5504,3.5504,3.5504,3.5504,3.5504,3.5504,3.5504,3.5504,3.5609,3.3124,3.3124,3.3124,3.3124,3.3124,3.3124,3.3124,3.3124,3.3124,3.3124,3.3124,3.3124,3.3124,3.3124,3.3124,0.0,3.3124,3.3124,0.0,3.3124,3.3124,3.3124,3.3124,3.3124,3.3124,3.3124,3.3124,3.3124,0.0,0.0,0.0,3.3124,3.3124,3.3124,3.3124,3.3124,3.3124,3.3124,3.3124,3.3124,3.3124,3.3124,3.3124,3.3124,3.3124,3.3124,3.3124,3.3313,3.3713,3.447,3.4897,3.5238,3.5628,3.6462,3.7343,3.7715,3.8546,3.9388,3.9388,3.9388,3.9388,3.9388,3.9388,3.9388,3.9388,3.9245,3.8901,3.8212,3.8078,3.7883,3.7225,3.712,3.7045,3.6836,3.6447,0.0,0.0,0.0,0.0,0.0,3.5504,3.5504,3.5504,3.5504,0.0,0.0,0.0,0.0,0.0,0.0,0.0,0.0,3.5504,0.0,3.5504,3.5504,3.5504,3.5504,3.5504,3.5504,3.5504,3.5504,3.5504,3.5504,3.5504,3.5504,3.5504,3.5504,3.5504,3.5504,3.5504,3.5504,3.5504,3.5504,3.5789,3.6267,3.3124,3.3124,3.3124,3.3124,3.3124,3.3124,3.3124,3.3124,3.3124,3.3124,3.3124,3.3124,3.3124,3.3124,0.0,3.3124,3.3124,3.3124,3.3124,3.3124,3.3124,3.3124,3.3124,3.3124,3.3124,3.3124,0.0,3.3124,3.3124,3.3124,3.3124,3.3124,3.3124,3.3124,3.3124,3.3124,3.3124,3.3124,3.3124,3.3124,3.3124,3.3124,3.3124,3.3124,3.3124,3.3124,3.3124,3.3356,3.3869,3.4884,3.5534,3.6041,3.7098,3.7852,3.8308,3.7919,3.8546,3.9388,3.9388,3.9388,3.9388,3.9388,3.9388,3.9388,3.9388,3.9388,3.929,3.8871,3.8781,3.8571,3.7898,3.7778,3.7689,3.7449,3.709,3.6836,3.6836,0.0,0.0,0.0,0.0,0.0,0.0,3.5504,3.5504,0.0,0.0,0.0,0.0,0.0,0.0,3.5504,3.5504,3.5504,3.5504,3.5504,3.5504,3.5504,3.5504,3.5504,3.5504,3.5504,3.5504,3.5504,3.5504,3.5504,3.5504,3.5504,3.5504,3.5504,3.5504,3.5654,3.5878,3.5878,3.6282,3.6926,3.3124,3.3124,3.3124,0.0,3.3124,0.0,3.3124,3.3124,3.3124,3.3124,3.3124,3.3124,3.3124,3.3124,3.3124,3.3124,0.0,0.0,0.0,3.3124,3.3124,3.3124,3.3124,3.3124,3.3124,3.3124,3.3124,3.3124,3.3124,3.3124,3.3124,3.3124,3.3124,3.3124,3.3124,3.3124,3.3124,3.3124,3.3124,3.3124,3.3124,3.3124,3.3124,3.3124,3.3124,3.3124,3.3124,3.3755,3.4746,3.5734,3.6813,3.7866,3.8943,3.9337,3.9177,3.8196,3.862,3.9388,3.9388,3.9388,3.9388,3.9388,3.9388,3.9388,3.9388,3.9388,3.9388,3.9388,3.9388,3.923,3.8571,3.8467,3.8257,3.7644,3.7509,3.7479,3.7479,0.0,0.0,0.0,0.0,0.0,3.5699,3.5639,3.5639,0.0,0.0,0.0,0.0,0.0,3.5594,3.5504,3.5504,3.5504,3.5504,3.5504,3.5504,3.5504,3.5504,3.5504,3.5504,3.5504,3.5504,3.5504,3.5504,3.5504,3.5504,3.5549,3.5579,3.5579,3.5624,3.6013,3.6552,3.6552,3.6941,3.7569,0.0,0.0,3.3124,3.3124,3.3124,3.3124,3.3124,3.3124,3.3124,3.3124,3.3124,3.3124,3.3124,3.3124,3.3124,3.3124,3.3124,3.3124,3.3124,3.3124,3.3124,3.3124,3.3124,3.3124,3.3124,3.3124,3.3124,3.3124,3.3124,3.3124,3.3124,3.3124,3.3124,3.3124,3.3124,3.3124,3.3124,3.3124,3.3124,3.3124,3.3124,3.3124,3.3124,3.3124,3.3124,3.3124,3.3124,3.3283,3.3641,3.4692,3.5708,3.6774,3.7829,3.8745,3.9337,3.9104,3.9177,3.9388,3.9388,3.9388,3.9388,3.9388,3.9388,3.9388,3.9388,3.9388,3.9388,3.9388,3.9388,3.9328,3.92,3.917,3.9125,3.894,3.8497,3.8153,3.8153,3.7719,0.0,0.0,3.7195,3.712,3.6971,3.6956,3.6956,0.0,0.0,0.0,0.0,3.6956,3.6507,3.5534,3.5504,3.5504,3.5504,3.5504,3.5504,3.5504,3.5504,3.5504,3.5504,3.5504,3.5504,3.5504,3.5504,3.5504,3.5549,3.6043,3.6252,3.6297,3.6776,3.706,3.7195,3.7195,3.7599,3.8182,3.3124,3.3124,3.3124,3.3124,3.3124,3.3124,3.3124,3.3124,3.3212,3.342,3.3458,3.3545,3.3796,3.3822,3.3822,3.3822,3.337,3.3124,3.3124,3.3124,3.3124,3.3124,3.3124,3.3124,3.3124,3.3124,3.3124,3.3124,3.3124,3.3124,3.3124,3.3124,3.3124,3.3124,3.3124,3.3124,3.3124,3.3124,3.3124,3.3124,3.3124,3.3124,3.3124,3.3124,3.3124,3.3124,3.3124,3.3441,3.3982,3.5047,3.6067,3.7137,3.8182,3.8943,3.9388,3.9388,3.9388,3.9388,3.9388,3.9388,3.9388,3.9388,3.9388,3.9388,3.9388,3.9388,3.9388,3.9388,3.9388,3.9388,3.9388,3.9388,3.9388,3.9388,3.911,3.8856,3.8856,3.8556,0.0,3.7898,3.7853,3.7749,3.7434,3.7404,3.7404,3.7404,3.7404,0.0,3.7404,3.7404,3.709,3.6402,3.6372,3.6372,3.6372,3.6372,3.6372,3.6372,3.6372,3.6372,3.6372,3.6372,3.6372,3.6372,3.6372,3.6372,3.6402,3.6761,3.6911,3.6941,3.7285,3.7599,3.7853,3.7853,3.8272,3.8856,3.3307,3.3319,3.3319,3.3319,3.3319,3.3319,3.3319,3.3319,3.3495,3.396,3.4022,3.4198,3.4675,3.468,3.468,3.468,3.3872,3.3294,3.3206,3.3119,3.3124,3.3124,3.3124,3.3124,3.3124,3.3124,3.3124,3.3124,3.3124,3.3124,3.3124,3.3124,3.3124,3.3124,3.3124,3.3124,3.3124,3.3124,3.3124,3.3124,3.3124,3.3124,3.3124,3.3124,3.3124,3.3124,3.3124,3.3797,3.4815,3.5708,3.6788,3.7956,3.887,3.9265,3.9388,3.9388,3.9388,3.9388,3.9388,3.9388,3.9388,3.9388,3.9388,3.9388,3.9388,3.9388,3.9388,3.9388,3.9388,3.9388,3.9388,3.9388,3.9388,3.9388,3.9388,3.9388,3.9388,0.0,3.92,3.8616,3.8542,3.8332,3.7764,3.7719,3.7719,3.7719,3.7719,3.7719,3.7719,3.7719,3.7719,3.7719,3.7524,3.7404,3.7404,3.7404,3.7404,3.7404,3.7404,3.7404,3.7404,3.7404,3.7404,3.7404,3.7404,3.7404,3.7419,3.7524,3.7554,3.7569,3.7674,3.8048,3.8542,3.8542,3.8916,3.9388,3.4374,3.4462,3.4462,3.4462,3.4462,3.4462,3.4462,3.4462,3.45,3.4575,3.46,3.4625,3.4668,3.468,3.468,3.468,3.4562,3.4274,3.3809,3.3332,3.3124,3.3124,3.3124,3.3124,3.3124,3.3124,3.3124,3.3124,3.3124,3.3124,3.3124,3.3124,3.3124,3.3124,3.3124,3.3124,3.3124,3.3124,3.3124,3.3124,3.3124,3.3124,3.3124,3.3124,3.3124,3.3124,3.3124,3.3797,3.4705,3.4856,3.62,3.7829,3.7994,3.8671,3.9388,3.9388,3.9388,3.9388,3.9388,3.9388,3.9388,3.9388,3.9388,3.9388,3.9388,3.9388,3.9388,3.9388,3.9388,3.9388,3.9388,3.9388,3.9388,3.9388,3.9388,3.9388,3.9388,0.0,3.9343,3.9275,3.926,3.9179,3.911,3.9074,3.9074,3.9074,3.9074,3.9074,3.9074,3.9074,3.9074,3.9074,3.8003,3.7404,3.7404,3.7404,3.7404,3.7404,3.7404,3.7404,3.7404,3.7404,3.7404,3.7404,3.7404,3.7404,3.7449,3.8003,3.8242,3.8302,3.8886,3.9134,3.926,3.926,3.9334,3.9388,3.4675,3.468,3.468,3.468,3.468,3.468,3.468,3.468,3.4781,3.5082,3.5119,3.5232,3.5579,3.5604,3.5604,3.5604,3.5341,3.5019,3.4756,3.4274,3.396,3.396,3.396,3.3822,3.3533,3.3275,3.3124,3.3124,3.3124,3.3124,3.3124,3.3124,3.3124,3.3124,3.3124,3.3124,3.3124,3.3124,3.3124,3.3124,3.3124,3.3124,3.3124,3.3124,3.3124,3.3124,3.3124,3.4137,3.5507,3.5507,3.6905,3.8671,3.8671,3.898,3.9388,3.9388,3.9388,3.9388,3.9388,3.9388,3.9388,3.9388,3.9388,3.9388,3.9388,3.9388,3.9388,3.9388,3.9388,3.9388,3.9388,3.9388,3.9388,3.9388,3.9388,0.0,3.9388,3.9388,3.9388,3.9388,3.9388,3.9388,3.9388,3.9388,3.9388,3.9388,3.9388,3.9388,3.9388,3.9388,3.9388,3.9388,3.8811,3.8497,3.8497,3.8497,3.8497,3.8497,3.8497,3.8497,3.8497,3.8497,3.8497,3.8497,3.8497,3.8497,3.8512,3.8811,3.8945,3.8975,3.929,3.9388,3.9388,3.9388,3.9388,3.9388,3.5077,3.5102,3.5102,3.5102,3.5102,3.5102,3.5102,3.5102,3.5253,3.568,3.5683,3.5893,3.6367,3.6405,3.6405,3.6405,3.5981,3.5683,3.5683,3.5341,3.4989,3.4726,3.468,3.4525,3.4098,3.3671,3.3458,3.3458,3.3458,3.3458,3.3458,3.3458,3.3458,3.3458,3.3458,3.3382,3.3269,3.3269,3.3194,3.3124,3.3124,3.3124,3.3124,3.3124,3.3124,3.3124,3.3124,3.4457,3.6198,3.6198,3.7648,3.9388,3.9388,3.9388,3.9388,3.9388,3.9388,3.9388,3.9388,3.9388,3.9388,3.9388,3.9388,3.9388,3.9388,3.9388,3.9388,3.9388,3.9388,3.9388,3.9388,3.9388,3.9388,3.9388,0.0,3.9388,0.0,3.9388,3.9388,3.9388,3.9388,3.9388,3.9388,3.9388,3.9388,3.9388,3.9388,3.9388,3.9388,3.9388,3.9388,3.9388,3.9388,3.9388,3.9388,3.9388,3.9388,3.9388,3.9388,3.9388,3.9388,3.9388,3.9388,3.9388,3.9388,3.9388,3.9388,3.9388,3.9388,3.9388,3.9388,3.9388,3.9388,3.9388,3.9388,3.9388,3.6144,3.6279,3.6279,3.6279,3.6279,3.6279,3.6279,3.6279,3.6304,3.6342,3.6342,3.6367,3.6405,3.6405,3.6405,3.6405,3.6367,3.6342,3.6342,3.6317,3.578,3.4763,3.468,3.4655,3.4618,3.4625,3.46,3.46,3.46,3.46,3.46,3.46,3.46,3.46,3.46,3.4324,3.3847,3.3847,3.3545,3.3124,3.3124,3.3124,3.3124,3.3124,3.3124,3.3124,3.3124,3.4457,3.6198,3.6198,3.7648,3.9388,3.9388,3.9388,3.9388,3.9388,3.9388,3.9388,3.9388,3.9388,3.9388,3.9388,3.9388,3.9388,3.9388,3.9388,3.9388,3.9388,3.9388,3.9388,3.9388,3.9388,3.9388,3.9388,0.0,0.0,3.9388,3.9388,3.9388,3.9388,3.9388,3.9388,3.9388,3.9388,3.9388,3.9388,3.9388,3.9388,3.9388,3.9388,3.9388,3.9388,3.9388,3.9388,3.9388,3.9388,3.9388,3.9388,3.9388,3.9388,3.9388,3.9388,3.9388,3.9388,3.9388,3.9388,3.9388,3.9388,3.9388,3.9388,3.9388,3.9388,3.9388,3.9388,3.9388,3.9388,3.6367,3.6405,3.6405,3.6405,3.6405,3.6405,3.6405,3.6405,3.6405,3.6405,3.6405,3.6405,3.6405,3.6405,3.6405,3.6405,3.6405,3.6405,3.6405,3.6405,3.6216,3.5755,3.5416,3.5194,3.5194,3.4856,3.468,3.468,3.468,3.468,3.468,3.468,3.468,3.468,3.468,3.4613,3.4412,3.4412,3.4286,3.4098,3.4098,3.4098,3.4098,3.4098,3.4098,3.4136,3.4482,3.5512,3.6816,3.7109,3.8182,3.9388,3.9388,3.9388,3.9388,3.9388,3.9388,3.9388,3.9388,3.9388,3.9388,3.9388,3.9388,3.9388,3.9388,3.9388,3.9388,3.9388,3.9388,3.9388,3.9388,3.9388,3.9388,3.9388,0.0,3.9388,3.9388,3.9388,3.9388,3.9388,3.9388,3.9388,3.9388,3.9388,3.9388,3.9388,3.9388,3.9388,3.9388,3.9388,3.9388,3.9388,3.9388,3.9388,3.9388,3.9388,3.9388,3.9388,3.9388,3.9388,3.9388,3.9388,3.9388,3.9388,3.9388,3.9388,3.9388,3.9388,3.9388,3.9388,3.9388,3.9388,3.9388,3.9388,3.9388,3.9388,3.6405,3.6405,3.6405,3.6405,3.6405,3.6405,3.6405,3.6405,3.6405,3.6405,3.6405,3.6405,3.6405,3.6405,3.6405,3.6405,3.6405,3.6405,3.6405,3.6405,3.6405,3.6405,3.5994,3.5805,3.5805,3.5429,3.524,3.524,3.524,3.524,3.524,3.524,3.524,3.524,3.524,3.514,3.4931,3.4931,3.4831,3.468,3.468,3.468,3.468,3.468,3.468,3.4798,3.5526,3.649,3.7494,3.82,3.9147,3.9993,3.9783,3.9553,3.9388,3.9388,3.9388,3.9388,3.9388,3.9388,3.9388,3.9388,3.9388,3.9388,3.9388,3.9388,3.9388,3.9388,3.9388,3.9388,3.9388,3.9388,3.9388,3.9388,3.9388,3.9388,3.9388,3.9388,3.9388,3.9388,3.9388,3.9388,3.9388,3.9388,3.9388,3.9388,3.9388,3.9388,3.9388,3.9388,3.9388,3.9388,3.9388,3.9388,3.9388,3.9388,3.9388,3.9388,3.9388,3.9388,3.9388,3.9388,3.9388,3.9388,3.9388,3.9388,3.9388,3.9388,3.9388,3.9388,3.9388,3.9388,3.9388,3.9388,3.9388,3.9388,3.6405,3.6405,3.6405,3.6405,3.6405,3.6405,3.6405,3.6405,3.6405,3.6405,3.6405,3.6405,3.6405,3.6405,3.6405,3.6405,3.6405,3.6405,3.6405,3.6405,3.6405,3.6405,3.6405,3.6405,3.6405,3.6405,3.6405,3.6405,3.6405,3.6405,3.6405,3.6405,3.6405,3.6405,3.6405,3.6056,3.5508,3.5508,3.5194,3.4726,3.4726,3.4726,3.4726,3.4726,3.4726,3.4861,3.6057,3.7138,3.8173,3.9422,4.0505,4.1265,4.0606,3.9963,3.9439,3.9439,3.9388,3.9388,3.9388,3.9388,3.9388,3.9388,3.9388,3.9388,3.9388,3.9388,3.9388,3.9388,3.9388,3.9388,3.9388,3.9388,3.9388,3.9388,3.9388,3.9388,3.9388,3.9388,3.9388,3.9388,3.9388,3.9388,3.9388,3.9388,3.9388,3.9388,3.9388,3.9388,3.9388,3.9388,3.9388,3.9388,3.9388,3.9388,3.9388,3.9388,3.9388,3.9388,3.9388,3.9388,3.9388,3.9388,3.9388,3.9388,3.9388,3.9388,3.9388,3.9388,3.9388,3.9388,3.9388,3.9388,3.9388,3.9388,3.9388,3.9388,3.6405,3.6405,3.6405,3.6405,3.6405,3.6405,3.6405,3.6405,3.6405,3.6405,3.6405,3.6405,3.6405,3.6405,3.6405,3.6405,3.6405,3.6405,3.6405,3.6405,3.6405,3.6405,3.6405,3.6405,3.6405,3.6405,3.6405,3.6405,3.6405,3.6405,3.6405,3.6405,3.6405,3.6405,3.6405,3.6317,3.6119,3.6119,3.6019,3.5868,3.5868,3.5868,3.5868,3.5868,3.5868,3.6084,3.7645,3.8387,3.8866,4.0402,4.1126,4.1392,4.1145,4.095,4.0786,4.0786,4.0472,4.0113,4.0113,3.9768,3.9388,3.9388,3.9388,3.9388,3.9388,3.9388,3.9388,3.9388,3.9388,3.9388,3.9388,3.9388,3.9388,3.9388,3.9388,3.9388,3.9388,3.9388,3.9388,3.9388,3.9388,3.9388,3.9388,3.9388,3.9388,3.9388,3.9388,3.9388,3.9388,3.9388,3.9388,3.9388,3.9388,3.9388,3.9388,3.9388,3.9388,3.9388,3.9388,3.9388,3.9388,3.9388,3.9388,3.9388,3.9388,3.9388,3.9388,3.9388,3.9388,3.9388,3.9388,3.9388,3.9388,3.9388,3.9388,3.9388,3.6405,3.6405,3.6405,3.6405,3.6405,3.6405,3.6405,3.6405,3.6405,3.6405,3.6405,3.6405,3.6405,3.6405,3.6405,3.6405,3.6803,3.7289,3.7736,3.7782,3.7782,3.7782,3.7782,3.7335,3.6405,3.6405,3.6405,3.6405,3.6405,3.6405,3.6405,3.6405,3.6405,3.6405,3.6405,3.6405,3.6405,3.6405,3.6405,3.6405,3.6405,3.6405,3.6405,3.6405,3.6405,3.6577,3.8069,3.8888,3.9534,4.0971,4.1605,4.1811,4.1811,4.1632,4.1422,4.1422,4.11,4.0786,4.0786,4.0502,4.0187,4.0187,3.9798,3.9388,3.9388,3.9388,3.9388,3.9388,3.9388,3.9388,3.9388,3.9388,3.9388,3.9388,3.9388,3.9388,3.9388,3.9388,3.9388,3.9388,3.9388,3.9388,3.9388,3.9388,3.9388,3.9388,3.9388,3.9388,3.9388,3.9388,3.9388,3.9388,3.9388,3.9388,3.9388,3.9388,3.9388,3.9388,3.9388,3.9388,3.9388,3.9388,3.9388,3.9388,3.9388,3.9388,3.9388,3.9388,3.9388,3.9388,3.9388,3.9388,3.9388,3.9388,3.9388,3.9388,3.6405,3.6405,3.6405,3.6405,3.6405,3.6405,3.6405,3.6405,3.6405,3.6405,3.6405,3.6405,3.6405,3.6405,3.6405,3.6405,3.7461,3.8604,3.9812,3.9899,3.9899,3.9899,3.9899,3.8885,3.6756,3.6628,3.6534,3.6534,3.6452,3.6405,3.6405,3.6405,3.6405,3.6405,3.6405,3.6405,3.6405,3.6405,3.6405,3.6405,3.6405,3.6405,3.6405,3.6405,3.6452,3.6709,3.7848,3.905,4.0246,4.1378,4.2071,4.2485,4.2485,4.2081,4.1549,4.1549,4.1504,4.1512,4.1512,4.1467,4.1422,4.1422,4.0487,3.9574,3.9514,3.9454,3.9388,3.9388,3.9388,3.9388,3.9388,3.9388,3.9388,3.9388,3.9388,3.9388,3.9388,3.9388,3.9388,3.9388,3.9388,3.9388,3.9388,3.9388,3.9388,3.9388,3.9388,3.9388,3.9388,3.9388,3.9388,3.9388,3.9388,3.9388,3.9388,3.9388,3.9388,3.9388,3.9388,3.9388,3.9388,3.9388,3.9388,3.9388,3.9388,3.9388,3.9388,3.9388,3.9388,3.9388,3.9388,3.9388,3.9388,3.9388,3.9388,3.9388,3.6405,3.6405,3.6405,3.6405,3.6405,3.6405,3.6405,3.6405,3.6405,3.6405,3.6405,3.6405,3.6405,3.6405,3.6405,3.6405,3.7461,3.8604,3.9812,3.9899,3.9899,3.9899,3.9899,3.9681,3.9152,3.8211,3.7723,3.7723,3.6849,3.6405,3.6405,3.6405,3.6405,3.6405,3.6405,3.6405,3.6405,3.6405,3.6405,3.6405,3.6405,3.6405,3.6405,3.6405,3.693,3.7893,3.9094,4.0261,4.142,4.2548,4.3026,4.312,4.312,4.2991,4.2871,4.2871,4.2551,4.2186,4.2186,4.1811,4.1422,4.1422,4.1175,4.0816,4.0307,3.9783,3.9388,3.9388,3.9388,3.9388,3.9388,3.9388,3.9388,3.9388,3.9388,3.9388,3.9388,3.9388,3.9388,3.9388,3.9388,3.9388,3.9388,3.9388,3.9388,3.9388,3.9388,3.9388,3.9388,3.9388,3.9388,3.9388,3.9388,3.9388,3.9388,3.9388,3.9388,3.9388,3.9388,3.9388,3.9388,3.9388,3.9388,3.9388,3.9388,3.9388,3.9388,3.9388,3.9388,3.9388,3.9388,3.9388,3.9388,3.9388,3.9388,3.9388,3.6405,3.6405,3.6405,3.6405,3.6405,3.6405,3.6405,3.6405,3.6405,3.6405,3.6405,3.6405,3.6405,3.6405,3.6849,3.7952,3.9125,4.0247,4.1449,4.1532,4.1532,4.1532,4.1532,4.1532,4.1532,4.0376,3.9508,3.8961,3.8347,3.7782,3.7196,3.7196,3.693,3.6405,3.6405,3.6405,3.6405,3.6405,3.6405,3.6405,3.6405,3.6405,3.6452,3.7023,3.7586,3.8243,3.9461,4.0618,4.1767,4.29,4.329,4.329,4.329,4.329,4.329,4.329,4.309,4.2821,4.2821,4.2566,4.2312,4.2312,4.2073,4.1707,4.101,4.0606,4.0352,4.0352,4.0352,4.0262,3.9948,3.9888,3.9783,3.9433,3.9388,3.9388,3.9388,3.9388,3.9388,3.9388,3.9388,3.9388,3.9388,3.9388,3.9388,3.9388,3.9388,3.9388,3.9388,3.9388,3.9388,3.9388,3.9388,3.9388,3.9388,3.9388,3.9388,3.9388,3.9388,3.9388,3.9388,3.9388,3.9388,3.9388,3.9388,3.9388,3.9388,3.9388,3.9388,3.9388,3.9388,3.9388,3.9388,3.9388,3.9388,3.9388,3.6405,3.6405,3.6405,3.6405,3.6405,3.6405,3.6405,3.6405,3.6405,3.6405,3.6405,3.6405,3.6405,3.6581,3.7553,3.9724,4.0958,4.207,4.325,4.329,4.321,4.3036,4.321,4.321,4.3036,4.2392,4.1451,4.0189,3.9798,3.9094,3.8107,3.7893,3.7322,3.6405,3.6405,3.6405,3.6405,3.6405,3.6405,3.6405,3.6405,3.6405,3.6499,3.7461,3.7939,3.8243,3.9461,4.0746,4.2029,4.2981,4.329,4.329,4.329,4.329,4.329,4.329,4.329,4.329,4.329,4.329,4.329,4.329,4.2925,4.2425,4.1833,4.1549,4.1422,4.1422,4.1422,4.1205,4.0666,4.0561,4.0382,3.9843,3.9753,3.9709,3.9604,3.9553,3.9544,3.9388,3.9388,3.9388,3.9388,3.9388,3.9388,3.9388,3.9388,3.9388,3.9388,3.9388,3.9388,3.9388,3.9388,3.9388,3.9388,3.9388,3.9388,3.9388,3.9388,3.9388,3.9388,3.9388,3.9388,3.9388,3.9388,3.9388,3.9388,3.9388,3.9388,3.9388,3.9388,3.9388,3.9388,3.9388,3.9388,3.9388,3.6405,3.6405,3.6405,3.6405,3.6405,3.6405,3.6405,3.6405,3.6405,3.6405,3.6405,3.6405,3.6405,3.7276,3.8424,3.9768,4.0958,4.207,4.325,4.329,4.286,4.185,4.2765,4.286,4.185,4.323,4.3107,4.1378,3.9332,3.8243,3.8062,3.7103,3.6534,3.6405,3.6405,3.6405,3.6405,3.6405,3.6405,3.6405,3.6405,3.6405,3.6405,3.6581,3.7243,3.8243,3.9461,4.1267,4.3076,4.325,4.329,4.329,4.329,4.329,4.329,4.329,4.329,4.329,4.329,4.329,4.329,4.329,4.323,4.314,4.305,4.2192,4.1422,4.1422,4.1422,4.1354,4.1265,4.125,4.122,4.113,4.1115,4.092,4.0352,4.0262,4.0053,3.9448,3.9388,3.9388,3.9388,3.9388,3.9388,3.9388,3.9388,3.9388,3.9388,3.9388,3.9388,3.9388,3.9388,3.9388,3.9388,3.9388,3.9388,3.9388,3.9388,3.9388,3.9388,3.9388,3.9388,3.9388,3.9388,3.9388,3.9388,3.9388,3.9388,3.9388,3.9388,3.9388,3.9388,3.9388,3.9388,3.9388,3.6405,3.6405,3.6405,3.6405,3.6405,3.6405,3.6405,3.6405,3.6405,3.6405,3.6405,3.6405,3.6405,3.7415,3.8604,3.9812,4.0958,4.207,4.325,4.2968,4.2913,4.3093,4.2592,4.2367,4.2596,4.2682,4.2336,4.1529,4.1207,4.0732,4.0083,3.8877,3.8325,3.8359,3.8359,3.8359,3.8359,3.8359,3.7957,3.7274,3.7274,3.7274,3.7371,3.8066,3.8608,3.9283,4.119,4.251,4.3397,4.3745,4.3843,4.3768,4.3409,4.329,4.329,4.329,4.329,4.329,4.329,4.329,4.329,4.329,4.329,4.329,4.329,4.2841,4.2476,4.2476,4.2476,4.2357,4.2036,4.1976,4.1856,4.1482,4.1422,4.128,4.0995,4.095,4.0846,4.0546,4.0187,3.9963,3.9963,3.9634,3.9388,3.9388,3.9388,3.9388,3.9388,3.9388,3.9388,3.9388,3.9388,3.9388,3.9388,3.9388,3.9388,3.9388,3.9388,3.9388,3.9388,3.9388,3.9388,3.9388,3.9388,3.9388,3.9388,3.9388,3.9388,3.9388,3.9388,3.9388,3.9388,3.9388,3.9388,3.9388]}]]